[[{"header":{"parameterUnit":"m.s-1","parameterCategory":1,"la1":30.6,"la2":28.766,"lo1":-90.7593,"lo2":-88.6598,"dy":0.0162,"dx":0.0183,"nx":116,"ny":114,"refTime":"2023-11-17T06:00:00:Z","depth":0,"parameterNumber":2,"parameterNumberName":"U-component_of_WINDS"},"data":[0.0,0.0,0.0,0.0,0.0,0.0,0.0,0.0,0.0,0.0,0.0,0.0,0.0,0.0,0.0,0.0,0.0,0.0,0.0,0.0,0.0,0.0,0.0,0.0,0.0,0.0,0.0,0.0,0.0,0.0,0.0,0.0,0.0,0.0,0.0,0.0,0.0,0.0,0.0,0.0,0.0,0.0,0.0,0.0,0.0,0.0,0.0,0.0,0.0,0.0,0.0,0.0,0.0,0.0,0.0,0.0,0.0,0.0,0.0,0.0,0.0,0.0,0.0,0.0,0.0,0.0,0.0,0.0,0.0,0.0,0.0,0.0,0.0,0.0,0.0,0.0,0.0,0.0,0.0,0.0,0.0,0.0,0.0,0.0,0.0,0.0,0.0,0.0,0.0,0.0,0.0,0.0,0.0,0.0,0.0,0.0,0.0,0.0,0.0,0.0,0.0,0.0,0.0,0.0,0.0,0.0,0.0,0.0,0.0,0.0,0.0,0.0,0.0,0.0,0.0,0.0,0.0,0.0,0.0,0.0,0.0,0.0,0.0,0.0,0.0,0.0,0.0,0.0,0.0,0.0,0.0,0.0,0.0,0.0,0.0,0.0,0.0,0.0,0.0,0.0,0.0,0.0,0.0,0.0,0.0,0.0,0.0,0.0,0.0,0.0,0.0,0.0,0.0,0.0,0.0,0.0,0.0,0.0,0.0,0.0,0.0,0.0,0.0,0.0,0.0,0.0,0.0,0.0,0.0,0.0,0.0,0.0,0.0,0.0,0.0,0.0,0.0,0.0,0.0,0.0,0.0,0.0,0.0,0.0,0.0,0.0,0.0,0.0,0.0,0.0,0.0,0.0,0.0,0.0,0.0,0.0,0.0,0.0,0.0,0.0,0.0,0.0,0.0,0.0,0.0,0.0,0.0,0.0,0.0,0.0,0.0,0.0,0.0,0.0,0.0,0.0,0.0,0.0,0.0,0.0,0.0,0.0,0.0,0.0,0.0,0.0,0.0,0.0,0.0,0.0,0.0,0.0,0.0,0.0,0.0,0.0,0.0,0.0,0.0,0.0,0.0,0.0,0.0,0.0,0.0,0.0,0.0,0.0,0.0,0.0,0.0,0.0,0.0,0.0,0.0,0.0,0.0,0.0,0.0,0.0,0.0,0.0,0.0,0.0,0.0,0.0,0.0,0.0,0.0,0.0,0.0,0.0,0.0,0.0,0.0,0.0,0.0,0.0,0.0,0.0,0.0,0.0,0.0,0.0,0.0,0.0,0.0,0.0,0.0,0.0,0.0,0.0,0.0,0.0,0.0,0.0,0.0,0.0,0.0,0.0,0.0,0.0,0.0,0.0,0.0,0.0,0.0,0.0,0.0,0.0,0.0,0.0,0.0,0.0,0.0,0.0,0.0,0.0,0.0,0.0,0.0,0.0,0.0,0.0,0.0,0.0,0.0,0.0,0.0,0.0,0.0,0.0,0.0,0.0,0.0,0.0,0.0,0.0,0.0,0.0,0.0,0.0,0.0,0.0,0.0,0.0,0.0,0.0,0.0,0.0,0.0,0.0,0.0,0.0,0.0,0.0,0.0,0.0,0.0,0.0,0.0,0.0,0.0,0.0,0.0,0.0,0.0,0.0,0.0,0.0,0.0,0.0,0.0,0.0,0.0,0.0,0.0,0.0,0.0,0.0,0.0,0.0,0.0,0.0,0.0,0.0,0.0,0.0,0.0,0.0,0.0,0.0,0.0,0.0,0.0,0.0,0.0,0.0,0.0,0.0,0.0,0.0,0.0,0.0,0.0,0.0,0.0,0.0,0.0,0.0,0.0,0.0,0.0,0.0,0.0,0.0,0.0,0.0,0.0,0.0,0.0,0.0,0.0,0.0,0.0,0.0,0.0,0.0,0.0,0.0,0.0,0.0,0.0,0.0,0.0,0.0,0.0,0.0,0.0,0.0,0.0,0.0,0.0,0.0,0.0,0.0,0.0,0.0,0.0,0.0,0.0,0.0,0.0,0.0,0.0,0.0,0.0,0.0,0.0,0.0,0.0,0.0,0.0,0.0,0.0,0.0,0.0,0.0,0.0,0.0,0.0,0.0,0.0,0.0,0.0,0.0,0.0,0.0,0.0,0.0,0.0,0.0,0.0,0.0,0.0,0.0,0.0,0.0,0.0,0.0,0.0,0.0,0.0,0.0,0.0,0.0,0.0,0.0,0.0,0.0,0.0,0.0,0.0,0.0,0.0,0.0,0.0,0.0,0.0,0.0,0.0,0.0,0.0,0.0,0.0,0.0,0.0,0.0,0.0,0.0,0.0,0.0,0.0,0.0,0.0,0.0,0.0,0.0,0.0,0.0,0.0,0.0,0.0,0.0,0.0,0.0,0.0,0.0,0.0,0.0,0.0,0.0,0.0,0.0,0.0,0.0,0.0,0.0,0.0,0.0,0.0,0.0,0.0,0.0,0.0,0.0,0.0,0.0,0.0,0.0,0.0,0.0,0.0,0.0,0.0,0.0,0.0,0.0,0.0,0.0,0.0,0.0,0.0,0.0,0.0,0.0,0.0,0.0,0.0,0.0,0.0,0.0,0.0,0.0,0.0,0.0,0.0,0.0,0.0,0.0,0.0,0.0,0.0,0.0,0.0,0.0,0.0,0.0,0.0,0.0,0.0,0.0,0.0,0.0,0.0,0.0,0.0,0.0,0.0,0.0,0.0,0.0,0.0,0.0,0.0,0.0,0.0,0.0,0.0,0.0,0.0,0.0,0.0,0.0,0.0,0.0,0.0,0.0,0.0,0.0,0.0,0.0,0.0,0.0,0.0,0.0,0.0,0.0,0.0,0.0,0.0,0.0,0.0,0.0,0.0,0.0,0.0,0.0,0.0,0.0,0.0,0.0,0.0,0.0,0.0,0.0,0.0,0.0,0.0,0.0,0.0,0.0,0.0,0.0,0.0,0.0,0.0,0.0,0.0,0.0,0.0,0.0,0.0,0.0,0.0,0.0,0.0,0.0,0.0,0.0,0.0,0.0,0.0,0.0,0.0,0.0,0.0,0.0,0.0,0.0,0.0,0.0,0.0,0.0,0.0,0.0,0.0,0.0,0.0,0.0,0.0,0.0,0.0,0.0,0.0,0.0,0.0,0.0,0.0,0.0,0.0,0.0,0.0,0.0,0.0,0.0,0.0,0.0,0.0,0.0,0.0,0.0,0.0,0.0,0.0,0.0,0.0,0.0,0.0,0.0,0.0,0.0,0.0,0.0,0.0,0.0,0.0,0.0,0.0,0.0,0.0,0.0,0.0,0.0,0.0,0.0,0.0,0.0,0.0,0.0,0.0,0.0,0.0,0.0,0.0,0.0,0.0,0.0,0.0,0.0,0.0,0.0,0.0,0.0,0.0,0.0,0.0,0.0,0.0,0.0,0.0,0.0,0.0,0.0,0.0,0.0,0.0,0.0,0.0,0.0,0.0,0.0,0.0,0.0,0.0,0.0,0.0,0.0,0.0,0.0,0.0,0.0,0.0,0.0,0.0,0.0,0.0,0.0,0.0,0.0,0.0,0.0,0.0,0.0,0.0,0.0,0.0,0.0,0.0,0.0,0.0,0.0,0.0,0.0,0.0,0.0,0.0,0.0,0.0,0.0,0.0,0.0,0.0,0.0,0.0,0.0,0.0,0.0,0.0,0.0,0.0,0.0,0.0,0.0,0.0,0.0,0.0,0.0,0.0,0.0,0.0,0.0,0.0,0.0,0.0,0.0,0.0,0.0,0.0,0.0,0.0,0.0,0.0,0.0,0.0,0.0,0.0,0.0,0.0,0.0,0.0,0.0,0.0,0.0,0.0,0.0,0.0,0.0,0.0,0.0,0.0,0.0,0.0,0.0,0.0,0.0,0.0,0.0,0.0,0.0,0.0,0.0,0.0,0.0,0.0,0.0,0.0,0.0,0.0,0.0,0.0,0.0,0.0,0.0,0.0,0.0,0.0,0.0,0.0,0.0,0.0,0.0,0.0,0.0,0.0,0.0,0.0,0.0,0.0,0.0,0.0,0.0,0.0,0.0,0.0,0.0,0.0,0.0,0.0,0.0,0.0,0.0,0.0,0.0,0.0,0.0,0.0,0.0,0.0,0.0,0.0,0.0,0.0,0.0,0.0,0.0,0.0,0.0,0.0,0.0,0.0,0.0,0.0,0.0,0.0,0.0,0.0,0.0,0.0,0.0,0.0,0.0,0.0,0.0,0.0,0.0,0.0,0.0,0.0,0.0,0.0,0.0,0.0,0.0,0.0,0.0,0.0,0.0,0.0,0.0,0.0,0.0,0.0,0.0,0.0,0.0,0.0,0.0,0.0,0.0,0.0,0.0,0.0,0.0,0.0,0.0,0.0,0.0,0.0,0.0,0.0,0.0,0.0,0.0,0.0,0.0,0.0,0.0,0.0,0.0,0.0,0.0,0.0,0.0,0.0,0.0,0.0,0.0,0.0,0.0,0.0,0.0,0.0,0.0,0.0,0.0,0.0,0.0,0.0,0.0,0.0,0.0,0.0,0.0,0.0,0.0,0.0,0.0,0.0,0.0,0.0,0.0,0.0,0.0,0.0,0.0,0.0,0.0,0.0,0.0,0.0,0.0,0.0,0.0,0.0,0.0,0.0,0.0,0.0,0.0,0.0,0.0,0.0,0.0,0.0,0.0,0.0,0.0,0.0,0.0,0.0,0.0,0.0,0.0,0.0,0.0,0.0,0.0,0.0,0.0,0.0,0.0,0.0,0.0,0.0,0.0,0.0,0.0,0.0,0.0,0.0,0.0,0.0,0.0,0.0,0.0,0.0,0.0,0.0,0.0,0.0,0.0,0.0,0.0,0.0,0.0,0.0,0.0,0.0,0.0,0.0,0.0,0.0,0.0,0.0,0.0,0.0,0.0,0.0,0.0,0.0,0.0,0.0,0.0,0.0,0.0,0.0,0.0,0.0,0.0,0.0,0.0,0.0,0.0,0.0,0.0,0.0,0.0,0.0,0.0,0.0,0.0,0.0,0.0,0.0,0.0,0.0,0.0,0.0,0.0,0.0,0.0,0.0,0.0,0.0,0.0,0.0,0.0,0.0,0.0,0.0,0.0,0.0,0.0,0.0,0.0,0.0,0.0,0.0,0.0,0.0,0.0,0.0,0.0,0.0,0.0,0.0,0.0,0.0,0.0,0.0,0.0,0.0,0.0,0.0,0.0,0.0,0.0,0.0,0.0,0.0,0.0,0.0,0.0,0.0,0.0,0.0,0.0,0.0,0.0,0.0,0.0,0.0,0.0,0.0,0.0,0.0,0.0,0.0,0.0,0.0,0.0,0.0,0.0,0.0,0.0,0.0,0.0,0.0,0.0,0.0,0.0,0.0,0.0,0.0,0.0,0.0,0.0,0.0,0.0,0.0,0.0,0.0,0.0,0.0,0.0,0.0,0.0,0.0,0.0,0.0,0.0,0.0,0.0,0.0,0.0,0.0,0.0,0.0,0.0,0.0,0.0,0.0,0.0,0.0,0.0,0.0,0.0,0.0,0.0,0.0,0.0,0.0,0.0,0.0,0.0,0.0,0.0,0.0,0.0,0.0,0.0,0.0,0.0,0.0,0.0,0.0,0.0,0.0,0.0,0.0,0.0,0.0,0.0,0.0,0.0,0.0,0.0,0.0,0.0,0.0,0.0,0.0,0.0,0.0,0.0,0.0,0.0,0.0,0.0,0.0,0.0,0.0,0.0,0.0,0.0,0.0,0.0,0.0,0.0,0.0,0.0,0.0,0.0,0.0,0.0,0.0,0.0,0.0,0.0,0.0,0.0,0.0,0.0,0.0,0.0,0.0,0.0,0.0,0.0,0.0,0.0,0.0,0.0,0.0,0.0,0.0,0.0,0.0,0.0,0.0,0.0,0.0,0.0,0.0,0.0,0.0,0.0,0.0,0.0,0.0,0.0,0.0,0.0,0.0,0.0,0.0,0.0,0.0,0.0,0.0,0.0,0.0,0.0,0.0,0.0,0.0,0.0,0.0,0.0,0.0,0.0,0.0,0.0,0.0,0.0,0.0,0.0,0.0,0.0,0.0,0.0,0.0,0.0,0.0,0.0,0.0,0.0,0.0,0.0,-0.5899,0.0,0.0,0.0,0.0,0.0,0.0,0.0,0.0,0.0,0.0,0.0,0.0,0.0,0.0,0.0,0.0,0.0,0.0,0.0,0.0,0.0,0.0,0.0,0.0,0.0,0.0,0.0,0.0,0.0,0.0,0.0,0.0,0.0,0.0,0.0,0.0,0.0,0.0,0.1455,-0.0809,-0.277,-0.4395,0.0215,0.3171,0.4645,0.0,0.0,0.0,0.0,0.0,0.0,0.0,0.0,0.0,0.0,0.0,0.0,0.0,0.0,0.0,0.0,0.0,0.0,0.0,0.0,0.0,0.0,0.0,0.0,0.0,0.0,0.0,0.0,0.0,0.0,0.0,0.0,0.0,0.0,0.0,0.0,0.0,0.0,0.0,0.0,0.0,0.0,0.0,0.0,0.0,0.0,0.0,0.0,0.0,0.0,0.0,0.0,0.0,0.0,0.0,0.0,0.0,0.0,0.0,0.0,0.0,0.0,0.0,0.0,0.0,0.0,0.0,0.0,0.0,0.0,0.0,-0.8909,0.0,0.0,0.0,0.0,0.0,0.0,0.0,0.0,0.0,0.0,0.0,0.0,0.0,0.0,0.0,0.0,0.0,0.0,0.0,0.0,0.0,0.0,0.0,1.4208,1.3412,1.357,1.3528,1.49,1.8187,0.0,0.0,0.0,0.0,0.0,1.5103,1.0456,0.4419,-0.2908,-0.6344,-0.7074,-0.5227,-0.4732,-0.3154,-0.0665,0.2342,0.0,0.0,0.0,0.0,0.0,0.0,0.0,0.0,0.0,0.0,0.0,0.0,0.0,0.0,0.0,0.0,0.0,0.0,0.0,0.0,0.0,0.0,0.0,0.0,0.0,0.0,0.0,0.0,0.0,0.0,0.0,0.0,0.0,0.0,0.0,0.0,0.0,0.0,0.0,0.0,0.0,0.0,0.0,0.0,0.0,0.0,0.0,0.0,0.0,0.0,0.0,0.0,0.0,0.0,0.0,0.0,0.0,0.0,0.0,0.0,0.0,0.0,0.0,-1.7233,-1.6646,-1.6281,-1.2178,-1.118,-1.2322,-0.8544,-0.9093,-1.2317,0.0,0.0,0.0,0.0,0.0,0.0,0.0,0.0,0.0,0.0,0.0,0.0,0.0,0.0,0.0,0.0,0.0,0.0,0.0,0.0,1.8956,1.8889,1.5001,1.2498,1.2812,1.4699,1.688,1.9316,0.0,0.0,0.0,0.0,1.1883,0.9868,1.1348,0.9213,0.3303,-0.2325,-0.617,-0.8203,-0.5661,-0.426,-0.379,-0.073,0.0618,0.0574,0.0,0.0,0.0,0.0,0.0,0.0,0.0,0.0,0.0,0.0,0.0,0.0,0.0,0.0,0.0,0.0,0.0,0.0,0.0,0.0,0.0,0.0,0.0,0.0,0.0,0.0,0.0,0.0,0.0,0.0,0.0,0.0,0.0,0.0,0.0,0.0,0.0,0.0,0.0,0.0,0.0,0.9497,-0.2468,0.0,0.0,0.0,0.0,0.0,0.0,0.0,0.0,0.0,0.0,0.0,0.0,0.0,0.0,-2.3673,-2.3379,-2.3145,-2.3096,-2.2184,-2.1145,-1.9817,-1.7613,-1.5412,-1.3306,-1.308,0.0,-1.3722,-1.2074,0.0,0.0,0.0,0.0,0.0,0.0,0.0,0.0,0.0,0.0,0.0,0.0,0.0,0.0,0.0,0.0,0.0,0.0,0.0,0.0,0.0,1.4535,1.2826,0.6143,0.9588,1.2476,1.3441,1.0194,0.0,0.0,1.0901,1.2414,1.1121,0.427,0.1134,0.1984,-0.2358,-0.5148,-0.6363,-0.5081,-0.4497,-0.4469,-0.3092,-0.1574,0.012,0.2142,0.0,0.0,0.0,0.0,0.0,0.0,0.0,0.0,0.0,0.0,0.0,0.0,0.0,0.0,0.0,0.0,0.0,0.0,0.0,0.0,0.0,0.0,0.0,0.0,0.0,0.0,0.0,0.0,0.0,0.0,0.0,0.0,0.0,0.0,0.0,0.0,0.0,0.0,0.0,1.0352,0.3135,-1.8408,-1.8834,-1.5724,0.0,0.0,0.0,0.0,0.0,0.0,0.0,0.0,0.0,-2.5326,-2.4523,-2.4334,-2.4859,-2.4371,-2.3885,-2.3262,-2.1767,-2.0646,-1.9819,-1.8461,-1.6542,-1.4381,-1.4151,-1.4064,-1.3815,-1.0652,-0.8024,-0.575,0.0,0.0,0.0,0.0,0.0,-0.5587,0.0,0.0,0.0,0.0,0.0,0.0,0.0,0.0,0.0,0.0,0.0,0.0,1.2997,1.4324,1.1426,0.0937,0.1998,0.4509,0.7448,0.7001,0.6032,0.4586,0.9899,1.2887,1.2892,0.1585,-0.2873,-0.0,-0.2258,-0.3324,-0.334,-0.4155,-0.366,-0.2184,-0.2187,-0.1367,0.0184,0.2883,0.4219,0.4481,0.0,0.0,0.0,0.0,0.0,0.0,0.0,0.0,0.0,0.0,0.0,0.0,0.0,0.0,0.0,0.0,0.0,0.0,0.0,0.0,0.0,0.0,0.0,0.0,0.0,0.0,0.0,0.0,0.0,0.0,0.0,0.0,0.0,0.0,0.0,0.0,0.0,0.392,-0.6816,-3.1436,-2.5994,-1.9458,0.0,0.0,0.0,0.0,0.0,0.0,-2.7311,-2.6853,-2.6807,-2.7099,-2.5866,-2.5156,-2.5188,-2.4465,-2.3566,-2.2421,-2.0485,-1.9282,-1.8647,-1.7308,-1.591,-1.4409,-1.3903,-1.3475,-1.2788,-0.8733,-0.6833,-0.6473,-0.6491,-0.4599,-0.203,-0.3655,-0.5413,-0.7011,0.0,0.0,0.0,0.0,0.0,0.0,0.0,0.0,0.0,0.0,0.0,2.1179,2.3525,1.498,0.6631,0.0521,-0.7229,-0.7115,0.3989,0.9613,1.0083,0.4717,0.9895,1.2887,1.289,0.9632,0.5299,-0.0,-0.0164,-0.0219,-0.0273,-0.3182,-0.1442,0.4071,0.405,0.2538,-0.0,0.0183,0.189,0.4518,0.4523,0.0,0.0,0.0,0.0,0.0,0.0,0.0,0.0,0.0,0.0,0.0,0.0,0.0,0.0,0.0,0.0,0.0,0.0,0.0,0.0,0.0,0.0,0.0,0.0,0.0,0.0,0.0,0.0,0.0,0.0,0.0,0.0,0.0,0.0,0.0,0.0,0.0,0.0,-3.4246,-3.0196,0.0,0.0,0.0,0.0,-2.987,-3.0993,-3.0392,-2.8502,-2.8134,-2.7486,-2.6366,-2.6745,-2.6343,-2.5097,-2.4062,-2.2935,-2.172,-1.9844,-1.8271,-1.7045,-1.4772,-1.3341,-1.2691,-1.2521,-1.1601,-1.0248,-0.799,-0.7103,-0.7049,-0.707,-0.6928,-0.668,-0.6288,-0.6409,-0.6835,0.0,0.0,0.0,0.0,0.0,0.0,0.0,0.0,1.6854,1.5484,1.6882,1.657,1.2783,1.6697,1.3797,-0.0665,-0.008,0.2044,0.4332,0.6406,0.6597,0.4599,0.6411,0.327,-0.581,0.374,0.4029,-0.5646,0.0107,0.3839,0.5642,0.4581,0.4216,0.4574,0.645,0.6687,0.556,0.4108,0.4072,0.5075,0.4647,0.4528,0.0,0.0,0.0,0.0,0.0,0.0,0.0,0.0,0.0,0.0,0.0,0.0,0.0,0.0,0.0,0.0,0.0,0.0,0.0,0.0,0.0,0.0,0.0,0.0,0.0,0.0,0.0,0.0,0.0,0.0,0.0,0.0,0.0,0.0,0.0,0.0,0.0,-3.4617,-3.1246,0.0,-2.4989,-2.2515,-2.3067,-2.7959,-2.9395,-2.94,-2.7859,-2.7383,-2.652,-2.5175,-2.4088,-2.305,-2.2076,-2.0688,-1.9525,-1.8522,-1.6149,-1.4488,-1.3475,-1.1405,-1.0389,-1.0118,-1.007,-0.9774,-0.9134,-0.6931,-0.6242,-0.6581,-0.6548,-0.6588,-0.6518,-0.6126,-0.6179,-0.649,0.0,0.0,0.0,0.0,0.0,0.0,0.0,1.7451,1.6651,1.4472,1.4931,1.3356,0.7739,1.6972,1.9009,0.7678,0.9432,1.0098,0.7531,0.7769,0.7955,0.7861,0.6872,0.2251,-0.6401,0.4413,0.6357,-0.1484,0.3503,0.741,1.0183,0.9206,0.83,0.7425,0.9347,0.9926,0.9348,0.7402,0.6096,0.5392,0.4937,0.4654,0.4161,0.0,0.0,0.0,0.0,0.0,0.0,0.0,0.0,0.0,0.0,0.0,0.0,0.0,0.0,0.0,0.0,0.0,0.0,0.0,0.0,0.0,0.0,0.0,0.0,0.0,0.0,0.0,0.0,0.0,0.0,0.0,0.0,0.0,0.0,0.0,-2.9332,-3.4841,-3.2598,-3.014,-2.8921,-2.6286,-2.5452,-2.7331,-2.8225,-2.8143,-2.6839,-2.624,-2.5029,-2.3063,-2.1928,-2.064,-1.9274,-1.7975,-1.6538,-1.5074,-1.3164,-1.1674,-1.049,-0.8184,-0.7118,-0.7136,-0.8115,-0.7861,-0.6675,-0.5744,-0.5654,-0.5992,-0.598,-0.596,-0.5967,-0.5816,-0.5953,-0.6118,0.0,0.0,0.0,0.0,0.0,0.0,1.7812,1.8687,1.7284,1.195,1.2174,1.215,1.0355,1.563,2.1031,2.5283,1.9647,1.5104,1.326,1.4221,1.4839,1.4778,1.1889,1.1177,1.3087,1.3096,1.3096,1.3119,1.0339,1.033,1.2836,1.0169,1.0334,1.2908,1.292,1.22,1.0775,0.9466,0.7613,0.5487,0.5457,0.5053,0.4191,0.0,0.0,0.0,0.0,0.0,0.0,0.0,0.0,0.0,0.0,0.0,0.0,0.0,0.0,0.0,0.0,0.0,0.0,0.0,0.0,0.0,0.0,0.0,0.0,0.0,0.0,0.0,0.0,0.0,0.0,0.0,0.0,0.0,-3.0401,-3.0404,-3.1626,-3.4955,-3.4333,-3.2981,-3.1308,-2.844,-2.7289,-2.8736,-2.7836,-2.6665,-2.5404,-2.4826,-2.3144,-2.0053,-2.0568,-1.9609,-1.7071,-1.6032,-1.4178,-1.1468,-1.1261,-1.0135,-0.8153,-0.5184,-0.3729,-0.3756,-0.65,-0.5771,-0.2759,-0.4446,-0.5135,-0.5119,-0.508,-0.5066,-0.5138,-0.5503,-0.5571,-0.5568,0.0,0.0,0.0,0.0,0.0,0.0,1.7595,1.7287,1.5875,1.2774,1.161,1.1311,1.1851,1.54,1.9545,2.4076,2.0393,1.7454,1.6551,1.6376,1.8175,2.2394,2.0637,1.902,1.7868,1.7845,1.7819,1.7822,1.5167,1.363,1.308,1.1632,1.1747,1.3128,1.3885,1.3521,1.2316,1.1938,1.0247,0.7728,0.6066,0.5297,0.5044,0.0,0.0,0.0,0.0,0.0,0.0,0.0,0.0,0.0,0.0,0.0,0.0,0.0,0.0,0.0,0.0,0.0,0.0,0.0,0.0,0.0,0.0,0.0,0.0,0.0,0.0,0.0,0.0,0.0,0.0,0.0,0.0,-3.0489,-3.0732,-3.0554,-3.075,-3.1684,-3.0921,-3.0129,-2.9655,-2.7837,-2.6234,-2.5163,-2.3912,-2.2735,-2.1629,-2.1038,-2.0274,-1.9297,-1.8037,-1.7566,-1.7937,-1.2108,-0.844,-0.7138,-0.6892,-0.5419,-0.2862,-0.349,-0.2344,0.0179,-0.0181,-0.0544,-0.091,-0.0182,0.073,0.1778,0.2252,0.2452,0.2113,-0.0624,-0.2145,-0.2788,0.0,0.0,0.0,0.0,0.0,0.0,1.7682,1.7217,1.6028,1.3833,1.2347,1.1558,1.1687,1.4947,1.857,2.214,2.026,1.8743,1.8402,1.8394,1.9926,2.3333,2.3363,2.261,2.1209,2.0566,1.9798,1.8889,1.7376,1.5814,1.4271,1.3739,1.36,1.3907,1.447,1.4316,1.3534,1.3104,1.2004,1.0391,0.9075,0.8155,0.7365,0.5547,0.5104,0.4913,0.1284,-0.0,-0.0,-0.0,0.0,0.0,0.0,0.0,0.0,0.0,0.0,0.0,0.0,0.0,0.0,0.0,0.0,0.0,0.0,0.0,0.0,0.0,0.0,0.0,0.0,0.0,0.0,0.0,-2.79,-2.8599,-2.959,-2.9609,-2.9557,-2.9666,-2.8862,-2.7835,-2.6677,-2.553,-2.4295,-2.2955,-2.1568,-2.0551,-2.0055,-1.7338,-1.6327,-1.743,-1.2949,-1.1403,-1.3263,-0.6463,-0.265,-0.1829,-0.1467,-0.1021,-0.0394,0.1248,0.3192,0.0,0.5178,0.4324,0.2998,0.371,0.4894,0.0,0.0,0.0,0.0,0.0,-0.1424,-0.3192,0.0,0.0,0.0,0.0,0.0,0.0,1.8018,1.7979,1.71,1.4758,1.3778,1.2654,1.0978,1.4677,1.8014,1.9864,1.9643,1.9363,1.9211,1.9996,2.0475,2.048,2.2257,2.3263,2.3284,2.1837,2.0048,1.7975,1.7864,1.7199,1.6022,1.5906,1.5505,1.4906,1.4901,1.4765,1.4429,1.3654,1.3226,1.3115,1.3239,1.2114,1.0051,0.6978,0.5573,0.494,0.2055,0.0796,0.0492,0.0369,0.0,0.0,0.0,0.0,0.0,0.0,0.0,0.0,0.0,0.0,0.0,0.0,0.0,0.0,0.0,0.0,0.0,0.0,0.0,0.0,0.0,0.0,0.0,0.0,-2.7229,-2.587,-2.7486,-2.7889,-2.8139,-2.8512,-2.7725,-2.6002,-2.3069,-2.2287,-2.1875,-2.1628,-1.947,-1.818,-1.828,0.0,0.0,0.0,0.0,-0.3641,-0.5069,0.0489,0.3683,0.4408,0.4517,0.3461,0.1593,0.7361,1.0167,1.053,0.9533,0.8664,0.7933,0.7395,0.787,0.8745,0.6075,0.4031,0.2388,0.12,-0.1319,0.0,0.0,0.0,0.0,0.0,0.0,0.0,1.874,1.8788,1.7481,1.3945,1.4496,1.454,1.2705,1.5647,1.7896,1.8252,1.9453,1.9916,1.9239,1.986,2.0476,2.0947,2.1867,2.2795,2.3745,2.2274,2.0675,1.9016,1.826,1.7715,1.7396,1.6523,1.5871,1.546,1.5545,1.5155,1.4483,1.5427,1.522,1.4425,1.5429,1.313,0.9078,0.8403,0.671,0.4865,0.6529,0.5631,0.3486,0.2502,0.2204,0.2153,0.2151,0.3005,0.0,0.0,0.0,0.0,0.0,0.0,0.0,0.0,0.0,0.0,0.0,0.0,0.0,0.0,0.0,0.0,0.0,0.0,0.0,-2.5853,-2.5348,-2.5308,-2.5356,-2.5807,-2.6504,-2.7527,-2.6811,-2.4627,-2.0525,-2.0014,-2.0102,-2.0414,-1.3433,-0.8952,-0.8414,-0.4006,0.0,-0.1602,-0.2577,-0.1411,0.2215,0.8852,1.2241,1.2336,0.0,0.0,1.0588,0.9516,1.0672,1.3443,1.2196,1.1597,1.1396,1.0836,1.0681,1.0598,0.8873,0.8,0.7496,0.6206,0.4545,0.2941,0.0,0.0,0.0,0.0,0.0,0.0,1.8606,1.8535,1.7684,1.5446,1.5534,1.5445,1.4498,1.5877,1.7435,1.8927,1.951,1.9799,1.9744,1.9972,2.0463,2.126,2.1753,2.226,2.2842,2.2197,2.1187,1.9793,1.8917,1.8267,1.7838,1.7216,1.6661,1.6196,1.6281,1.6154,1.6011,1.6564,1.6729,1.671,1.7144,1.5418,1.2369,0.979,0.7897,0.6857,0.827,0.787,0.6435,0.5122,0.4275,0.3803,0.3803,0.4327,0.4703,0.0,0.0,0.0,0.0,0.0,0.0,0.0,0.0,0.0,0.0,0.0,0.0,0.0,0.0,-2.8016,0.0,0.0,-2.8278,-2.3953,-2.4095,-2.4482,-2.3661,-2.1828,-2.1984,-2.5838,-2.0976,-1.6858,-1.5749,-0.9101,-0.7641,-1.4379,-0.6564,-0.1188,-0.0496,0.325,0.5269,0.5096,0.6066,0.6929,0.7731,1.3907,1.6837,1.652,1.4762,1.4486,1.5552,1.3946,1.4222,1.5903,1.5022,1.4479,1.4116,1.3643,1.3401,1.3217,1.228,1.0675,0.9038,0.976,0.869,0.6861,0.0,0.0,0.0,0.0,0.0,0.0,1.8435,1.826,1.7915,1.7277,1.6602,1.6265,1.6465,1.6615,1.7665,2.0099,1.9619,1.9487,2.0225,1.9921,2.0167,2.1205,2.1368,2.1464,2.1518,2.1674,2.1272,2.0265,1.9513,1.8804,1.8146,1.7945,1.7535,1.696,1.696,1.7078,1.7282,1.7402,1.7949,1.866,1.8484,1.7895,1.6633,1.2062,1.0324,1.0196,0.9472,0.9332,0.9298,0.7762,0.662,0.5842,0.5596,0.5355,0.4848,0.3397,0.3678,0.0,0.0,0.0,0.0,0.0,0.0,0.0,0.0,-2.5118,-2.7055,-2.9646,-3.0101,-2.9882,-2.9333,-2.8493,-2.66,-2.2727,-2.2992,-2.2996,-2.0991,-1.7413,-1.65,-2.0615,-1.3068,-0.8084,-0.9472,0.123,0.4323,-0.5184,0.0903,0.5841,0.7633,1.0159,1.1293,1.0749,1.4975,1.5966,1.3182,1.7716,1.975,1.928,1.951,1.9341,1.8816,1.8555,1.8426,1.839,1.7866,1.7234,1.653,1.6223,1.6107,1.604,1.5549,1.3433,1.0776,1.2329,1.1514,0.9577,0.0,0.0,0.0,0.0,0.0,0.0,0.0,0.0,1.8362,1.7624,1.7563,1.7935,1.8818,1.9449,1.9957,2.0355,1.9613,1.9413,2.0167,1.931,1.9217,2.0292,1.9973,1.9993,2.0455,2.0484,2.0385,2.0131,1.9616,1.9253,1.9065,1.8681,1.8177,1.7603,1.7546,1.7134,1.6623,1.814,1.8857,1.8982,1.9361,1.9465,1.9075,1.6576,1.5638,1.5169,1.1792,1.1223,1.1849,1.018,0.9459,0.905,0.8086,0.6959,0.6002,0.5834,0.5167,0.4505,0.4487,-0.2113,-1.0914,-1.8863,-2.1643,-2.3433,0.0,-2.7981,-2.8079,-2.9182,-2.9079,-2.8047,-2.553,-2.4385,-2.3284,-2.1596,-2.1626,-2.0187,-1.5354,-1.382,-1.1531,-0.6998,-0.4833,-0.3113,-0.1576,0.1335,0.4388,0.7473,0.9083,1.2414,1.8147,1.7828,1.7831,1.8691,2.0014,2.0563,2.0164,2.1475,2.2111,2.2052,2.1902,2.1814,2.1727,2.1513,2.1425,2.1379,2.0623,1.9786,1.9008,1.895,1.895,1.887,1.8057,1.7453,1.6702,1.3938,1.2693,1.244,0.0,0.0,0.0,0.0,0.0,0.0,0.0,0.0,1.8502,1.8055,1.8118,1.8585,1.9595,1.9899,2.0028,2.0049,1.9179,1.936,2.1072,2.0,1.983,2.1023,2.062,2.0371,2.0357,2.0816,2.0814,2.0331,2.0489,2.0459,2.0245,1.9842,1.9686,1.9772,1.9181,1.891,1.8884,1.9707,2.0176,2.0382,2.0443,2.0339,2.0147,1.9221,1.8623,1.7954,1.5802,1.454,0.0,1.2336,1.1408,1.0645,1.0174,0.9176,0.8087,0.7658,0.6939,0.5504,0.1763,-0.5888,-1.4072,-1.9066,-2.2803,-2.5894,-2.8382,-2.8379,-2.7804,-2.768,-2.6526,-2.474,-2.2182,-1.8284,-1.5136,0.0,-1.2004,-0.9805,-0.7861,-0.4146,-0.0047,0.4122,0.7635,0.8681,0.6088,1.0282,1.2301,1.018,1.4663,1.625,1.3373,1.7514,2.0111,2.0463,2.0979,2.1469,2.1934,2.2239,2.238,2.2399,2.2574,2.2672,2.2672,2.2887,2.28,2.2468,2.1987,2.1433,2.0827,2.0687,2.0623,2.0575,2.0009,1.9802,1.9536,1.7556,1.6853,1.6863,0.0,0.0,0.0,0.0,0.0,0.0,0.0,0.0,0.0,0.0,1.8715,1.9044,2.0009,1.996,1.9806,1.9625,1.9092,1.9435,2.1078,2.0289,2.0316,2.1551,2.126,2.1081,2.1116,2.1692,2.1738,2.1227,2.1571,2.1581,2.1213,2.0816,2.0933,2.1389,2.0245,1.9776,1.9904,2.1,2.1538,2.1616,2.1303,2.1055,2.0876,2.084,2.045,1.9781,1.8765,1.7177,1.5442,1.4713,1.3861,1.2999,1.2637,1.1885,1.1031,1.0219,0.9305,0.6949,-0.0294,-0.8032,-1.4983,-1.9076,-2.3638,-2.7407,-2.841,-2.7693,-2.6275,-2.434,-2.2218,-1.9761,-1.6626,-1.2139,-0.8557,-0.751,-0.4537,-0.1869,-0.044,0.428,0.9012,1.2806,1.6581,1.7458,1.3783,1.8188,1.9013,1.354,1.8775,1.9072,1.1915,1.7486,2.0807,2.0663,2.1072,2.1569,2.2159,2.2354,2.2594,2.2834,2.3133,2.3394,2.3591,2.3921,2.3785,2.3264,2.3064,2.273,2.2324,2.2078,2.1928,2.1849,2.1499,2.1354,2.1301,2.0652,2.0128,1.9757,0.0,0.0,0.0,0.0,0.0,0.0,0.0,0.0,0.0,0.0,1.9416,1.9484,2.0301,2.0202,1.9818,1.9181,1.9581,1.9733,1.9395,1.9591,2.0203,2.1365,2.1278,2.1738,2.2898,2.294,2.2979,2.3027,2.2777,2.2358,2.1776,2.1438,2.1456,2.1705,2.0056,1.8785,1.8121,2.1644,2.282,2.2246,2.1778,2.1598,2.1554,2.1423,2.1183,2.0797,1.9519,1.8403,1.7523,1.7495,1.7348,1.6998,1.5693,1.5248,1.503,1.3941,1.2337,0.8832,-0.0587,-0.7764,-1.423,-2.1318,-2.506,-2.7117,-2.7627,-2.6118,-2.3242,-1.8468,-1.5713,-1.2614,-0.7566,-0.6428,-0.5716,-0.3955,-0.2802,0.0073,0.6386,0.905,1.2572,1.8521,1.8986,1.9605,0.0,2.1929,2.1648,2.083,2.1368,2.1204,2.0004,2.0187,2.0321,2.0312,2.1072,2.1501,2.154,2.2435,2.3299,2.414,2.4022,2.4332,2.5023,2.4847,2.4576,2.4238,2.4045,2.3757,2.3451,2.3229,2.3035,2.2829,2.2417,2.2265,2.2272,2.222,2.1147,1.9938,0.0,0.0,0.0,0.0,0.0,0.0,0.0,0.0,0.0,0.0,0.0,0.0,0.0,0.0,0.0,0.0,1.9593,1.9934,2.0336,2.0951,2.1583,2.2228,2.2428,2.2584,2.2727,2.3334,2.3288,2.25,2.3176,2.3188,2.2585,2.2383,2.2962,2.409,2.303,2.2367,2.2135,2.3334,2.3482,2.2881,2.2726,2.2521,2.2324,2.2292,2.1895,2.1413,0.0,2.0641,1.9451,1.892,1.8607,1.8385,1.7929,1.7537,1.7146,1.6621,1.1648,0.5062,-0.0608,-0.8218,-1.6051,-2.2313,-2.5717,-2.6376,-2.1934,-1.9391,-1.5873,-0.8616,-0.5319,-0.3031,-0.0706,0.0903,0.2534,0.4459,0.7036,1.0313,1.4667,1.6815,1.9017,2.2014,2.1662,0.0,0.0,0.0,0.0,2.1747,2.1795,2.1524,2.0992,2.1088,2.119,2.1222,2.0972,2.1371,2.2491,2.2289,2.2591,2.3415,2.3934,2.4592,2.5284,2.5094,2.491,2.4755,2.4591,2.4465,2.4329,2.3911,2.3676,2.3524,2.3074,2.2641,2.2404,2.3252,2.3189,2.2476,0.0,0.0,0.0,0.0,0.0,0.0,0.0,0.0,0.0,0.0,0.0,0.0,0.0,0.0,0.0,0.0,0.0,2.0167,2.0315,2.1428,2.2218,2.2572,2.3031,2.3343,2.3491,2.4115,2.4107,2.3405,2.4171,2.4347,2.3967,2.3782,2.4273,2.5287,2.4804,2.4441,2.4195,2.4186,2.3946,2.3539,2.3298,2.3069,2.2873,2.2873,2.2574,0.0,2.2703,2.2397,2.1633,2.0926,2.0221,1.9655,1.9563,1.899,1.841,1.8641,1.5015,0.9103,0.0703,-0.4174,-0.9149,-1.847,-1.947,-1.7044,-1.2851,-1.0137,-0.6469,0.0759,0.3733,0.5609,0.7564,0.8912,1.0166,1.1559,1.4293,1.7022,1.9334,2.1039,2.2464,2.3562,2.299,2.2806,0.0,0.0,0.0,2.2062,2.1975,2.1821,2.1722,2.1927,2.2051,2.2083,2.1592,2.1839,2.2917,2.2472,2.2666,2.3514,2.4365,2.4996,2.5437,2.5274,2.5166,2.5099,2.4943,2.4864,2.4836,2.4393,2.4132,2.3986,2.3671,2.3311,2.3073,2.3895,2.4376,2.4282,0.0,0.0,0.0,0.0,0.0,0.0,0.0,0.0,0.0,0.0,0.0,0.0,0.0,0.0,0.0,0.0,0.0,0.0,1.9421,2.1065,2.2206,2.2431,2.3088,2.3952,2.5044,2.5141,2.5316,2.5581,2.5656,2.5698,2.5683,2.5613,2.5582,2.5552,2.5397,2.4919,2.4267,2.4244,2.4251,2.4186,2.3522,2.3259,2.3236,2.3236,2.3212,2.3212,2.3218,2.3581,2.393,2.3365,2.2234,2.0995,2.0723,1.9854,1.9148,2.0211,2.1697,1.9542,0.3515,0.3636,0.4714,-1.0257,-0.7327,-0.0849,-0.1121,0.0923,0.4341,0.9471,1.1366,1.3213,1.6837,1.706,1.6732,1.7034,1.8619,2.0013,2.0645,2.1944,2.2992,0.0,0.0,0.0,0.0,0.0,0.0,2.2168,0.0,2.2237,2.2532,2.2748,2.287,2.287,2.2831,2.2831,2.2928,2.306,2.3589,2.4473,2.5234,2.5576,2.5517,2.5448,2.537,2.5303,2.5099,2.5022,2.4991,2.4737,2.4469,2.4247,2.4214,2.4214,2.4252,2.4266,2.4691,2.5186,0.0,0.0,0.0,0.0,0.0,0.0,0.0,0.0,0.0,0.0,0.0,0.0,0.0,0.0,0.0,0.0,0.0,0.0,2.0177,2.21,2.3195,2.299,2.3638,2.4225,2.4719,2.4848,2.5056,2.5385,2.5603,2.5602,2.5464,2.8183,2.935,2.9002,2.6651,2.5387,2.5015,2.4915,2.4804,2.4682,2.4319,2.4024,2.3771,2.3635,2.3494,2.3466,2.3712,2.402,2.4152,2.3277,2.2949,2.2889,2.2766,2.2515,2.24,2.3075,1.9552,1.4341,0.9433,0.5586,0.1814,-0.2993,-0.2328,0.0864,0.6093,0.846,1.1333,1.7613,1.9684,2.0396,2.0503,2.0289,2.0283,2.081,2.1231,0.0,2.3553,2.4062,0.0,2.4588,0.0,2.4313,2.4408,2.3903,0.0,0.0,2.3546,2.3417,2.3251,2.3438,2.3619,2.3755,2.3188,2.3448,2.4659,2.4812,2.5017,2.5293,2.5547,2.5663,2.5655,2.5587,2.5466,2.5303,2.5292,2.5282,2.5214,2.4934,2.4898,2.4956,2.4417,2.4544,2.5021,2.5012,2.5139,2.5266,0.0,0.0,0.0,0.0,0.0,0.0,0.0,0.0,0.0,0.0,0.0,0.0,0.0,0.0,0.0,0.0,0.0,0.0,0.0,2.2819,2.3581,2.3358,2.3897,2.4345,2.4674,2.4581,2.4782,2.5303,2.5457,2.5453,2.5356,2.7452,2.8398,2.8259,2.6482,2.5591,2.5386,2.5184,2.5023,0.0,0.0,2.4389,2.421,2.3999,2.3925,2.3968,2.419,2.435,2.4279,2.3321,2.2594,2.2011,2.1535,2.1544,2.1944,2.3026,2.0538,1.6608,1.2814,1.1778,1.054,0.5521,0.7474,1.1572,1.5238,1.6873,1.8733,2.2668,2.3582,2.3381,2.2479,2.2162,2.2073,0.0,0.0,0.0,2.4395,2.4894,2.5126,0.0,2.4771,0.0,2.4512,2.4135,2.3996,0.0,2.408,2.4023,2.4063,2.4227,2.4419,2.462,2.4188,2.439,2.5322,2.5445,2.5537,2.5605,2.5664,2.5703,2.5703,2.5664,2.5544,2.5383,0.0,2.539,2.5284,2.5135,2.516,2.5256,2.4846,2.4943,2.5304,2.531,2.5305,2.5286,0.0,0.0,0.0,0.0,0.0,0.0,0.0,0.0,0.0,0.0,0.0,0.0,0.0,0.0,0.0,0.0,0.0,0.0,0.0,0.0,2.3694,2.3509,2.4003,2.4422,2.4707,2.4505,2.4721,2.536,2.512,2.5101,2.5293,2.5321,2.5461,2.5703,2.5694,2.5626,2.5478,2.5258,2.5088,2.493,2.4678,2.4559,2.4528,0.0,2.4393,2.4564,2.4676,2.4675,2.4451,2.3398,2.1909,2.0352,1.9463,1.9503,2.0211,2.1815,2.2924,2.2192,1.5591,1.9435,2.3254,1.4538,1.8609,2.4534,2.3755,2.4264,2.4972,2.5175,2.4657,2.395,2.3247,2.3074,2.2907,2.2492,0.0,2.4919,2.4491,2.5285,2.5677,2.5111,2.4854,2.4657,2.4545,2.4321,2.419,2.419,2.408,2.4245,2.4727,2.4877,2.5022,2.5253,2.5293,2.5322,2.539,2.5447,2.5505,2.5559,2.5663,2.5703,2.5703,2.5703,2.5636,2.5507,0.0,0.0,2.5322,2.5312,2.5303,2.5313,2.5341,2.536,2.536,2.536,2.536,2.536,0.0,0.0,0.0,0.0,0.0,0.0,0.0,0.0,0.0,0.0,0.0,0.0,0.0,0.0,0.0,0.0,0.0,0.0,0.0,0.0,0.0,2.3509,2.4265,2.4573,2.4309,2.5053,2.5493,2.5627,2.4184,2.4114,2.5303,2.5416,2.5556,2.5693,2.5691,2.5637,2.5502,2.5455,2.5339,2.5214,2.4998,2.485,2.4746,2.4716,0.0,0.0,2.5195,2.526,2.4896,2.3244,2.2426,2.206,2.1836,2.1824,2.207,2.2989,2.3493,2.345,2.1953,2.2997,2.4129,2.2562,2.3601,2.5013,2.496,2.5229,2.5255,2.4479,2.4678,2.4512,2.3002,2.3265,2.3796,2.4042,2.4522,2.5292,2.6553,2.6841,2.6771,0.0,2.5961,2.5495,2.4802,0.0,0.0,0.0,0.0,0.0,2.4545,2.4575,2.4737,2.5034,2.5214,2.5303,2.5322,2.5322,2.5331,2.536,2.5598,2.5703,2.5703,2.5703,2.5625,2.5505,0.0,0.0,2.5459,2.5356,2.5309,2.5332,2.5538,2.5632,2.5632,2.5632,2.5632,2.5632,0.0,0.0,0.0,0.0,0.0,0.0,0.0,0.0,0.0,0.0,2.1575,0.0,0.0,0.0,0.0,0.0,0.0,0.0,0.0,0.0,0.0,2.408,2.453,2.4822,2.4878,2.5425,2.5696,2.5705,0.0,2.4832,2.5513,2.5564,2.564,2.5707,2.5707,2.5631,2.5503,2.549,2.5428,2.5274,2.5088,2.4962,2.4891,2.4832,0.0,0.0,2.5359,2.5376,2.4972,2.3481,2.259,2.2031,2.1351,2.1569,2.2272,2.3145,2.3823,2.4325,2.4329,2.4603,2.4901,2.5046,2.5156,2.5288,2.5371,2.5488,2.5406,2.4876,2.4927,2.4639,2.3358,2.3565,2.3912,2.385,2.5236,2.6329,2.6368,2.7581,2.7897,2.6453,2.6217,2.5806,0.0,0.0,0.0,0.0,0.0,0.0,2.4495,2.4682,2.4872,2.5152,2.5253,2.5303,2.5303,2.5303,2.5303,2.5293,2.5566,2.5693,2.5703,2.5703,2.5664,2.5605,2.5644,0.0,2.5597,2.5525,2.6579,2.8223,2.8366,2.7303,2.5701,2.5701,2.5701,2.5696,0.0,0.0,0.0,0.0,0.0,0.0,0.0,2.0234,2.0697,2.2547,2.262,2.2088,2.1068,2.2505,0.0,0.0,0.0,0.0,0.0,0.0,0.0,0.0,0.0,0.0,2.5524,0.0,0.0,2.5693,2.569,0.0,0.0,0.0,0.0,0.0,2.5701,2.5631,2.5503,2.549,2.5428,0.0,0.0,2.5034,2.4986,0.0,0.0,0.0,0.0,2.531,2.495,2.3684,2.2841,2.2151,2.1062,2.1209,2.1994,2.3057,2.4008,2.4741,2.4969,2.5218,2.5401,2.5476,2.5437,2.5366,2.5224,2.5351,2.5439,2.517,2.5038,2.4714,2.3895,2.3876,2.394,2.3749,2.575,2.7157,2.6558,2.8252,2.8891,0.0,2.6636,0.0,0.0,0.0,0.0,0.0,0.0,0.0,2.4445,2.478,2.503,2.5201,2.5253,2.5303,2.5303,2.5303,2.5303,2.5313,2.5517,2.5644,2.5703,2.5703,2.5703,2.5703,2.5703,0.0,0.0,2.6518,2.8421,3.0905,3.0897,2.9238,2.6816,2.6816,2.6816,2.6816,0.0,0.0,0.0,0.0,0.0,0.0,0.0,2.0231,2.0368,2.1884,2.2828,2.3228,2.2808,2.4263,0.0,0.0,0.0,0.0,0.0,0.0,0.0,0.0,0.0,0.0,0.0,0.0,0.0,2.57,2.5702,0.0,0.0,0.0,0.0,0.0,0.0,2.5631,2.5503,2.549,0.0,0.0,0.0,0.0,0.0,0.0,0.0,0.0,0.0,2.5288,2.5053,2.3614,2.3524,2.3941,2.3207,2.2461,2.2046,2.3307,2.4007,2.4431,2.4738,2.5114,2.5401,2.5418,2.5398,2.5191,2.4416,2.488,2.5258,2.4392,2.4738,2.4989,2.4351,2.4118,2.4293,2.5136,2.5825,2.7037,2.9289,2.9502,2.9458,2.9627,0.0,0.0,0.0,0.0,0.0,0.0,0.0,0.0,0.0,2.4607,2.4832,2.4847,2.5138,2.5303,2.5303,2.5302,2.5302,2.5303,2.5313,2.5453,2.5703,2.5703,2.5703,2.5703,0.0,0.0,0.0,2.9119,3.0607,3.0901,3.0899,3.0703,3.043,3.043,3.043,3.043,0.0,0.0,0.0,0.0,0.0,0.0,0.0,2.1001,2.1755,2.3195,2.3071,2.3232,2.4272,2.4622,0.0,0.0,0.0,0.0,0.0,0.0,0.0,0.0,0.0,0.0,0.0,0.0,0.0,2.564,0.0,0.0,0.0,0.0,0.0,0.0,0.0,2.5564,2.5445,2.5428,0.0,0.0,0.0,0.0,0.0,0.0,0.0,0.0,0.0,0.0,2.5157,2.4208,2.4204,2.4526,2.4062,2.3671,2.3526,2.4025,2.4386,2.4629,2.481,2.5141,2.5454,2.5463,2.5459,2.5364,2.5024,2.5231,2.5382,2.5026,2.5072,2.5075,2.4681,2.4435,2.4486,2.5044,2.6258,2.7588,2.8907,3.0116,3.0516,2.9683,2.8709,0.0,0.0,0.0,0.0,0.0,0.0,0.0,0.0,2.4837,2.4828,2.493,2.5669,2.5832,2.5303,2.5311,2.6331,2.8376,2.8567,2.8718,2.8837,2.8826,2.8828,2.8828,0.0,0.0,0.0,3.0332,3.0891,3.0891,3.0895,3.0898,3.0898,3.0898,3.0898,3.0898,0.0,0.0,0.0,0.0,0.0,0.0,2.0776,2.1325,2.2308,2.4106,2.3414,2.3215,2.4436,2.4629,2.4863,2.5376,0.0,0.0,0.0,0.0,0.0,0.0,0.0,0.0,0.0,0.0,0.0,2.5601,2.6376,0.0,0.0,0.0,0.0,0.0,0.0,0.0,0.0,0.0,0.0,0.0,0.0,0.0,0.0,0.0,0.0,0.0,0.0,0.0,0.0,0.0,0.0,2.491,2.4595,2.4572,2.4636,2.4526,2.4639,2.4804,2.4865,2.5178,2.5496,2.549,2.5506,2.5466,2.5207,2.534,2.5457,2.5171,2.5217,2.5182,2.4874,2.4685,2.476,2.5302,2.6538,2.7812,2.8864,3.0336,3.0995,0.0,0.0,0.0,0.0,0.0,0.0,0.0,0.0,0.0,0.0,2.5604,2.5433,2.5291,2.588,2.6178,2.6083,2.557,2.7023,3.0402,3.0637,3.0812,3.0902,3.0895,3.0898,3.0898,0.0,0.0,0.0,3.0898,3.0898,3.0898,3.0898,3.0898,3.0898,3.0898,3.0898,3.0898,0.0,0.0,0.0,0.0,0.0,0.0,0.0,2.088,2.1389,2.4062,2.3936,2.3385,2.2889,2.4424,2.5536,2.5683,0.0,0.0,0.0,0.0,0.0,0.0,0.0,0.0,0.0,0.0,2.5592,2.5601,2.5543,2.5504,2.5512,0.0,0.0,0.0,0.0,0.0,0.0,0.0,0.0,0.0,0.0,0.0,2.5582,0.0,0.0,0.0,0.0,0.0,0.0,0.0,0.0,0.0,0.0,2.4979,2.4937,2.4588,2.4639,2.4814,2.4809,2.5138,2.55,2.5506,2.5542,2.537,2.4514,2.4976,2.5343,2.442,2.49,2.5346,2.4893,2.4804,2.5198,2.6401,2.6612,2.7457,2.9861,3.021,3.0604,0.0,0.0,0.0,0.0,0.0,0.0,0.0,0.0,0.0,0.0,2.6951,2.6811,2.6004,2.5538,2.614,2.7865,2.6165,2.7028,3.0398,3.0402,3.0583,3.0898,3.0898,3.0898,0.0,0.0,0.0,0.0,3.0898,3.0898,3.0898,3.0898,3.0898,3.0898,3.0898,3.0898,3.0898,0.0,0.0,0.0,0.0,0.0,0.0,0.0,2.1534,2.2664,2.4192,2.4043,2.4025,2.4573,2.4705,2.4927,2.5395,0.0,0.0,0.0,0.0,0.0,0.0,0.0,0.0,0.0,0.0,2.5507,2.5466,2.6033,2.6023,2.5447,2.6033,2.6,0.0,0.0,0.0,0.0,0.0,0.0,0.0,0.0,2.5609,2.5665,0.0,0.0,0.0,0.0,0.0,0.0,0.0,0.0,0.0,0.0,0.0,0.0,2.4872,2.4885,2.4943,2.5,2.5261,2.5505,2.55,2.5556,2.5531,2.5243,2.5409,2.5498,2.5164,2.5313,2.5365,2.4893,2.5261,2.5839,2.6493,2.7053,2.8264,3.0668,3.1494,0.0,0.0,0.0,0.0,0.0,0.0,0.0,0.0,0.0,0.0,0.0,2.7157,2.6928,2.683,2.7351,2.7717,2.7892,2.8483,2.9321,3.0398,3.0402,3.046,3.0568,3.0803,0.0,0.0,0.0,0.0,0.0,3.0654,3.0695,3.0905,3.0911,3.0767,3.0599,3.0817,3.084,3.0781,0.0,0.0,0.0,0.0,0.0,0.0,0.0,2.1486,2.292,2.4066,2.4324,2.4691,2.548,2.5145,2.5018,2.5418,0.0,0.0,0.0,0.0,0.0,0.0,0.0,0.0,0.0,2.5479,2.5441,2.5409,2.5918,2.5899,2.536,2.5918,2.588,2.537,2.537,0.0,0.0,0.0,0.0,0.0,2.5616,2.5625,2.5652,0.0,0.0,0.0,0.0,0.0,0.0,0.0,0.0,0.0,0.0,0.0,0.0,0.0,2.5046,2.5018,2.5038,2.5283,2.55,2.5506,2.5563,2.564,2.5634,2.5647,2.5617,2.5522,2.5495,2.5365,2.4893,2.5454,2.6122,2.653,2.7382,2.8731,3.0844,3.1928,0.0,0.0,0.0,0.0,0.0,0.0,0.0,0.0,0.0,0.0,0.0,0.0,2.8048,2.8241,2.8357,2.8245,2.789,2.9563,3.0402,3.0398,3.0402,3.0398,3.041,3.0617,0.0,0.0,0.0,0.0,0.0,3.0792,3.0571,3.0702,3.0713,3.0579,3.0432,3.0623,3.068,3.0667,0.0,0.0,0.0,0.0,0.0,0.0,0.0,0.0,0.0,0.0,2.4689,2.5335,2.5662,2.5643,2.5638,0.0,0.0,0.0,0.0,0.0,0.0,0.0,0.0,0.0,0.0,2.5428,2.539,2.539,2.5322,2.5284,2.5274,2.5274,2.5274,2.5274,2.5274,0.0,0.0,0.0,0.0,0.0,2.5638,2.5591,0.0,0.0,0.0,0.0,0.0,0.0,0.0,0.0,0.0,0.0,0.0,0.0,0.0,0.0,0.0,0.0,0.0,2.5258,2.5484,2.5496,2.5601,2.5684,2.5703,2.5703,0.0,2.5535,2.548,2.5382,2.5031,2.5571,2.6236,2.6788,2.7755,2.9053,3.0715,3.1862,0.0,0.0,0.0,0.0,0.0,0.0,0.0,0.0,0.0,0.0,0.0,0.0,2.9839,2.9969,2.8713,2.8045,2.8082,2.9621,3.0402,3.0386,3.0402,3.0398,3.0398,3.0412,0.0,0.0,0.0,0.0,0.0,3.1188,3.0516,3.0398,3.0398,3.0398,3.0398,3.0398,3.0492,3.0587,0.0,0.0,0.0,0.0,0.0,0.0,0.0,0.0,0.0,0.0,0.0,2.5386,2.5662,2.5698,0.0,0.0,0.0,0.0,0.0,0.0,0.0,0.0,0.0,0.0,0.0,2.5322,2.5322,2.5322,2.5303,2.5214,2.5077,2.5077,2.5077,2.5077,2.5077,2.5216,0.0,0.0,0.0,0.0,2.561,2.5485,0.0,0.0,0.0,0.0,2.5095,2.5063,0.0,0.0,0.0,0.0,0.0,0.0,0.0,0.0,2.5034,2.5034,2.5192,0.0,2.5446,2.5496,2.5562,2.5644,0.0,2.5703,2.5661,2.5535,2.538,2.5546,2.6472,2.6647,2.7269,2.9062,2.9787,3.0876,3.3068,0.0,0.0,0.0,0.0,0.0,0.0,0.0,0.0,0.0,0.0,0.0,0.0,0.0,3.0208,2.9782,2.9452,2.9453,2.9802,3.0186,3.041,3.039,3.041,3.0398,3.0398,3.0398,0.0,0.0,0.0,0.0,3.0968,3.0601,3.0436,3.0398,3.0398,3.0398,3.0398,3.0525,3.0552,3.0528,0.0,0.0,0.0,0.0,0.0,0.0,0.0,0.0,0.0,0.0,0.0,0.0,0.0,0.0,0.0,0.0,0.0,0.0,0.0,0.0,0.0,0.0,0.0,0.0,2.5303,2.5322,2.5341,2.5341,2.5341,2.5231,2.505,2.4892,2.4847,2.4917,2.5046,2.5232,0.0,0.0,0.0,2.5582,2.5524,0.0,0.0,0.0,0.0,0.0,2.5063,2.4981,0.0,2.4809,2.4818,2.4864,0.0,0.0,0.0,0.0,2.501,2.5034,2.5253,2.5341,2.5418,2.5488,2.5554,2.5625,2.5684,2.5703,2.5661,2.5535,2.5341,2.5502,2.6475,2.6916,2.761,2.9095,3.0373,3.1822,0.0,0.0,0.0,0.0,0.0,0.0,0.0,0.0,0.0,0.0,0.0,0.0,0.0,0.0,3.0659,3.053,3.02,3.0139,3.0398,3.0398,3.0398,3.0398,3.0398,3.0398,3.0398,3.0386,0.0,0.0,0.0,0.0,3.0968,3.0559,3.0386,3.0398,3.0398,3.0398,3.0398,3.0487,3.0487,3.0525,0.0,0.0,0.0,0.0,0.0,0.0,0.0,0.0,0.0,0.0,0.0,0.0,0.0,0.0,0.0,0.0,0.0,0.0,0.0,0.0,0.0,0.0,0.0,2.5303,2.5322,2.537,2.5409,2.5427,2.5408,2.528,2.5057,2.4705,2.4614,2.4737,2.5061,2.5306,0.0,0.0,2.5582,2.5563,2.5447,0.0,0.0,0.0,0.0,0.0,0.0,0.0,0.0,2.4591,2.4693,2.4885,2.4588,0.0,0.0,0.0,0.0,0.0,2.5253,2.5437,2.5582,2.5505,2.5526,2.5582,2.5642,2.5662,2.5633,2.5508,2.529,2.5416,2.6279,2.6886,2.7567,2.864,3.0709,0.0,0.0,0.0,0.0,0.0,0.0,0.0,0.0,0.0,0.0,0.0,0.0,0.0,0.0,0.0,0.0,3.1508,3.0791,3.0398,3.0398,3.0398,3.0398,3.0398,3.0398,3.0475,3.066,3.0482,3.1059,0.0,0.0,0.0,3.1641,3.0756,3.0398,3.0398,3.0398,3.0398,3.0398,3.0398,3.0398,3.0513,0.0,0.0,0.0,0.0,0.0,0.0,0.0,0.0,0.0,0.0,0.0,0.0,0.0,0.0,0.0,0.0,0.0,0.0,0.0,0.0,0.0,0.0,2.5303,2.5322,2.539,2.539,2.5432,2.5477,2.5428,2.5206,2.4835,2.4497,2.4356,2.4407,2.4958,2.5279,2.5429,2.555,2.5524,2.5428,2.5409,0.0,0.0,0.0,0.0,0.0,0.0,0.0,0.0,2.4461,2.4526,2.4575,2.4528,0.0,0.0,0.0,0.0,0.0,2.5253,2.5851,2.6255,2.5582,2.5422,2.5454,2.5511,2.5539,2.5503,2.5432,2.512,2.5604,2.8012,2.7327,2.7419,3.059,0.0,0.0,0.0,0.0,0.0,0.0,0.0,0.0,0.0,0.0,0.0,0.0,0.0,0.0,0.0,0.0,0.0,3.1596,3.0816,3.0405,3.0398,3.0398,3.0398,3.0398,3.0398,3.091,3.1807,3.084,3.1263,0.0,0.0,3.0879,3.1641,3.0756,3.0398,3.0398,3.0398,3.0398,3.0398,3.0398,3.0398,3.0513,0.0,0.0,0.0,0.0,0.0,0.0,0.0,0.0,0.0,0.0,0.0,0.0,0.0,0.0,0.0,0.0,0.0,0.0,0.0,0.0,0.0,2.5341,2.5352,2.535,2.5362,2.5424,2.5479,2.5493,2.5435,2.5213,2.4855,2.4437,2.4173,2.4061,2.4733,2.5194,2.5451,2.5518,2.5505,2.5447,0.0,0.0,0.0,0.0,0.0,0.0,0.0,0.0,0.0,0.0,2.4163,2.3933,2.3841,0.0,0.0,0.0,0.0,0.0,2.463,2.5255,2.5928,2.6024,2.6429,2.6829,2.6892,2.6541,2.6152,2.5975,2.554,2.5685,2.731,2.7766,2.9096,3.2542,0.0,0.0,0.0,0.0,0.0,0.0,0.0,0.0,0.0,0.0,0.0,0.0,0.0,0.0,0.0,0.0,0.0,0.0,3.1424,3.0393,3.0398,3.0398,3.0852,3.1749,3.1749,3.2038,3.2506,3.1987,3.1929,3.2218,0.0,3.1064,3.0968,3.0571,3.0398,3.0398,3.0398,3.0698,3.116,3.1602,3.2045,3.2506,0.0,0.0,0.0,0.0,0.0,0.0,0.0,0.0,0.0,0.0,0.0,0.0,0.0,0.0,0.0,0.0,0.0,0.0,0.0,0.0,2.539,2.5376,2.5364,2.5338,2.5286,2.5351,2.5409,2.5422,2.5383,2.5162,2.4783,2.4632,2.4321,2.3953,2.4804,2.5301,2.5467,2.5507,2.5509,2.5466,0.0,0.0,0.0,0.0,0.0,0.0,0.0,0.0,0.0,0.0,0.0,0.0,0.0,0.0,0.0,2.2631,2.3294,2.4082,2.4034,2.4763,2.5674,2.6293,2.6924,2.7535,2.8189,2.7629,2.6983,2.7058,2.6488,2.615,2.6695,2.8233,0.0,3.2846,0.0,0.0,0.0,0.0,0.0,0.0,0.0,0.0,0.0,0.0,0.0,0.0,0.0,0.0,0.0,0.0,0.0,0.0,3.2352,3.0809,3.0398,3.0398,3.1044,3.2319,3.2319,3.2519,3.2891,3.2699,3.2506,3.2256,3.1872,3.1314,3.0698,3.0475,3.0398,3.0398,3.0398,3.0929,3.1775,3.2391,3.316,3.3891,0.0,0.0,0.0,0.0,0.0,0.0,0.0,0.0,0.0,0.0,0.0,0.0,0.0,0.0,0.0,0.0,0.0,0.0,0.0,0.0,2.5374,2.5313,2.5251,2.52,2.5204,2.5157,2.5156,2.5232,2.5218,2.4949,2.4444,2.524,2.5112,2.4309,2.5567,2.5812,2.5332,2.5507,2.5511,2.5409,2.5409,0.0,0.0,0.0,0.0,0.0,0.0,0.0,0.0,0.0,0.0,0.0,0.0,0.0,2.2793,2.2784,2.3408,2.4063,2.3872,2.4991,2.6206,2.6062,2.5767,2.612,2.8486,2.8224,2.7761,2.8868,2.8157,2.7423,2.7646,2.8681,0.0,0.0,0.0,0.0,0.0,0.0,0.0,0.0,0.0,0.0,0.0,0.0,0.0,0.0,0.0,0.0,0.0,0.0,0.0,0.0,0.0,3.1975,3.0432,3.0398,3.0467,3.0583,3.0583,3.1391,3.2872,3.2122,3.2602,3.393,3.2372,3.166,3.1545,3.0737,3.0398,3.0398,3.0398,3.0929,3.1718,3.1775,3.2295,3.2987,0.0,0.0,0.0,0.0,0.0,0.0,0.0,0.0,0.0,0.0,0.0,0.0,0.0,0.0,0.0,0.0,0.0,0.0,0.0,0.0,2.5495,2.5432,2.5286,2.5111,2.4946,2.4929,2.4739,2.4396,2.4397,2.4652,2.5156,2.5531,2.5464,2.5089,2.585,2.5879,2.5371,2.5526,2.5546,2.5457,2.5421,2.5284,0.0,0.0,0.0,0.0,0.0,0.0,0.0,0.0,2.3293,2.273,2.297,2.222,2.135,2.1831,2.2601,2.3246,2.3048,2.4612,2.6262,2.6057,2.5873,2.6393,2.8897,2.8558,2.783,2.8371,2.8334,2.8315,2.8655,0.0,0.0,0.0,0.0,0.0,0.0,0.0,0.0,0.0,0.0,0.0,0.0,0.0,0.0,0.0,0.0,0.0,0.0,0.0,0.0,0.0,0.0,3.3192,3.0426,3.0405,3.0929,3.1948,3.1621,3.2237,3.3699,3.3391,3.3603,3.416,3.3526,3.2949,3.2372,3.1545,3.1218,3.1256,3.1756,3.216,3.2583,3.366,3.4257,3.4526,0.0,0.0,0.0,0.0,0.0,0.0,0.0,0.0,0.0,0.0,0.0,0.0,0.0,0.0,0.0,0.0,0.0,0.0,0.0,2.5576,2.5532,2.5468,2.5207,2.4994,2.4786,2.4741,2.4535,2.4189,2.4292,2.4718,2.5501,2.6019,2.5949,2.5408,2.628,2.6207,2.5445,2.5564,2.5582,2.5524,2.5459,2.5272,0.0,0.0,0.0,0.0,0.0,0.0,0.0,0.0,2.3277,2.2623,2.2688,2.1771,2.0792,2.135,2.2258,2.3092,2.3168,2.4617,2.6163,2.6317,2.6154,2.6581,2.8936,2.8577,2.7882,2.8502,2.8237,2.7921,2.8024,2.856,0.0,0.0,0.0,0.0,0.0,0.0,0.0,0.0,0.0,0.0,0.0,0.0,0.0,0.0,0.0,0.0,0.0,0.0,0.0,0.0,0.0,3.4372,3.2039,3.2006,3.2403,3.3192,3.2634,3.3,3.4199,3.4199,3.4353,3.4603,3.4314,3.3853,3.3237,3.216,3.1698,3.1814,3.2891,3.3314,3.3449,3.4661,3.5257,3.5468,0.0,0.0,0.0,0.0,0.0,0.0,0.0,0.0,0.0,0.0,0.0,0.0,0.0,0.0,0.0,0.0,0.0,0.0,2.5605,2.5547,2.5469,2.5391,2.5022,2.4801,2.4804,2.4626,2.461,2.4804,2.5124,2.5265,2.5245,2.6765,2.6637,2.519,2.6927,2.6871,2.5516,2.5632,2.5669,2.5592,2.5525,2.5252,2.4865,0.0,0.0,0.0,0.0,0.0,0.0,0.0,2.3236,2.3215,2.1538,2.1249,2.1515,2.1515,2.2555,2.3853,2.4507,2.5171,2.593,2.6826,2.6476,2.643,2.851,2.8216,2.7967,2.9632,2.7992,2.6077,2.5528,2.6578,0.0,0.0,0.0,0.0,0.0,0.0,0.0,0.0,0.0,0.0,0.0,0.0,0.0,0.0,0.0,0.0,0.0,0.0,0.0,0.0,0.0,0.0,3.5509,3.5489,3.4918,3.3801,3.3211,3.3353,3.418,3.4199,3.4661,3.5449,3.4584,3.4199,3.4083,3.241,3.1718,3.1872,3.3545,3.4199,3.4199,3.4199,3.4757,3.5391,0.0,0.0,0.0,0.0,0.0,0.0,0.0,0.0,0.0,0.0,0.0,0.0,0.0,0.0,0.0,0.0,0.0,0.0,2.5664,2.5609,2.5543,2.5466,2.5195,2.4991,2.4937,2.5517,2.5594,2.5083,2.4704,2.504,2.6053,2.646,2.6403,2.598,2.654,2.6282,2.5444,2.5516,2.5518,2.5441,2.5274,2.5057,2.4789,0.0,0.0,0.0,0.0,0.0,0.0,0.0,0.0,0.0,2.2765,2.2722,2.2729,2.2216,2.3183,2.4237,2.35,2.4303,2.5353,2.5359,2.523,2.5351,2.632,2.67,2.6974,2.7391,2.5831,2.4602,2.535,0.0,0.0,0.0,0.0,0.0,0.0,0.0,0.0,0.0,0.0,0.0,0.0,0.0,0.0,0.0,0.0,0.0,0.0,0.0,0.0,0.0,0.0,3.5509,3.5501,3.47,3.4533,3.4988,3.418,3.3622,3.3314,3.391,3.4334,3.4603,3.4968,3.5122,3.5026,3.391,3.3103,3.2641,3.3757,3.4199,3.4257,3.4891,3.5276,3.5468,0.0,0.0,0.0,0.0,0.0,0.0,0.0,0.0,0.0,0.0,2.4995,2.4953,0.0,0.0,0.0,0.0,0.0,0.0,0.0,0.0,2.5528,2.5466,2.5191,2.5203,2.5507,2.6123,2.6231,2.5838,2.5425,2.5701,2.6593,2.6519,2.632,2.6027,2.6035,2.565,2.4992,2.4929,2.4878,2.4841,2.4949,2.4873,2.4685,0.0,0.0,0.0,0.0,0.0,0.0,0.0,0.0,0.0,2.3361,2.3337,2.3413,2.3291,2.3795,2.4371,2.4308,2.4671,2.512,2.5439,2.5338,2.5161,2.5125,2.5362,2.5617,2.5524,2.4406,2.3733,2.488,2.5534,0.0,0.0,0.0,0.0,0.0,0.0,0.0,0.0,0.0,0.0,0.0,0.0,0.0,0.0,0.0,0.0,0.0,0.0,0.0,0.0,3.5501,3.5515,3.5501,3.4828,3.4828,3.5474,3.4968,3.4257,3.3449,3.4314,3.4718,3.4757,3.5276,3.5315,3.4968,3.4795,3.4199,3.3506,3.4372,3.4718,3.4776,3.5315,3.5493,3.5493,0.0,0.0,0.0,0.0,0.0,0.0,0.0,0.0,0.0,0.0,2.5245,2.5337,0.0,0.0,0.0,0.0,0.0,0.0,0.0,0.0,2.5467,2.5399,2.516,2.5385,2.6174,2.6483,2.6691,2.6797,2.6802,2.6797,2.6771,2.6706,2.6244,2.5464,2.5402,2.4957,2.4229,2.4056,2.3969,2.4011,2.4548,2.4685,2.456,2.4154,0.0,0.0,0.0,0.0,0.0,0.0,0.0,0.0,2.3461,2.3403,2.3798,2.4426,2.4317,2.4358,2.602,2.5578,2.4983,2.6349,2.6118,2.5433,2.4672,2.4295,2.4111,2.3973,0.0,2.3364,2.4144,0.0,0.0,0.0,0.0,0.0,0.0,0.0,0.0,0.0,0.0,0.0,0.0,0.0,0.0,0.0,0.0,0.0,0.0,0.0,0.0,0.0,3.5501,3.5501,3.5509,3.5501,3.5493,0.0,3.5493,3.5084,3.4353,3.5141,3.5493,3.5493,3.5493,3.5045,3.4372,3.518,3.5026,3.4391,3.5199,3.5493,3.5493,3.5493,3.5493,3.5493,0.0,0.0,0.0,0.0,0.0,0.0,0.0,0.0,0.0,0.0,0.0,0.0,0.0,0.0,0.0,0.0,0.0,0.0,0.0,0.0,2.5427,2.5409,2.5283,2.5258,2.5278,2.6852,2.7354,2.6728,2.6767,2.6467,2.579,2.5738,2.5271,2.4508,2.4483,2.3956,2.3091,2.3622,2.374,2.3658,2.431,2.4551,2.4483,2.4247,2.4171,0.0,0.0,0.0,0.0,0.0,0.0,0.0,2.329,2.3953,2.4838,2.4052,2.4257,2.468,2.4728,2.413,2.3675,2.4639,2.4859,2.4759,2.4472,2.3982,2.3305,2.2439,2.284,2.3397,0.0,0.0,0.0,0.0,0.0,0.0,0.0,0.0,0.0,0.0,0.0,0.0,0.0,0.0,0.0,0.0,0.0,0.0,0.0,0.0,0.0,3.5488,3.5507,3.5507,3.5488,3.5507,3.5493,0.0,3.5493,3.5411,3.5238,3.5411,3.5493,3.5493,3.5493,3.5391,3.5238,3.543,3.5391,3.5238,3.543,3.5493,3.5493,3.5493,3.5493,3.5493,0.0,0.0,0.0,0.0,0.0,0.0,0.0,0.0,0.0,0.0,0.0,0.0,0.0,0.0,0.0,0.0,0.0,0.0,0.0,0.0,0.0,2.5341,2.5233,2.5291,2.5621,2.6675,2.6956,2.6409,2.6447,2.6304,2.5976,2.5525,2.5089,2.4642,2.391,2.3458,2.3267,2.3101,2.3162,2.3424,2.4092,2.4357,2.4339,2.4247,2.419,2.419,2.419,0.0,0.0,0.0,0.0,0.0,0.0,0.0,2.4608,2.4721,2.4593,2.4489,2.4886,2.4282,2.3643,2.3887,2.4038,2.416,2.4359,2.4311,2.4013,2.3087,2.3301,0.0,0.0,0.0,0.0,0.0,0.0,0.0,0.0,0.0,0.0,0.0,0.0,0.0,0.0,0.0,0.0,0.0,0.0,0.0,0.0,3.5503,3.5113,3.4274,3.5067,3.5315,3.4872,3.5295,3.5493,3.5493,3.5493,3.5493,3.5493,3.5493,3.5493,3.5493,3.5493,3.5493,3.5493,3.5493,3.5493,3.5493,3.5493,3.5493,3.5493,3.5493,3.5493,3.5493,0.0,0.0,0.0,0.0,0.0,0.0,0.0,0.0,0.0,0.0,0.0,0.0,0.0,0.0,0.0,0.0,0.0,0.0,0.0,0.0,0.0,2.5184,2.5053,2.5292,2.5969,2.6165,2.6105,2.5792,2.5855,2.5933,2.605,2.5423,2.5079,2.4908,2.3592,2.3233,2.3575,2.2725,2.269,2.3225,2.3934,2.419,2.419,2.419,2.419,2.419,2.419,2.419,2.419,2.419,0.0,0.0,0.0,0.0,2.3977,2.547,2.4961,2.4179,2.5478,2.5001,2.4044,2.3701,2.3681,2.3837,2.4307,2.491,2.5126,2.4454,0.0,0.0,0.0,0.0,0.0,0.0,0.0,0.0,0.0,0.0,0.0,0.0,0.0,0.0,0.0,0.0,0.0,0.0,0.0,0.0,3.5165,3.5211,3.4639,3.3385,3.4165,3.457,3.443,3.5141,3.5493,3.5493,3.5493,3.5493,3.5493,3.5493,3.5493,3.5493,3.5493,3.5493,3.5493,3.5493,3.5493,3.5493,3.5493,3.5493,3.5493,3.5493,3.5493,3.5493,0.0,0.0,0.0,0.0,0.0,0.0,0.0,0.0,0.0,0.0,2.2889,2.3485,0.0,0.0,0.0,0.0,0.0,0.0,2.3157,0.0,0.0,2.4855,2.4828,2.4798,2.4743,2.5321,2.5284,2.454,2.4834,2.4734,2.434,2.47,2.4537,2.3973,2.3588,2.3075,2.2539,2.2914,2.3041,2.3107,2.3897,2.419,2.419,2.419,2.419,2.419,2.419,2.419,2.419,2.419,2.419,0.0,0.0,0.0,2.3934,2.5194,2.4769,2.4196,2.5595,2.5179,2.424,2.3736,2.3948,2.4307,2.4389,2.5182,2.5675,0.0,0.0,0.0,0.0,0.0,0.0,0.0,0.0,0.0,0.0,0.0,0.0,0.0,0.0,0.0,0.0,0.0,0.0,0.0,0.0,0.0,3.4007,3.4015,3.437,3.5139,3.2505,3.2461,3.5315,3.5449,3.5493,3.5493,3.5493,3.5493,3.5493,3.5493,3.5493,3.5493,3.5493,3.5493,3.5493,3.5493,3.5493,3.5493,3.5493,3.5493,3.5493,3.5493,3.5493,3.5493,0.0,0.0,0.0,0.0,0.0,0.0,0.0,0.0,0.0,0.0,0.0,2.2889,0.0,0.0,0.0,2.2294,2.1804,2.1933,2.2886,2.4159,2.4891,2.4917,2.4545,2.4315,2.421,2.432,2.4051,2.3336,2.3506,2.3454,2.3231,2.364,2.4038,2.4346,2.3885,2.3682,2.3695,2.3468,2.3477,2.3694,2.4061,2.419,2.419,2.419,2.419,2.419,2.419,0.0,2.3917,2.3917,2.3795,2.3649,2.3649,0.0,0.0,0.0,2.4752,2.4418,2.5307,2.4989,2.4348,2.4116,2.4241,2.4552,2.5144,2.5652,2.5986,0.0,0.0,0.0,0.0,0.0,0.0,0.0,0.0,0.0,0.0,0.0,0.0,0.0,0.0,0.0,0.0,0.0,0.0,0.0,0.0,3.4061,3.4727,3.475,3.4102,3.2688,3.3048,3.35,3.4038,3.5012,3.5493,3.5493,3.5493,3.5493,3.5493,3.5493,3.5493,3.5493,3.5493,3.5493,3.5493,3.5493,3.5493,3.5493,3.5493,3.5493,3.5493,3.5493,3.5795,3.6122,0.0,0.0,0.0,0.0,0.0,0.0,0.0,0.0,0.0,0.0,0.0,0.0,0.0,0.0,0.0,0.0,2.1101,2.1249,2.2729,2.4069,2.478,2.4747,2.4207,2.389,2.3792,2.3466,2.3088,2.2634,2.2452,2.2435,2.2634,2.2768,2.3473,2.4579,2.411,2.4219,2.4678,2.3982,2.3886,2.419,2.419,2.419,2.419,2.419,2.4151,2.4094,2.417,0.0,0.0,0.0,2.3477,2.3189,2.3189,2.2972,0.0,0.0,0.0,2.4908,2.5521,2.5416,2.5044,2.4939,2.4979,2.525,2.5848,0.0,0.0,0.0,0.0,0.0,0.0,0.0,0.0,0.0,0.0,0.0,0.0,0.0,0.0,0.0,0.0,0.0,0.0,0.0,0.0,0.0,0.0,3.4446,3.5454,3.5494,3.4324,3.1775,3.4169,3.4655,3.291,3.4628,3.5507,3.5493,3.5493,3.5493,3.5493,3.5493,3.5493,3.5493,3.5493,3.5493,3.5493,3.5493,3.5493,3.5493,3.5493,3.5493,3.5493,3.5493,3.6007,3.6622,0.0,0.0,0.0,0.0,0.0,0.0,0.0,0.0,0.0,0.0,0.0,0.0,2.3321,2.3426,2.3214,2.2592,2.1748,2.1634,2.2562,2.3996,2.4582,2.4082,2.3826,0.0,2.3259,2.2905,2.2729,2.2678,2.1989,2.2017,2.2695,2.2317,2.2832,2.4063,2.4136,2.4302,2.4512,2.4266,2.4172,2.419,2.419,2.419,2.419,2.419,0.0,0.0,0.0,0.0,0.0,0.0,0.0,0.0,0.0,2.2972,2.2868,0.0,0.0,0.0,2.673,2.6977,2.6847,2.631,2.66,2.678,0.0,0.0,0.0,0.0,0.0,0.0,0.0,0.0,0.0,0.0,0.0,0.0,0.0,0.0,0.0,0.0,0.0,0.0,0.0,0.0,0.0,0.0,0.0,3.4902,3.5471,3.5487,3.5424,3.5229,3.5405,3.4655,3.291,3.4635,3.5495,3.5493,3.5493,3.5493,3.5493,3.5493,3.5493,3.5493,3.5493,3.5493,3.5493,3.5493,3.5493,3.5493,3.5493,3.5493,3.5493,3.5493,3.6007,3.6699,0.0,0.0,0.0,0.0,0.0,0.0,0.0,0.0,0.0,0.0,0.0,0.0,0.0,2.337,2.3116,2.2167,2.1995,2.2284,2.3118,2.3867,2.4316,2.4318,2.3516,2.3093,2.3189,2.2695,2.2181,2.1622,2.1595,2.1595,2.1622,2.1955,2.247,2.3188,2.3808,2.4229,2.4495,2.4409,2.4192,2.3876,0.0,0.0,0.0,0.0,0.0,0.0,0.0,0.0,0.0,0.0,0.0,0.0,0.0,0.0,0.0,2.4624,2.562,2.632,2.6369,2.6392,2.6471,2.6744,2.659,2.6531,2.7035,2.6927,0.0,0.0,0.0,0.0,0.0,0.0,0.0,0.0,0.0,0.0,0.0,0.0,0.0,0.0,0.0,0.0,0.0,0.0,0.0,0.0,0.0,0.0,3.4958,3.5314,3.5499,3.5493,3.5495,3.4147,3.1333,3.409,3.5495,3.5493,3.5493,3.5493,3.5493,3.5493,3.5493,3.5493,3.5493,3.5493,3.5493,3.5493,3.5493,3.5493,3.5493,3.5493,3.5493,3.5493,3.6372,3.745,0.0,0.0,0.0,0.0,0.0,0.0,0.0,0.0,0.0,0.0,0.0,0.0,0.0,0.0,2.3009,2.2021,2.2197,2.257,2.3031,2.3548,2.3911,2.4061,2.3293,2.2923,2.3021,2.2643,2.2113,2.1432,2.1538,2.1538,2.1446,2.1786,2.2224,2.2721,2.3302,2.3751,2.408,2.4174,0.0,2.3544,0.0,0.0,2.3692,0.0,0.0,0.0,0.0,0.0,0.0,0.0,0.0,0.0,0.0,0.0,0.0,0.0,0.0,2.632,2.6265,2.641,2.6709,2.7208,2.7158,2.715,2.7687,0.0,0.0,0.0,0.0,0.0,0.0,0.0,0.0,0.0,0.0,0.0,0.0,0.0,0.0,0.0,0.0,0.0,0.0,0.0,0.0,0.0,0.0,0.0,3.4376,3.5096,3.5235,3.4653,3.4366,3.3359,3.1563,3.359,3.4924,3.5493,3.5493,3.5493,3.5493,3.5493,3.5493,3.5493,3.5493,3.5493,3.5493,3.5493,3.5493,3.5493,3.5493,3.5493,3.5532,3.5815,3.6796,3.7969,0.0,0.0,0.0,0.0,0.0,0.0,0.0,0.0,0.0,0.0,0.0,0.0,0.0,0.0,0.0,2.2267,2.2387,2.2407,2.2237,2.2998,2.34,2.3212,2.3189,2.3021,2.2721,2.2695,2.2546,2.2282,2.184,2.1853,2.2282,2.1823,2.1989,2.2695,2.2695,2.2873,2.3206,0.0,2.35,2.3212,0.0,2.3671,2.3714,0.0,0.0,0.0,2.3544,2.3074,0.0,0.0,0.0,0.0,0.0,0.0,0.0,0.0,0.0,0.0,0.0,0.0,0.0,2.7772,2.8383,2.8755,2.8027,0.0,0.0,0.0,0.0,0.0,0.0,0.0,0.0,0.0,0.0,0.0,0.0,0.0,0.0,0.0,0.0,0.0,0.0,0.0,0.0,0.0,0.0,3.4102,3.3817,3.4888,3.4706,3.2968,3.2148,3.2391,3.3743,3.3179,3.3776,3.5507,3.5507,3.5493,3.5493,3.5493,3.5493,3.5493,3.5493,3.5493,3.5493,3.5493,3.5493,3.5493,3.5493,3.5512,3.5641,3.6411,3.7276,3.8161,0.0,0.0,0.0,0.0,0.0,0.0,0.0,0.0,0.0,0.0,0.0,0.0,2.2481,2.2188,2.2223,2.2868,2.2438,2.2371,2.2873,2.2917,2.3106,2.3544,2.29,2.2695,2.3045,2.2616,2.2215,2.1794,2.2003,2.2003,2.1794,2.2003,2.222,2.2426,2.2625,2.2652,2.2571,2.3111,0.0,2.2848,2.2947,2.3117,0.0,0.0,0.0,0.0,0.0,2.266,2.2573,0.0,2.266,2.3012,0.0,0.0,0.0,0.0,0.0,0.0,2.6488,0.0,0.0,0.0,0.0,0.0,2.8586,2.8653,0.0,0.0,0.0,0.0,0.0,0.0,0.0,0.0,0.0,0.0,0.0,0.0,0.0,0.0,0.0,0.0,0.0,0.0,0.0,0.0,3.4751,3.4497,3.3833,3.4868,3.471,3.2966,3.2673,3.2571,3.2583,3.2801,3.3769,3.5495,3.5488,3.5493,3.5493,3.5493,3.5493,3.5493,3.5493,3.5493,3.5493,3.5493,3.5493,3.5493,3.5493,3.5872,3.6392,3.6622,3.7642,3.8969,0.0,0.0,0.0,0.0,0.0,0.0,0.0,0.0,0.0,0.0,0.0,0.0,2.2218,0.0,2.189,2.2746,2.2399,2.233,2.2789,2.2643,2.2755,2.3259,2.2755,2.2643,2.2972,2.2643,2.2451,2.2332,2.2315,2.2483,2.2795,2.2449,2.2462,2.275,2.26,2.2453,2.2327,0.0,0.0,0.0,2.2643,0.0,0.0,2.2747,2.2807,0.0,0.0,0.0,2.2527,2.2473,2.2781,0.0,0.0,0.0,0.0,0.0,0.0,0.0,0.0,0.0,0.0,0.0,0.0,0.0,2.8805,2.9011,2.9144,0.0,0.0,0.0,0.0,0.0,0.0,0.0,0.0,0.0,0.0,0.0,0.0,0.0,0.0,0.0,0.0,0.0,0.0,3.5027,3.5128,3.4803,3.3836,3.4886,3.5026,3.4024,3.3282,3.2859,3.2808,3.2654,3.3545,3.5489,3.5501,3.5493,3.5493,3.5493,3.5493,3.5493,3.5493,3.5493,3.5545,3.5872,3.5815,3.5532,3.5872,3.6295,3.6796,3.7526,3.843,3.9354,0.0,0.0,0.0,0.0,0.0,0.0,0.0,0.0,0.0,0.0,2.1678,2.1486,0.0,0.0,0.0,0.0,2.2282,2.231,2.231,2.231,0.0,0.0,2.2669,2.2643,2.2626,2.266,2.2884,2.3257,2.2731,2.3068,2.4262,2.3009,2.2733,2.3241,2.2598,0.0,0.0,0.0,0.0,2.2237,2.2552,2.2712,0.0,0.0,2.2923,0.0,2.2686,2.25,2.2349,2.2634,2.2947,0.0,0.0,0.0,0.0,0.0,2.3849,0.0,0.0,0.0,0.0,0.0,0.0,0.0,2.8789,2.9011,2.9434,0.0,0.0,0.0,0.0,0.0,0.0,0.0,0.0,0.0,0.0,0.0,0.0,0.0,0.0,0.0,0.0,3.5689,3.5615,3.5312,3.5478,3.5087,3.3975,3.4925,3.5508,3.5495,3.3904,3.3288,3.3801,3.2673,3.3173,3.5316,3.5443,3.5493,3.5493,3.5493,3.5493,3.5493,3.5589,3.557,3.5565,3.6372,3.6238,3.5603,3.6488,3.6853,3.7046,3.8681,3.9354,3.9527,0.0,0.0,0.0,0.0,0.0,0.0,0.0,0.0,0.0,2.1228,2.1165,2.1102,2.1118,0.0,0.0,0.0,2.2077,2.231,2.231,2.231,0.0,2.2695,2.25,2.2337,2.2207,2.2471,2.2503,2.228,2.303,2.3257,2.2977,2.3113,2.2953,2.2513,2.2378,2.231,2.2282,0.0,0.0,2.1768,2.2391,0.0,2.2982,2.263,2.2581,2.2669,2.2463,2.2349,2.236,0.0,2.3141,2.3224,0.0,0.0,0.0,0.0,0.0,0.0,0.0,0.0,0.0,0.0,0.0,0.0,2.867,2.9011,2.9527,0.0,0.0,0.0,0.0,0.0,0.0,0.0,0.0,0.0,0.0,0.0,0.0,0.0,0.0,0.0,0.0,3.6985,3.7085,3.7,3.6473,3.5669,3.4584,3.5151,3.5499,3.5507,3.4487,3.3891,3.3795,3.2679,3.2775,3.4141,3.5064,3.5493,3.5493,3.5493,3.5493,3.5545,3.618,3.6103,3.5565,3.6372,3.6238,3.5661,3.7161,3.7757,3.7873,3.8911,3.97,4.0277,2.0343,2.0869,0.0,0.0,0.0,0.0,0.0,0.0,2.0043,2.0249,2.0112,2.0043,2.0283,0.0,0.0,0.0,0.0,0.0,0.0,0.0,0.0,2.25,2.2158,2.194,2.1845,2.2365,2.2606,2.254,2.3589,2.4165,2.4263,2.367,2.3393,2.3376,2.3004,2.2852,2.2873,0.0,2.3194,2.3128,2.2389,0.0,2.2315,2.2045,2.2169,2.2473,2.2349,2.248,2.2824,2.3277,2.3566,0.0,0.0,2.3351,2.345,0.0,2.2852,2.3088,0.0,0.0,0.0,2.5423,0.0,0.0,0.0,2.8612,2.9678,0.0,0.0,0.0,0.0,0.0,0.0,0.0,0.0,0.0,0.0,0.0,0.0,0.0,0.0,0.0,0.0,3.7415,3.7669,3.8053,3.621,3.5783,3.7506,3.6268,3.5761,3.6334,3.5372,3.4776,3.4635,3.409,3.409,3.4635,3.5238,3.5493,3.5493,3.5493,3.5493,3.5532,3.6353,3.6469,3.6199,3.7469,3.7507,3.6834,3.7661,3.8277,3.8796,4.0085,4.0527,4.0604,1.9655,2.0008,2.0334,0.0,0.0,0.0,0.0,0.0,1.8991,1.9295,1.8977,1.8977,1.9549,0.0,0.0,0.0,0.0,0.0,0.0,0.0,0.0,0.0,2.2195,2.1969,2.1628,2.2584,2.3046,2.2941,2.4166,2.5063,2.5606,2.4376,2.4069,2.4472,2.3714,2.3477,2.3634,0.0,0.0,2.4247,0.0,2.1899,2.2205,2.2032,2.2216,2.2609,2.2521,2.2824,2.3346,2.361,0.0,2.4094,2.35,2.3236,0.0,0.0,0.0,0.0,0.0,0.0,0.0,0.0,0.0,2.642,0.0,0.0,0.0,3.0802,0.0,0.0,0.0,0.0,0.0,0.0,0.0,0.0,0.0,0.0,0.0,0.0,0.0,0.0,0.0,3.8102,3.8224,3.8652,3.6366,3.6554,4.0309,3.7729,3.6422,3.7084,3.6276,3.5732,3.5509,3.5501,3.5501,3.5509,3.5488,3.5493,3.5493,3.5493,3.5493,3.5551,3.6526,3.6873,3.6853,3.8584,3.8892,3.8277,3.8411,3.8815,3.9469,4.0989,4.12,4.095,1.9326,2.0532,2.1324,2.1039,0.0,0.0,0.0,0.0,1.8727,1.8327,1.821,0.0,0.0,0.0,0.0,0.0,0.0,0.0,2.1688,0.0,0.0,0.0,0.0,2.3368,2.1645,2.3556,2.3864,2.239,2.4717,2.5324,2.4344,2.5046,2.505,2.4472,2.3714,2.3748,2.4292,0.0,2.2834,0.0,2.2215,2.2928,0.0,2.3519,2.3414,2.3673,2.3252,2.3323,2.3649,0.0,2.3917,2.4133,0.0,2.3437,0.0,0.0,0.0,0.0,0.0,0.0,0.0,0.0,2.4709,0.0,0.0,0.0,2.9321,3.1769,0.0,0.0,0.0,0.0,0.0,0.0,0.0,0.0,0.0,0.0,0.0,0.0,0.0,0.0,0.0,0.0,3.9632,3.8767,3.8864,3.9418,4.0444,3.9188,3.792,3.6796,3.6911,3.6507,3.5507,3.5507,3.5507,3.5507,3.5507,3.5493,3.5493,3.5493,3.5493,3.5603,3.718,3.7411,3.6853,3.8584,3.9238,3.9219,3.9931,3.9835,3.9411,4.0296,4.1066,4.1681,1.9286,1.961,1.9853,2.0138,0.0,0.0,0.0,0.0,0.0,1.676,1.7231,0.0,0.0,0.0,0.0,0.0,0.0,2.1794,0.0,0.0,0.0,0.0,0.0,0.0,2.2961,2.3943,2.4092,2.3401,2.5163,2.574,2.5212,2.5481,2.5439,2.5101,2.4139,0.0,2.5038,0.0,2.3823,0.0,0.0,0.0,0.0,2.3095,2.2694,2.3241,2.3424,2.3566,2.3714,0.0,2.4094,0.0,0.0,0.0,0.0,0.0,0.0,0.0,0.0,0.0,0.0,0.0,0.0,0.0,0.0,0.0,3.0501,0.0,0.0,0.0,0.0,0.0,0.0,0.0,0.0,0.0,0.0,0.0,0.0,0.0,0.0,0.0,0.0,0.0,0.0,0.0,0.0,4.023,4.0492,3.9423,3.8531,3.7935,3.682,3.5979,3.5498,3.5493,3.5493,3.5493,3.5493,3.5493,3.5493,3.5493,3.5757,3.6257,3.7469,3.8084,3.8296,3.9488,3.9988,4.0027,4.0354,4.0277,4.0162,4.1508,4.1912,4.2008,1.8914,1.8867,1.8862,1.9286,0.0,0.0,0.0,0.0,0.0,0.0,0.0,0.0,1.8904,1.9375,0.0,0.0,2.1368,2.1582,0.0,0.0,2.3308,2.3105,2.3909,0.0,0.0,0.0,2.472,2.4346,2.5598,2.612,2.5997,2.5933,2.5896,2.5847,2.4846,2.4913,2.5615,0.0,2.4777,2.605,2.456,2.4262,2.4512,2.295,2.2586,2.3045,2.3628,2.3837,2.3858,2.4113,2.419,0.0,2.3917,0.0,0.0,0.0,0.0,0.0,2.3289,0.0,0.0,0.0,0.0,0.0,0.0,0.0,0.0,0.0,0.0,0.0,0.0,0.0,0.0,0.0,0.0,0.0,0.0,0.0,0.0,0.0,0.0,0.0,0.0,0.0,0.0,3.987,4.0246,4.0498,4.0507,3.9727,3.9123,3.8815,3.7565,3.6435,3.5518,3.5493,3.5493,3.5493,3.5493,3.5493,3.5526,3.5738,3.6161,3.6757,3.7873,3.8719,3.9354,4.0162,4.0489,4.0508,4.0758,4.0854,4.1008,4.2277,4.2624,4.2758,1.8032,1.8919,1.9396,1.8904,0.0,0.0,0.0,0.0,0.0,0.0,0.0,0.0,0.0,0.0,0.0,0.0,0.0,2.1582,2.1582,0.0,2.3088,0.0,2.4394,2.4867,0.0,0.0,2.6,2.4771,2.6067,2.6436,2.6013,2.6454,2.6657,2.6624,2.6021,2.5842,2.5944,2.5319,2.4954,2.4789,2.4016,2.3185,2.2536,0.0,2.3981,2.3714,2.4074,0.0,0.0,2.4208,2.419,0.0,0.0,0.0,0.0,0.0,0.0,0.0,0.0,0.0,0.0,2.6082,0.0,0.0,0.0,0.0,3.0676,0.0,0.0,0.0,0.0,0.0,0.0,0.0,0.0,0.0,0.0,0.0,0.0,0.0,0.0,0.0,0.0,0.0,0.0,4.0614,4.0476,4.0484,4.0501,4.0471,3.9946,3.8845,3.9798,3.8782,3.5532,3.5493,3.5493,3.5493,3.5493,3.5493,3.5545,3.6315,3.668,3.6796,3.8507,3.9258,3.9354,4.0162,4.0489,4.0566,4.1431,4.1758,4.1777,4.1816,4.2854,4.422,1.7042,1.7612,1.8025,0.0,0.0,0.0,0.0,1.6351,0.0,0.0,0.0,0.0,0.0,0.0,2.0286,0.0,0.0,2.1928,2.1612,2.3184,0.0,0.0,0.0,2.5862,0.0,0.0,0.0,2.605,2.6164,2.6297,2.6487,2.6624,2.6539,2.6193,2.5183,2.5012,0.0,0.0,0.0,0.0,0.0,2.3879,2.3419,0.0,0.0,2.3437,2.3996,2.419,0.0,2.419,2.419,2.419,2.419,2.4113,2.3917,2.3369,2.3117,0.0,0.0,0.0,2.3088,2.4797,0.0,0.0,0.0,0.0,0.0,0.0,0.0,0.0,0.0,0.0,0.0,0.0,0.0,0.0,0.0,0.0,0.0,0.0,0.0,0.0,0.0,0.0,0.0,3.9527,4.1104,4.1639,4.031,4.095,4.0912,3.9965,3.9215,3.7777,3.5508,3.5498,3.5493,3.5493,3.5493,3.5493,3.5512,3.5795,3.6507,3.7584,3.818,3.9065,4.0104,4.0392,4.0489,4.0585,4.147,4.2162,4.272,4.3258,4.3816,4.4374,1.6574,1.6612,0.0,0.0,0.0,0.0,0.0,0.0,0.0,0.0,1.82,0.0,1.9551,0.0,2.0436,0.0,2.1645,2.2103,2.2219,2.319,0.0,2.341,2.4763,0.0,0.0,0.0,0.0,2.6302,2.6284,2.6401,2.6691,2.6691,2.6556,2.6227,2.5775,2.5551,2.5465,0.0,2.5422,0.0,0.0,2.4614,0.0,0.0,2.3777,2.3437,0.0,2.419,2.419,2.419,2.419,2.419,2.419,2.419,2.4074,2.3392,2.3189,2.3116,2.2777,2.2885,0.0,2.4898,2.6184,0.0,2.992,0.0,0.0,0.0,0.0,0.0,0.0,0.0,0.0,3.4853,3.5174,0.0,0.0,3.7956,0.0,0.0,0.0,0.0,0.0,0.0,4.0714,3.8044,4.0904,4.2098,0.0,0.0,4.1508,4.0527,3.945,3.78,3.5513,3.5498,3.5493,3.5493,3.5795,3.5795,3.5532,3.6449,3.7276,3.8027,3.8623,3.9488,4.0489,4.0489,4.0489,4.0604,4.1797,4.2604,4.3201,4.3989,4.4489,4.4836,0.0,0.0,0.0,0.0,1.5591,0.0,0.0,0.0,1.7712,0.0,1.9009,1.9161,1.9675,2.0089,2.0516,2.0991,2.1399,0.0,2.3262,2.2733,0.0,0.0,2.341,2.3427,2.3393,0.0,0.0,0.0,2.6336,2.6691,2.6691,2.6691,2.6708,2.6776,2.7665,2.7273,2.6109,2.7471,2.7262,2.6054,2.607,2.5207,2.4014,2.4539,2.4293,2.3735,2.4074,2.419,2.419,2.419,2.419,2.419,2.419,2.419,2.4074,2.3392,2.3189,2.3221,2.3306,2.3849,2.476,2.6218,0.0,0.0,0.0,0.0,3.1698,0.0,0.0,0.0,0.0,0.0,0.0,3.3802,3.3805,0.0,0.0,0.0,0.0,0.0,0.0,0.0,0.0,4.0492,3.8059,3.6527,3.9846,4.1749,0.0,0.0,4.1783,4.0527,4.0489,3.8916,3.5657,3.5542,3.5498,3.5512,3.6276,3.6257,3.5641,3.8027,3.87,3.8084,3.9681,4.0392,4.0431,4.0469,4.0489,4.0662,4.2412,4.3143,4.3316,4.4085,4.4893,4.5586,1.582,1.5578,1.546,0.0,1.6232,1.6903,0.0,0.0,0.0,0.0,1.9798,1.9666,2.01,2.055,2.0991,2.1399,2.1869,0.0,0.0,0.0,0.0,2.2598,2.363,2.3951,2.341,2.4847,0.0,2.5609,2.6336,2.6691,2.6691,2.6691,2.6807,2.7002,2.7255,2.6924,2.6273,2.7011,2.7038,2.6471,2.5727,2.5128,0.0,0.0,2.3779,2.3735,2.4074,2.419,2.419,2.419,2.419,2.419,2.419,2.419,2.4074,2.3392,2.3189,2.3098,2.2692,2.2733,2.3224,2.4678,2.5846,2.7168,0.0,0.0,0.0,0.0,0.0,0.0,0.0,0.0,0.0,0.0,0.0,0.0,0.0,0.0,0.0,3.8707,0.0,0.0,3.9942,3.9197,3.8529,3.8113,3.9026,4.0246,4.1806,0.0,0.0,4.0592,4.0508,3.9488,3.7377,3.6133,3.5498,3.5493,3.5718,3.6007,3.6392,3.6449,3.7026,3.8027,3.845,3.9008,3.9642,4.0239,4.0489,4.0662,4.2412,4.3855,4.497,4.5182,4.5413,4.5586,1.551,0.0,0.0,1.6079,0.0,0.0,1.8103,0.0,0.0,2.1355,2.0671,0.0,2.1036,2.1037,2.115,2.1552,2.2032,0.0,0.0,0.0,0.0,2.2784,2.3274,2.3342,2.2936,2.4052,0.0,2.5118,0.0,2.686,2.7199,2.7537,2.7767,2.7952,2.8248,2.8068,2.7471,2.742,2.7324,2.7114,2.6218,0.0,0.0,2.4427,2.4046,2.3937,2.4113,2.419,2.419,2.419,2.419,2.419,2.419,2.419,2.4074,2.3392,2.3189,2.3063,2.247,2.2547,2.3112,2.4411,2.5476,2.6842,2.9312,3.0374,3.0966,0.0,0.0,0.0,0.0,0.0,0.0,0.0,0.0,0.0,0.0,0.0,0.0,0.0,3.7831,0.0,3.6698,3.7863,3.8099,3.6668,3.7904,3.9575,0.0,0.0,0.0,4.2797,4.1283,4.005,3.9095,3.6695,3.5489,3.5493,3.5872,3.6084,3.618,3.6469,3.6911,3.7469,3.8238,3.8854,3.9354,4.0162,4.0489,4.0662,4.2412,4.4124,4.5586,4.5586,4.5586,4.5586,0.0,0.0,0.0,0.0,0.0,0.0,0.0,2.0756,0.0,2.2262,0.0,2.1008,2.192,2.144,2.1244,2.1658,0.0,2.2581,2.3207,2.2665,2.2598,2.3224,2.2649,2.231,2.231,2.3021,0.0,0.0,0.0,2.7131,2.7958,2.867,2.9025,2.9161,2.982,2.9685,0.0,2.818,2.7791,2.7604,2.6945,2.6299,2.5606,2.5103,2.4615,2.4189,2.4208,2.419,2.419,2.419,2.419,2.419,2.419,2.419,2.4074,2.3437,2.3277,2.3135,2.2571,2.2892,2.3625,2.4715,2.5593,2.6911,2.9773,3.0532,3.0739,3.1023,3.1733,3.1696,0.0,0.0,0.0,0.0,0.0,0.0,0.0,0.0,0.0,0.0,0.0,0.0,3.4733,3.7026,3.7342,3.4063,3.6846,3.9498,0.0,0.0,0.0,4.5601,4.2268,0.0,4.1161,0.0,3.5513,3.5512,3.6205,3.6238,3.5718,3.718,3.7488,3.6969,3.8584,3.9296,3.9354,4.0162,4.0623,4.0989,4.2508,4.4124,4.5586,4.5586,4.5586,4.5586,0.0,0.0,0.0,0.0,0.0,2.0474,1.9468,1.9839,2.0552,2.1393,2.0864,2.0704,2.1578,2.1573,2.1688,2.2135,2.2237,0.0,0.0,0.0,0.0,2.2496,2.2378,2.231,2.231,2.3021,2.4052,0.0,0.0,2.7418,2.8789,2.8924,2.9313,2.9922,3.004,2.9685,2.8977,2.8367,0.0,2.6894,2.6764,2.6631,2.6321,2.4885,2.4271,2.4202,2.4207,2.419,2.419,2.419,2.419,2.419,2.419,2.419,2.4113,2.3714,2.361,2.3522,2.3135,2.3144,2.3425,2.4224,2.5298,2.6422,2.7583,2.8603,2.935,2.9415,3.0063,3.0687,3.0944,0.0,0.0,0.0,0.0,0.0,0.0,0.0,0.0,0.0,0.0,0.0,0.0,3.8345,3.7338,3.4032,3.6833,0.0,0.0,0.0,0.0,0.0,4.2274,0.0,0.0,0.0,3.5499,3.5494,3.5633,3.5988,3.6507,3.6796,3.7238,3.7834,3.8854,3.9296,3.9354,4.0162,4.1354,4.2662,4.2989,4.4124,4.5586,4.5586,4.5586,4.5586,0.0,0.0,0.0,0.0,0.0,0.0,0.0,2.0249,0.0,2.1591,2.139,2.1519,2.2418,2.198,2.1794,2.2254,2.231,2.231,2.231,2.231,2.231,2.231,2.231,0.0,2.231,2.2649,2.3748,2.5609,0.0,2.7672,2.9583,2.9956,3.0328,3.0649,3.0277,2.9905,0.0,0.0,0.0,2.7436,2.6908,2.6961,2.721,2.592,2.4928,2.4205,2.4189,2.419,2.419,2.419,2.419,2.419,2.419,2.419,2.4113,2.3795,2.3692,2.3628,2.33,2.3189,2.3431,2.4373,2.5368,2.6343,2.73,2.8278,2.8994,2.8994,2.9329,3.011,3.188,3.2551,0.0,0.0,0.0,0.0,0.0,0.0,0.0,0.0,0.0,0.0,0.0,0.0,0.0,0.0,0.0,0.0,0.0,0.0,0.0,0.0,0.0,0.0,0.0,0.0,0.0,3.5508,3.5921,3.6122,3.6084,3.6084,3.6526,3.7373,3.8257,3.8873,3.9354,4.0162,4.1527,4.3104,4.3104,4.4124,4.5586,4.5586,4.5586,4.5586,0.0,1.8664,0.0,0.0,2.0118,0.0,2.1423,2.0872,2.0637,2.1577,2.1773,2.2086,2.2916,2.2172,2.1794,2.2254,2.231,2.231,2.231,2.231,2.231,2.231,2.231,2.231,2.231,2.231,2.3325,0.0,0.0,2.7791,2.9888,3.0784,3.1106,3.0937,0.0,0.0,0.0,0.0,2.8081,2.7809,2.7012,2.6853,2.7032,2.6347,2.5306,2.4207,2.4208,2.419,2.419,2.419,2.419,2.419,2.419,2.419,2.4151,2.3896,2.3816,2.3753,2.3482,2.3414,2.362,2.453,2.5484,2.6441,2.7339,2.8301,2.8994,2.8994,2.9062,2.9843,3.234,3.2534,0.0,0.0,0.0,0.0,0.0,0.0,0.0,0.0,0.0,0.0,0.0,0.0,0.0,0.0,0.0,3.8375,4.0021,4.3586,0.0,0.0,0.0,4.3965,4.0531,0.0,4.0346,0.0,3.6493,3.6372,3.5757,3.5949,3.6488,3.7296,3.8161,3.8911,3.9623,4.0431,4.1681,4.3124,4.3297,4.4259,4.5586,4.5586,4.5586,4.5586,0.0,0.0,0.0,0.0,0.0,0.0,0.0,2.0872,2.033,2.046,2.0826,2.1263,2.1727,2.1661,2.1794,2.2254,2.231,2.231,2.231,2.231,2.231,2.231,2.231,2.231,2.231,2.231,2.3054,0.0,0.0,2.752,2.911,3.0531,3.0835,0.0,0.0,0.0,0.0,2.813,2.7691,2.6826,2.6745,2.5841,2.4547,2.4463,2.4329,2.4202,2.4207,2.419,2.419,2.419,2.419,2.419,2.419,2.419,2.419,2.417,2.4151,2.4151,2.4113,2.4094,2.4132,2.4243,2.5415,2.657,2.6704,2.7915,2.8994,2.8994,2.9181,2.9956,3.1844,3.0979,3.0678,0.0,0.0,0.0,0.0,0.0,0.0,0.0,0.0,0.0,0.0,3.5243,0.0,0.0,3.6544,3.5615,3.87,4.3168,4.5594,4.5608,0.0,4.3968,4.0545,4.0662,3.9734,3.7766,3.7031,3.6661,3.6622,3.7411,3.8238,3.9104,3.9912,4.0296,4.045,4.1316,4.2239,4.3162,4.3893,4.4759,4.5586,4.5586,4.5586,4.5586,0.0,0.0,0.0,0.0,0.0,0.0,0.0,2.113,2.0616,2.0348,2.091,2.1538,2.1974,2.2032,2.2106,2.2282,2.231,2.231,2.231,2.231,2.231,2.231,2.231,2.231,2.231,2.231,2.3021,0.0,0.0,0.0,0.0,3.0057,3.0142,0.0,0.0,2.8467,2.8012,2.7504,2.708,2.6792,2.7722,2.6836,2.4998,2.5116,2.4769,2.4206,2.4189,2.419,2.419,2.419,2.419,2.419,2.419,2.419,2.419,2.419,2.419,2.419,2.419,2.419,2.419,2.419,2.5419,2.6612,2.6612,2.7838,2.8994,2.8994,2.9293,2.9964,3.1204,3.1407,3.1481,0.0,0.0,0.0,0.0,0.0,0.0,0.0,0.0,0.0,0.0,0.0,0.0,0.0,0.0,3.9352,3.8719,4.1922,4.3875,4.4087,0.0,4.396,4.0526,4.0492,4.0158,3.9503,3.8661,3.7988,3.7488,3.7834,3.8469,3.9335,4.0142,4.0489,4.0566,4.145,4.2316,4.3181,4.3989,4.4836,4.5586,4.5586,4.5586,4.5586,2.0151,0.0,2.177,0.0,2.1535,2.162,2.1588,2.1124,2.0748,2.0699,2.1228,2.1735,2.2061,2.2106,2.2135,2.2282,2.231,2.231,2.231,2.231,2.231,2.231,2.231,0.0,2.231,2.231,2.2818,2.3849,2.5541,0.0,0.0,0.0,0.0,0.0,2.8129,2.7859,2.7725,2.7013,2.6691,2.6826,2.8146,2.7526,2.5809,2.581,2.527,2.452,2.4281,2.419,2.419,2.419,2.419,2.419,2.419,2.419,2.419,2.419,2.419,2.419,2.419,2.419,2.4263,2.4483,2.5585,2.6667,2.6906,2.8026,2.9044,2.9163,2.9514,3.0002,3.0693,3.1394,3.168,3.1069,0.0,0.0,0.0,0.0,0.0,0.0,3.0602,3.2048,3.3009,3.4149,0.0,0.0,0.0,0.0,3.8841,4.1175,0.0,0.0,0.0,0.0,0.0,4.1006,4.0499,4.0496,3.9677,3.8969,3.8392,3.8623,3.9065,3.9681,4.0239,4.0642,4.095,4.1816,4.2681,4.3528,4.4355,4.5047,4.5586,4.5586,4.5586,4.5586,2.0415,2.1944,2.3031,2.1867,2.1703,2.1611,2.1353,2.0763,2.0601,2.146,2.1582,2.1582,2.1628,2.1628,2.1794,2.2254,2.231,2.231,2.231,2.231,2.231,0.0,0.0,2.231,2.231,2.231,2.231,2.2344,0.0,0.0,2.5693,0.0,2.8569,2.7806,2.8063,2.7674,2.6708,2.6708,2.6691,2.6775,2.7587,2.7367,2.6543,2.6007,2.5637,2.5293,2.4483,2.419,2.419,2.419,2.419,2.419,2.419,2.419,2.419,2.419,2.419,2.419,2.419,2.419,2.4392,2.5201,2.5988,2.6814,2.7603,2.8429,2.9138,2.9588,2.9861,3.0075,3.0374,3.0417,3.0535,3.0861,0.0,0.0,0.0,0.0,0.0,0.0,3.24,3.494,3.5403,0.0,0.0,0.0,0.0,0.0,0.0,0.0,0.0,4.1054,4.3989,0.0,4.5548,4.2201,4.0498,4.0496,3.9677,3.9277,3.9296,4.0104,4.0469,4.0489,4.0489,4.0989,4.1854,4.272,4.3566,4.4374,4.524,4.5586,4.5586,4.5586,4.5586,4.5586,2.0656,2.1874,2.2676,2.1843,2.1689,2.1596,2.1337,2.0989,2.0991,2.1521,2.1899,2.2077,2.2077,2.2077,2.2135,0.0,2.231,2.231,0.0,2.231,2.231,2.231,2.231,2.2547,2.3038,2.3054,2.3291,2.3799,0.0,0.0,0.0,2.7125,2.7291,2.6576,2.7011,2.7013,2.6691,2.6691,2.6691,2.6758,2.7592,2.7412,2.6694,2.7037,2.6765,2.6172,2.5933,2.5841,2.575,2.5199,2.5035,2.4905,2.4373,2.419,2.419,2.419,2.4575,2.5035,2.5035,2.5419,2.5897,2.6153,2.6814,2.7493,2.7732,2.8566,2.933,2.9455,2.9763,3.0028,3.0103,3.0286,3.0382,3.03,2.9988,0.0,0.0,0.0,0.0,0.0,0.0,3.5846,0.0,3.3918,0.0,0.0,0.0,0.0,0.0,0.0,0.0,0.0,4.1536,0.0,4.0895,4.0634,4.0498,4.0504,4.0254,4.0104,4.0123,4.0373,4.0489,4.0527,4.1123,4.1546,4.1912,4.3335,4.4066,4.4393,4.5259,4.5586,4.5586,4.5586,4.5586,4.5586,2.1465,2.2128,2.248,2.1828,2.2032,2.2072,2.1311,2.1438,2.1709,2.1827,2.2106,2.231,2.231,2.231,0.0,2.231,2.231,2.231,2.231,2.2564,2.2716,2.2716,2.2987,2.3342,2.3799,0.0,0.0,2.4506,2.5059,2.5546,2.6013,2.6475,2.6442,2.6013,2.647,2.6691,2.6691,2.6691,2.6691,2.6791,2.7577,2.7614,2.7209,2.7627,2.7493,2.7016,2.6722,2.6612,2.6521,2.6025,2.566,2.5384,2.5162,2.4887,2.4649,2.4649,2.5217,2.5841,2.5841,2.6227,2.6667,2.6979,2.742,2.7879,2.8172,2.8899,2.9513,2.9513,2.9848,3.015,3.015,3.0299,3.0311,3.0028,2.9867,2.9586,2.9064,0.0,0.0,0.0,0.0,0.0,0.0,3.4745,3.6023,0.0,0.0,0.0,0.0,0.0,0.0,4.1662,3.9756,0.0,3.8704,3.9897,4.0502,4.0511,4.0915,4.1258,4.147,4.1143,4.0989,4.1027,4.1566,4.1989,4.2393,4.3739,4.4489,4.4836,4.5374,4.5586,4.5586,4.5586,4.5586,4.5586,2.2603,2.274,0.0,0.0,2.2683,0.0,2.1422,2.21,2.269,2.2473,2.2412,2.2395,2.2395,2.2344,2.231,2.231,0.0,0.0,0.0,2.3021,2.341,2.346,2.412,2.454,2.4591,2.4591,2.456,2.4512,2.4713,2.5182,2.5806,2.5908,2.5924,2.5961,2.647,2.6691,2.6691,2.6691,2.6691,2.6791,2.7577,2.7897,2.7893,2.7906,2.7879,2.7787,2.7034,2.6778,2.6759,2.6704,2.619,2.5697,2.6374,2.6117,2.5568,2.5513,2.6043,2.6686,2.6686,2.6722,2.6961,2.7695,2.7879,2.8081,2.881,2.9357,2.9696,2.9696,3.0066,3.0398,3.0398,3.0436,3.0407,3.0171,3.0051,2.9787,2.9151,0.0,0.0,0.0,0.0,0.0,0.0,3.6147,3.6208,0.0,0.0,0.0,0.0,0.0,4.058,3.9075,3.8812,3.8715,3.8683,3.9887,4.0625,4.088,4.1841,4.2607,4.3124,4.2277,4.1893,4.1893,4.195,4.2431,4.3258,4.4066,4.4874,4.5586,4.5586,4.5586,4.5586,4.5586,4.5586,4.5586,0.0,0.0,2.3283,2.3029,2.3235,2.3346,2.3226,2.3457,2.37,2.3955,2.3477,2.3139,2.3139,2.2649,2.231,2.231,2.231,2.2547,2.3105,2.3291,2.3646,2.4235,2.4421,2.4746,2.5338,2.5338,2.516,2.4746,2.498,2.4713,2.3959,2.4926,2.5373,2.5411,2.6315,2.6691,2.6691,2.6691,2.6691,2.6791,2.7577,2.7897,2.7964,2.8524,2.8723,2.8705,2.848,2.8425,2.8333,2.7714,2.7383,2.7145,2.6741,2.6888,2.7108,2.6502,2.6888,2.7512,2.7512,2.797,2.8484,2.8686,2.8723,2.8778,2.8957,2.9357,2.9696,2.9696,3.0066,3.0398,3.0398,3.0948,3.1379,3.1322,3.1102,3.0681,2.9817,3.0443,0.0,0.0,3.4069,3.4787,3.4532,3.5295,3.6211,0.0,0.0,0.0,0.0,4.23,4.2765,4.2382,3.9978,3.8707,3.871,3.9889,4.1812,4.4383,4.3792,4.3564,4.3698,4.3066,4.2797,4.2835,4.3431,4.3835,4.4085,4.4932,4.5413,4.5586,4.5586,4.5586,4.5586,4.5586,4.5586,4.5586,2.3098,2.3377,2.3556,2.3412,2.3865,2.4159,2.3917,2.4347,2.4642,2.4526,2.3849,2.3393,2.3393,2.275,2.231,2.231,2.231,2.2615,2.3342,2.3393,2.3883,2.4949,2.5,2.5355,2.6082,2.6099,2.5849,2.5351,2.5255,2.4837,2.4163,2.4891,2.5335,2.5615,2.635,2.6691,2.6691,2.6691,2.6691,2.6791,2.7677,2.7996,2.7982,2.8718,2.8994,2.8994,2.8994,2.8994,2.892,2.8503,2.8099,2.7787,2.7732,2.775,2.7787,2.7732,2.8007,2.8356,2.8356,2.8686,2.8994,2.8994,2.8994,2.8994,2.8994,2.9357,2.9696,2.9696,3.0066,3.0398,3.0398,3.1121,3.1698,3.1698,3.1713,3.145,3.0719,3.12,0.0,3.3249,3.463,3.5303,3.4834,3.5218,3.5886,3.6833,0.0,0.0,4.1089,4.1319,4.1981,4.3453,4.0377,3.8683,3.8683,3.9887,4.2219,4.5577,4.4966,4.468,4.468,4.4372,4.4025,4.3662,4.4105,4.4297,4.4374,4.524,4.5586,4.5586,4.5586,4.5586,4.5586,4.5586,4.5586,4.5586,2.3595,2.3595,2.3571,2.3551,2.4476,2.497,2.4312,2.5096,2.5541,2.4898,2.4188,2.368,2.3579,2.3004,2.2598,2.2496,2.2581,2.2852,2.3359,2.3613,2.4289,2.5558,2.571,2.6065,2.6674,2.6691,2.6436,2.5888,2.5486,2.5259,2.5089,2.5259,2.5577,2.6013,2.647,2.6691,2.6691,2.6691,2.6691,2.6808,2.7812,2.8067,2.7982,2.8718,2.8994,2.8994,2.8994,2.8994,2.8994,2.8994,2.8558,2.8099,2.8796,2.8539,2.8117,2.8792,2.8994,2.8994,2.8994,2.8994,2.8994,2.8994,2.8994,2.8994,2.8994,2.9357,2.9696,2.9696,3.0066,3.0436,3.0571,3.1295,3.1968,3.2237,3.2362,3.2351,3.2137,0.0,3.2634,3.4579,3.522,3.5495,3.5507,3.5493,3.55,3.5511,3.5077,3.5969,0.0,3.915,4.0661,4.342,4.085,3.9197,3.8701,3.9909,4.2221,4.5601,4.5603,4.5586,4.5586,4.5601,4.5199,4.4489,4.4489,4.4489,4.4547,4.5278,4.5586,4.5586,4.5586,4.5586,4.5586,4.5586,4.5586,4.5586,2.3595,2.3595,2.3721,2.4168,2.4792,2.5309,2.5628,2.6167,2.6488,2.637,2.5727,2.5017,2.4421,2.4235,2.39,2.3274,2.3799,2.3934,2.3427,2.4577,2.5372,2.5592,2.6201,2.6573,2.6691,2.6691,2.6245,2.5335,2.5689,2.5411,2.4536,2.5449,2.5924,2.6013,2.647,2.6691,2.6691,2.6691,2.6691,2.6808,2.7812,2.8067,2.7982,2.8718,2.8994,2.8994,2.8994,2.8994,2.8994,2.8994,2.892,2.8851,2.8957,2.8902,2.8851,2.8957,2.8994,2.8994,2.8994,2.8994,2.8994,2.8994,2.8994,2.8994,2.8994,2.9357,2.9696,2.9696,3.0066,3.0609,3.1371,3.216,3.3199,3.468,3.4148,3.3859,3.475,0.0,3.3669,3.4241,3.5012,3.5507,3.5507,3.5493,3.5503,3.5507,3.5415,3.6348,3.8591,4.1267,4.2991,4.3483,4.3037,4.1456,3.8732,3.991,4.2208,4.5601,4.5603,4.5586,4.5586,4.5603,4.5545,4.5393,4.5393,4.5393,4.5413,4.5528,4.5586,4.5586,4.5586,4.5586,4.5586,4.5586,4.5586,4.5586,2.3595,2.3595,2.3752,2.4307,2.4672,2.516,2.5888,2.6401,2.6691,2.6691,2.6065,2.5473,2.5118,2.4729,2.434,2.4002,2.4661,2.478,2.4036,2.4628,2.5355,2.6167,2.6133,2.6285,2.6691,2.6691,2.6367,2.5615,2.5888,2.5742,2.5259,2.5779,2.612,2.6401,2.6624,2.6691,2.6691,2.6691,2.6691,2.6791,2.7677,2.7996,2.7982,2.8718,2.8994,2.8994,2.8994,2.8994,2.8994,2.8994,2.8994,2.8994,2.8994,2.8994,2.8994,2.8994,2.8994,2.8994,2.8994,2.8994,2.8994,2.8994,2.8994,2.904,2.9181,2.9456,2.9731,2.9845,3.0519,3.1218,3.1641,3.2737,3.3853,3.4661,3.4525,0.0,0.0,3.471,3.4372,3.4645,3.5168,3.5493,3.5498,3.5498,3.549,3.5503,3.5506,3.6441,3.8591,4.1736,4.3495,4.3504,4.1824,4.0215,3.871,4.1712,4.4037,4.5601,4.5603,4.5586,4.5586,4.5586,4.5586,4.5586,4.5586,4.5586,4.5586,4.5586,4.5586,4.5586,4.5586,4.5586,4.5586,4.5586,4.5586,4.5586,2.3595,2.3595,2.3752,2.4307,2.4648,2.5098,2.5888,2.6401,2.6691,2.6691,2.6201,2.5795,2.5625,2.5236,2.4946,2.4763,2.5423,2.5625,2.5033,2.5031,2.5423,2.6404,2.6065,2.6116,2.6674,2.6691,2.6401,2.5815,2.6033,2.6033,2.5815,2.6033,2.6367,2.6691,2.6691,2.6691,2.6691,2.6691,2.6691,2.6791,2.7577,2.7897,2.7982,2.8718,2.8994,2.8994,2.8994,2.8994,2.8994,2.8994,2.8994,2.8994,2.8994,2.9122,2.9232,2.9049,2.8994,2.8994,2.8994,2.8994,2.8994,2.8994,2.8994,2.9122,2.9574,2.9851,3.0065,3.0255,3.1199,3.1987,3.1987,3.3199,3.4334,3.4718,0.0,0.0,0.0,3.5021,3.4813,3.5138,3.5369,3.5493,3.5504,3.5504,3.5835,3.6599,3.6393,3.697,3.8615,4.1033,4.2395,4.2382,4.001,3.9068,3.983,4.3661,4.5586,4.5601,4.5603,4.5586,4.5586,4.5586,4.5586,4.5586,4.5586,4.5586,4.5586,4.5586,4.5586,4.5586,4.5586,4.5586,4.5586,4.5586,4.5586,4.5586,2.3595,2.3595,2.3752,2.4307,2.4816,2.5335,2.5924,2.6401,2.6691,2.6691,2.664,2.6353,2.5676,2.6167,2.6251,2.5592,2.6184,2.659,2.6539,2.6522,2.6285,2.571,2.6285,2.664,2.6691,2.6691,2.6245,2.5259,2.6193,2.6158,2.5297,2.6193,2.6657,2.6691,2.6691,2.6691,2.6691,2.6691,2.6691,2.6791,2.7577,2.7897,2.7982,2.8718,2.8994,2.8994,2.8994,2.8994,2.8994,2.8994,2.8994,2.8994,2.8994,2.9512,2.9971,2.9237,2.8994,2.8994,2.8994,2.8994,2.8994,2.8994,2.8994,2.9273,3.0286,3.0715,3.0953,3.1165,3.2062,3.2814,3.2814,3.3564,3.4699,3.6257,0.0,0.0,3.6396,3.5492,3.4889,3.5417,3.5493,3.5493,3.5504,3.5504,3.6788,3.9905,3.9094,3.8527,3.87,3.8925,3.9058,3.9039,3.8812,4.0145,4.3133,4.4783,4.5605,4.5603,4.5586,4.5586,4.5586,4.5586,4.5586,4.5586,4.5586,4.5586,4.5586,4.5586,4.5586,4.5586,4.5586,4.5586,4.5586,4.5586,4.5586,4.5586,2.3595,2.3595,2.393,2.4921,2.5847,2.6645,2.7262,2.7791,2.7943,2.7452,2.7385,2.7114,2.6353,2.6522,2.6776,2.6962,2.681,2.6894,2.7368,2.6945,2.6573,2.6285,2.6539,2.6691,2.6691,2.6691,2.6505,2.6123,2.6505,2.6505,2.6123,2.6539,2.6691,2.6691,2.6691,2.6945,2.7385,2.7385,2.7672,2.8218,2.8994,2.9331,2.942,3.0199,3.0485,3.0485,3.0485,3.0173,2.9824,3.032,3.0173,2.9843,3.0338,3.0705,3.0797,2.9989,2.9751,2.9751,2.9751,2.936,2.9104,2.9622,2.9876,3.0262,3.1353,3.1786,3.1908,3.1607,3.2699,3.3545,3.3006,3.4045,3.5218,3.5853,0.0,3.4984,3.5835,3.5224,3.4908,3.5432,3.5493,3.5498,3.5508,3.5494,3.6905,4.0261,3.9373,3.8696,3.8707,3.8682,3.8697,3.8689,4.0624,4.2259,4.3473,4.4909,4.5597,4.5586,4.5586,4.5586,4.5586,4.5586,4.5586,4.5586,4.5586,4.5586,4.5586,4.5586,4.5586,4.5586,4.5586,4.5586,4.5586,4.5586,4.5586,4.5586,2.3924,2.4088,2.44,2.506,2.6293,2.7303,2.7476,2.8126,2.8332,2.7571,2.7469,2.7351,2.708,2.7046,2.7351,2.8112,2.7706,2.7638,2.8146,2.7706,2.7199,2.6708,2.6691,2.6691,2.6691,2.6928,2.686,2.647,2.7096,2.7214,2.6823,2.7214,2.7418,2.7418,2.7418,2.7706,2.8197,2.8197,2.8501,2.9083,2.9869,3.0198,3.029,3.1091,3.1384,3.1384,3.1384,3.1035,3.065,3.1201,3.1017,3.0668,3.1219,3.1384,3.1329,3.1035,3.0779,3.0577,3.0577,3.0173,2.9898,3.0448,3.0729,3.1163,3.2316,3.271,3.2778,3.2545,3.3622,3.4334,3.3468,3.4507,3.5493,3.5493,3.5053,3.487,3.5304,3.4981,3.487,3.532,3.5446,3.5498,3.5494,3.6464,3.8029,4.034,3.9373,3.8696,3.8701,3.9663,3.974,3.8725,4.1809,4.3491,4.3498,4.49,4.5584,4.5592,4.5589,4.5586,4.5586,4.5586,4.5586,4.5586,4.5586,4.5586,4.5586,4.5586,4.5586,4.5586,4.5586,4.5586,4.5586,4.5586,4.5586,4.5586,2.4597,2.5151,2.5349,2.457,2.6024,2.7034,2.6151,2.7035,2.7571,2.6826,2.6725,2.7012,2.7722,2.7789,2.8146,2.8924,2.9011,2.9011,2.9011,2.9011,2.8298,2.6776,2.6708,2.6708,2.6708,2.7435,2.7207,2.603,2.7998,2.835,2.7135,2.8421,2.9011,2.9011,2.9011,2.9011,2.8991,2.8991,2.8991,2.91,2.9887,3.0234,3.0308,3.1109,3.1403,3.1403,3.1403,3.1403,3.1403,3.1403,3.1403,3.1403,3.1403,3.1403,3.1568,3.2375,3.2027,3.1403,3.1403,3.1403,3.1403,3.1403,3.1403,3.1763,3.3106,3.3412,3.3562,3.4093,3.4891,3.5238,3.4353,3.4911,3.5493,3.5493,3.5053,3.4793,3.507,3.487,3.4812,3.507,3.5339,3.5498,3.5494,3.8522,4.0507,4.0501,3.9377,3.8696,3.8701,4.1736,4.2004,3.8842,4.1846,4.3523,4.349,4.4898,4.5583,4.5595,4.5592,4.5586,4.5586,4.5586,4.5586,4.5586,4.5586,4.5586,4.5586,4.5586,4.5586,4.5586,4.5586,4.5586,4.5586,4.5586,4.5586,4.5586,2.5226,2.548,2.5801,2.6439,2.7383,2.8301,2.8911,2.931,2.9449,2.9141,2.8728,2.8498,2.8617,2.8636,2.8941,2.9702,2.9296,2.9011,2.9011,2.9011,2.8808,2.8315,2.8298,2.8044,2.7503,2.823,2.8482,2.8101,2.8718,2.882,2.8454,2.8837,2.9011,2.9011,2.9011,2.9279,2.977,2.977,3.0057,3.0628,3.1479,3.1827,3.1923,3.2766,3.3073,3.3073,3.3073,3.2724,3.2339,3.2889,3.2706,3.2339,3.2908,3.3073,3.3018,3.2706,3.243,3.2247,3.2247,3.2247,3.2247,3.2247,3.2385,3.2836,3.4049,3.4472,3.4516,3.4255,3.4891,3.5238,3.4353,3.4911,3.5432,3.5239,3.4926,3.4714,3.4812,3.5245,3.5646,3.5907,3.5687,3.5494,3.5503,3.8531,4.0492,4.0511,3.9391,3.8715,3.8687,3.9625,4.074,4.2011,4.3011,4.3523,4.349,4.3914,4.4624,4.5595,4.5592,4.5586,4.5586,4.5586,4.5586,4.5586,4.5586,4.5586,4.5586,4.5586,4.5586,4.5586,4.5586,4.5586,4.5586,4.5586,4.5586,4.5586,2.5914,2.6213,2.6477,2.6687,2.7687,2.8526,2.8721,2.9375,2.974,2.9376,2.9221,2.9192,2.9394,2.9431,2.9736,3.048,3.0125,2.9854,2.9854,2.9854,2.9719,2.9448,2.9702,2.9364,2.8298,2.9042,2.9279,2.9011,2.9567,2.9702,2.9431,2.9719,2.9854,2.9854,2.9854,3.0108,3.0548,3.0548,3.0784,3.1269,3.1967,3.2368,3.2583,3.3284,3.368,3.3807,3.3807,3.3495,3.3146,3.3642,3.3476,3.3164,3.3642,3.3807,3.3697,3.322,3.3073,3.3073,3.3073,3.3073,3.3073,3.3073,3.3209,3.3528,3.433,3.4634,3.468,3.4454,3.4827,3.5051,3.463,3.499,3.532,3.5273,3.4944,3.4694,3.4694,3.5052,3.551,3.6084,3.6348,3.6488,3.6477,3.8931,4.0302,3.9819,3.9129,3.8719,3.8687,3.8697,4.0185,4.3391,4.3523,4.3509,4.349,4.4054,4.4757,4.5595,4.5592,4.5586,4.5586,4.5586,4.5586,4.5586,4.5586,4.5586,4.5586,4.5586,4.559,4.5592,4.5589,4.559,4.5592,4.5589,4.5586,4.5586,2.6662,2.7156,2.7186,2.5989,2.7283,2.8046,2.6793,2.803,2.8936,2.8375,2.8715,2.9319,3.0125,3.0209,3.048,3.114,3.1258,3.1292,3.1292,3.136,3.1106,3.0429,3.1038,3.0768,2.9397,2.9989,2.9939,2.9178,3.0598,3.092,3.0226,3.0886,3.119,3.119,3.119,3.119,3.119,3.119,3.119,3.123,3.1748,3.2179,3.255,3.3075,3.3494,3.3807,3.3807,3.3807,3.3807,3.3807,3.3807,3.3807,3.3807,3.3807,3.3807,3.3807,3.3807,3.3807,3.3807,3.3844,3.3917,3.3917,3.3972,3.4034,3.4184,3.4274,3.4423,3.4745,3.4807,3.4906,3.5208,3.524,3.5288,3.5595,3.5262,3.4942,3.4845,3.4768,3.509,3.602,3.7347,3.8204,3.8228,3.9608,4.0001,3.8807,3.8701,3.8688,3.8707,3.8702,4.0174,4.3402,4.3508,4.3513,4.3513,4.4879,4.5602,4.5595,4.5592,4.5586,4.5586,4.5586,4.5586,4.5586,4.5586,4.5586,4.5586,4.5586,4.5573,4.5521,4.5573,4.5572,4.5559,4.5592,4.5587,4.5586,2.726,2.752,2.7535,2.72,2.7893,2.8418,2.8077,2.8373,2.8939,2.9723,2.9522,2.9714,3.0858,3.0954,3.1021,3.119,3.1715,3.2036,3.2036,3.2594,3.2848,3.2696,3.2848,3.278,3.2459,3.2036,3.1444,3.0717,3.1596,3.1664,3.097,3.1123,3.119,3.119,3.119,3.119,3.119,3.119,3.119,3.1269,3.2056,3.2417,3.2583,3.339,3.3734,3.3807,3.3807,3.3807,3.3807,3.3807,3.3807,3.3807,3.3807,3.3807,3.3807,3.3807,3.3807,3.3807,3.3807,3.4266,3.4734,3.4734,3.5257,3.5469,3.4444,3.474,3.532,3.5593,3.5635,3.5864,3.6526,3.6331,3.6213,3.6691,3.6882,3.6692,3.5903,3.6747,3.7528,3.7757,3.9076,3.995,3.9969,4.0292,3.9984,3.878,3.872,3.8707,3.8706,3.8707,4.016,4.341,4.3511,4.3513,4.349,4.49,4.5602,4.5595,4.5592,4.5586,4.5586,4.5586,4.5586,4.5586,4.5586,4.5586,4.5586,4.5586,4.5285,4.4868,4.5392,4.5428,4.5252,4.5507,4.5611,4.5586,2.755,2.7625,2.7625,2.7625,2.786,2.8091,2.8091,2.8334,2.8826,2.9761,2.9848,3.0297,3.1584,3.1393,3.1326,3.1681,3.207,3.2442,3.2797,3.3186,3.3406,3.3406,3.3406,3.3406,3.3406,3.3355,3.2797,3.1715,3.2087,3.2087,3.1715,3.1715,3.1901,3.2256,3.2256,3.2256,3.2239,3.1867,3.1918,3.2252,3.2209,3.2527,3.3046,3.34,3.3634,3.3807,3.3807,3.3807,3.3807,3.3807,3.3807,3.3807,3.3807,3.3807,3.3807,3.3807,3.4082,3.4376,3.4376,3.4981,3.5624,3.5624,3.5973,3.6121,3.5365,3.5547,3.5914,3.6075,3.6081,3.6261,3.6812,3.6697,3.6661,3.7201,3.7337,3.7223,3.6862,3.7376,3.7984,3.8536,3.9723,4.0489,4.0489,4.0502,4.0006,3.878,3.8707,3.8693,3.8693,4.0166,4.1769,4.345,4.3511,4.3489,4.3484,4.4889,4.5599,4.5591,4.559,4.5586,4.5586,4.5586,4.5586,4.5586,4.5586,4.5609,4.5572,4.5362,4.4786,4.4146,4.4838,4.4946,4.4751,4.5369,4.559,4.5586,2.7625,2.7625,2.7625,2.7625,2.7625,2.761,2.771,2.8189,2.8732,2.9451,2.9995,3.08,3.2148,3.185,3.1816,3.2408,3.2577,3.2933,3.3558,3.3711,3.3795,3.3795,3.3795,3.3795,3.3795,3.4387,3.3964,3.2476,3.2594,3.2594,3.2476,3.2476,3.2797,3.3406,3.3406,3.3339,3.3186,3.2679,3.272,3.308,3.2547,3.288,3.375,3.3749,3.3941,3.4229,3.4229,3.4137,3.4009,3.4009,3.3917,3.3825,3.3972,3.4009,3.4027,3.4174,3.4706,3.521,3.521,3.5862,3.6505,3.6505,3.6597,3.6707,3.6707,3.6597,3.6505,3.6505,3.6505,3.6609,3.6978,3.6972,3.7087,3.7675,3.7673,3.7732,3.806,3.7906,3.8115,3.9048,3.9967,4.0489,4.0489,4.0498,4.0095,3.9086,3.882,3.8952,3.9488,4.2051,4.3498,4.349,4.349,4.3497,4.3484,4.4884,4.5605,4.5586,4.5586,4.5586,4.5586,4.5586,4.5586,4.5586,4.5358,4.5304,4.5382,4.4954,4.4266,4.3558,4.4308,4.4421,4.4285,4.5176,4.5552,4.5586,2.7625,2.7625,2.7625,2.7625,2.7625,2.776,2.8286,2.8463,2.8919,3.0038,3.0251,3.08,3.2148,3.278,3.3152,3.3237,3.3829,3.4235,3.4336,3.4962,3.5318,3.5318,3.5318,3.5318,3.5318,3.5419,3.4742,3.3254,3.388,3.388,3.3254,3.3254,3.3305,3.3406,3.3406,3.3051,3.2459,3.3017,3.277,3.2167,3.374,3.4335,3.4398,3.5495,3.5926,3.5954,3.5954,3.5477,3.4825,3.4825,3.4394,3.3917,3.4633,3.4825,3.4972,3.5734,3.6046,3.6119,3.6119,3.6707,3.7331,3.7331,3.7845,3.8377,3.8377,3.7826,3.7331,3.7331,3.7331,3.7562,3.829,3.8044,3.7988,3.8763,3.9328,3.9776,4.0082,4.0091,4.0111,4.0265,4.0396,4.0489,4.0489,4.0499,4.0435,4.0273,3.9283,3.99,4.268,4.3266,4.349,4.3513,4.3513,4.3509,4.351,4.4915,4.5606,4.5586,4.5586,4.5586,4.5586,4.5586,4.5586,4.5528,4.4306,4.4162,4.4709,4.4416,4.3979,4.3576,4.433,4.4356,4.4125,4.4887,4.5361,4.5586,2.7625,2.7625,2.7625,2.7625,2.786,2.8311,2.9007,2.939,3.008,3.1358,3.1556,3.2054,3.3381,3.3812,3.4015,3.4015,3.4303,3.4675,3.5098,3.5436,3.5622,3.5622,3.5622,3.5622,3.5622,3.5622,3.5301,3.4641,3.4539,3.432,3.4015,3.4015,3.4235,3.4641,3.4641,3.4455,3.4134,3.4049,3.399,3.399,3.4546,3.4959,3.5254,3.5472,3.5587,3.5514,3.5055,3.5257,3.5661,3.5155,3.5092,3.5257,3.5624,3.5734,3.5807,3.6193,3.6615,3.6964,3.6964,3.7551,3.8267,3.8726,3.9111,3.9496,3.9955,3.9772,3.9258,3.8358,3.8175,3.8267,3.8634,3.8527,3.8497,3.9016,3.9339,3.9637,3.9949,4.0291,4.0492,4.0508,4.0489,4.0489,4.0489,4.049,4.0501,4.05,4.1048,4.2006,4.3428,4.3505,4.3508,4.3479,4.3508,4.3866,4.4681,4.5285,4.5609,4.5586,4.5592,4.5592,4.5586,4.5586,4.5399,4.5015,4.4489,4.4166,4.4003,4.4074,4.3849,4.3527,4.3855,4.4153,4.4373,4.4707,4.514,4.5586]},{"header":{"parameterUnit":"m.s-1","parameterCategory":1,"la1":30.6,"la2":28.766,"lo1":-90.7593,"lo2":-88.6598,"dy":0.0162,"dx":0.0183,"nx":116,"ny":114,"refTime":"2023-11-17T06:00:00:Z","depth":0,"parameterNumber":3,"parameterNumberName":"V-component_of_WINDS"},"data":[0.0,0.0,0.0,0.0,0.0,0.0,0.0,0.0,0.0,0.0,0.0,0.0,0.0,0.0,0.0,0.0,0.0,0.0,0.0,0.0,0.0,0.0,0.0,0.0,0.0,0.0,0.0,0.0,0.0,0.0,0.0,0.0,0.0,0.0,0.0,0.0,0.0,0.0,0.0,0.0,0.0,0.0,0.0,0.0,0.0,0.0,0.0,0.0,0.0,0.0,0.0,0.0,0.0,0.0,0.0,0.0,0.0,0.0,0.0,0.0,0.0,0.0,0.0,0.0,0.0,0.0,0.0,0.0,0.0,0.0,0.0,0.0,0.0,0.0,0.0,0.0,0.0,0.0,0.0,0.0,0.0,0.0,0.0,0.0,0.0,0.0,0.0,0.0,0.0,0.0,0.0,0.0,0.0,0.0,0.0,0.0,0.0,0.0,0.0,0.0,0.0,0.0,0.0,0.0,0.0,0.0,0.0,0.0,0.0,0.0,0.0,0.0,0.0,0.0,0.0,0.0,0.0,0.0,0.0,0.0,0.0,0.0,0.0,0.0,0.0,0.0,0.0,0.0,0.0,0.0,0.0,0.0,0.0,0.0,0.0,0.0,0.0,0.0,0.0,0.0,0.0,0.0,0.0,0.0,0.0,0.0,0.0,0.0,0.0,0.0,0.0,0.0,0.0,0.0,0.0,0.0,0.0,0.0,0.0,0.0,0.0,0.0,0.0,0.0,0.0,0.0,0.0,0.0,0.0,0.0,0.0,0.0,0.0,0.0,0.0,0.0,0.0,0.0,0.0,0.0,0.0,0.0,0.0,0.0,0.0,0.0,0.0,0.0,0.0,0.0,0.0,0.0,0.0,0.0,0.0,0.0,0.0,0.0,0.0,0.0,0.0,0.0,0.0,0.0,0.0,0.0,0.0,0.0,0.0,0.0,0.0,0.0,0.0,0.0,0.0,0.0,0.0,0.0,0.0,0.0,0.0,0.0,0.0,0.0,0.0,0.0,0.0,0.0,0.0,0.0,0.0,0.0,0.0,0.0,0.0,0.0,0.0,0.0,0.0,0.0,0.0,0.0,0.0,0.0,0.0,0.0,0.0,0.0,0.0,0.0,0.0,0.0,0.0,0.0,0.0,0.0,0.0,0.0,0.0,0.0,0.0,0.0,0.0,0.0,0.0,0.0,0.0,0.0,0.0,0.0,0.0,0.0,0.0,0.0,0.0,0.0,0.0,0.0,0.0,0.0,0.0,0.0,0.0,0.0,0.0,0.0,0.0,0.0,0.0,0.0,0.0,0.0,0.0,0.0,0.0,0.0,0.0,0.0,0.0,0.0,0.0,0.0,0.0,0.0,0.0,0.0,0.0,0.0,0.0,0.0,0.0,0.0,0.0,0.0,0.0,0.0,0.0,0.0,0.0,0.0,0.0,0.0,0.0,0.0,0.0,0.0,0.0,0.0,0.0,0.0,0.0,0.0,0.0,0.0,0.0,0.0,0.0,0.0,0.0,0.0,0.0,0.0,0.0,0.0,0.0,0.0,0.0,0.0,0.0,0.0,0.0,0.0,0.0,0.0,0.0,0.0,0.0,0.0,0.0,0.0,0.0,0.0,0.0,0.0,0.0,0.0,0.0,0.0,0.0,0.0,0.0,0.0,0.0,0.0,0.0,0.0,0.0,0.0,0.0,0.0,0.0,0.0,0.0,0.0,0.0,0.0,0.0,0.0,0.0,0.0,0.0,0.0,0.0,0.0,0.0,0.0,0.0,0.0,0.0,0.0,0.0,0.0,0.0,0.0,0.0,0.0,0.0,0.0,0.0,0.0,0.0,0.0,0.0,0.0,0.0,0.0,0.0,0.0,0.0,0.0,0.0,0.0,0.0,0.0,0.0,0.0,0.0,0.0,0.0,0.0,0.0,0.0,0.0,0.0,0.0,0.0,0.0,0.0,0.0,0.0,0.0,0.0,0.0,0.0,0.0,0.0,0.0,0.0,0.0,0.0,0.0,0.0,0.0,0.0,0.0,0.0,0.0,0.0,0.0,0.0,0.0,0.0,0.0,0.0,0.0,0.0,0.0,0.0,0.0,0.0,0.0,0.0,0.0,0.0,0.0,0.0,0.0,0.0,0.0,0.0,0.0,0.0,0.0,0.0,0.0,0.0,0.0,0.0,0.0,0.0,0.0,0.0,0.0,0.0,0.0,0.0,0.0,0.0,0.0,0.0,0.0,0.0,0.0,0.0,0.0,0.0,0.0,0.0,0.0,0.0,0.0,0.0,0.0,0.0,0.0,0.0,0.0,0.0,0.0,0.0,0.0,0.0,0.0,0.0,0.0,0.0,0.0,0.0,0.0,0.0,0.0,0.0,0.0,0.0,0.0,0.0,0.0,0.0,0.0,0.0,0.0,0.0,0.0,0.0,0.0,0.0,0.0,0.0,0.0,0.0,0.0,0.0,0.0,0.0,0.0,0.0,0.0,0.0,0.0,0.0,0.0,0.0,0.0,0.0,0.0,0.0,0.0,0.0,0.0,0.0,0.0,0.0,0.0,0.0,0.0,0.0,0.0,0.0,0.0,0.0,0.0,0.0,0.0,0.0,0.0,0.0,0.0,0.0,0.0,0.0,0.0,0.0,0.0,0.0,0.0,0.0,0.0,0.0,0.0,0.0,0.0,0.0,0.0,0.0,0.0,0.0,0.0,0.0,0.0,0.0,0.0,0.0,0.0,0.0,0.0,0.0,0.0,0.0,0.0,0.0,0.0,0.0,0.0,0.0,0.0,0.0,0.0,0.0,0.0,0.0,0.0,0.0,0.0,0.0,0.0,0.0,0.0,0.0,0.0,0.0,0.0,0.0,0.0,0.0,0.0,0.0,0.0,0.0,0.0,0.0,0.0,0.0,0.0,0.0,0.0,0.0,0.0,0.0,0.0,0.0,0.0,0.0,0.0,0.0,0.0,0.0,0.0,0.0,0.0,0.0,0.0,0.0,0.0,0.0,0.0,0.0,0.0,0.0,0.0,0.0,0.0,0.0,0.0,0.0,0.0,0.0,0.0,0.0,0.0,0.0,0.0,0.0,0.0,0.0,0.0,0.0,0.0,0.0,0.0,0.0,0.0,0.0,0.0,0.0,0.0,0.0,0.0,0.0,0.0,0.0,0.0,0.0,0.0,0.0,0.0,0.0,0.0,0.0,0.0,0.0,0.0,0.0,0.0,0.0,0.0,0.0,0.0,0.0,0.0,0.0,0.0,0.0,0.0,0.0,0.0,0.0,0.0,0.0,0.0,0.0,0.0,0.0,0.0,0.0,0.0,0.0,0.0,0.0,0.0,0.0,0.0,0.0,0.0,0.0,0.0,0.0,0.0,0.0,0.0,0.0,0.0,0.0,0.0,0.0,0.0,0.0,0.0,0.0,0.0,0.0,0.0,0.0,0.0,0.0,0.0,0.0,0.0,0.0,0.0,0.0,0.0,0.0,0.0,0.0,0.0,0.0,0.0,0.0,0.0,0.0,0.0,0.0,0.0,0.0,0.0,0.0,0.0,0.0,0.0,0.0,0.0,0.0,0.0,0.0,0.0,0.0,0.0,0.0,0.0,0.0,0.0,0.0,0.0,0.0,0.0,0.0,0.0,0.0,0.0,0.0,0.0,0.0,0.0,0.0,0.0,0.0,0.0,0.0,0.0,0.0,0.0,0.0,0.0,0.0,0.0,0.0,0.0,0.0,0.0,0.0,0.0,0.0,0.0,0.0,0.0,0.0,0.0,0.0,0.0,0.0,0.0,0.0,0.0,0.0,0.0,0.0,0.0,0.0,0.0,0.0,0.0,0.0,0.0,0.0,0.0,0.0,0.0,0.0,0.0,0.0,0.0,0.0,0.0,0.0,0.0,0.0,0.0,0.0,0.0,0.0,0.0,0.0,0.0,0.0,0.0,0.0,0.0,0.0,0.0,0.0,0.0,0.0,0.0,0.0,0.0,0.0,0.0,0.0,0.0,0.0,0.0,0.0,0.0,0.0,0.0,0.0,0.0,0.0,0.0,0.0,0.0,0.0,0.0,0.0,0.0,0.0,0.0,0.0,0.0,0.0,0.0,0.0,0.0,0.0,0.0,0.0,0.0,0.0,0.0,0.0,0.0,0.0,0.0,0.0,0.0,0.0,0.0,0.0,0.0,0.0,0.0,0.0,0.0,0.0,0.0,0.0,0.0,0.0,0.0,0.0,0.0,0.0,0.0,0.0,0.0,0.0,0.0,0.0,0.0,0.0,0.0,0.0,0.0,0.0,0.0,0.0,0.0,0.0,0.0,0.0,0.0,0.0,0.0,0.0,0.0,0.0,0.0,0.0,0.0,0.0,0.0,0.0,0.0,0.0,0.0,0.0,0.0,0.0,0.0,0.0,0.0,0.0,0.0,0.0,0.0,0.0,0.0,0.0,0.0,0.0,0.0,0.0,0.0,0.0,0.0,0.0,0.0,0.0,0.0,0.0,0.0,0.0,0.0,0.0,0.0,0.0,0.0,0.0,0.0,0.0,0.0,0.0,0.0,0.0,0.0,0.0,0.0,0.0,0.0,0.0,0.0,0.0,0.0,0.0,0.0,0.0,0.0,0.0,0.0,0.0,0.0,0.0,0.0,0.0,0.0,0.0,0.0,0.0,0.0,0.0,0.0,0.0,0.0,0.0,0.0,0.0,0.0,0.0,0.0,0.0,0.0,0.0,0.0,0.0,0.0,0.0,0.0,0.0,0.0,0.0,0.0,0.0,0.0,0.0,0.0,0.0,0.0,0.0,0.0,0.0,0.0,0.0,0.0,0.0,0.0,0.0,0.0,0.0,0.0,0.0,0.0,0.0,0.0,0.0,0.0,0.0,0.0,0.0,0.0,0.0,0.0,0.0,0.0,0.0,0.0,0.0,0.0,0.0,0.0,0.0,0.0,0.0,0.0,0.0,0.0,0.0,0.0,0.0,0.0,0.0,0.0,0.0,0.0,0.0,0.0,0.0,0.0,0.0,0.0,0.0,0.0,0.0,0.0,0.0,0.0,0.0,0.0,0.0,0.0,0.0,0.0,0.0,0.0,0.0,0.0,0.0,0.0,0.0,0.0,0.0,0.0,0.0,0.0,0.0,0.0,0.0,0.0,0.0,0.0,0.0,0.0,0.0,0.0,0.0,0.0,0.0,0.0,0.0,0.0,0.0,0.0,0.0,0.0,0.0,0.0,0.0,0.0,0.0,0.0,0.0,0.0,0.0,0.0,0.0,0.0,0.0,0.0,0.0,0.0,0.0,0.0,0.0,0.0,0.0,0.0,0.0,0.0,0.0,0.0,0.0,0.0,0.0,0.0,0.0,0.0,0.0,0.0,0.0,0.0,0.0,0.0,0.0,0.0,0.0,0.0,0.0,0.0,0.0,0.0,0.0,0.0,0.0,0.0,0.0,0.0,0.0,0.0,0.0,0.0,0.0,0.0,0.0,0.0,0.0,0.0,0.0,0.0,0.0,0.0,0.0,0.0,0.0,0.0,0.0,0.0,0.0,0.0,0.0,0.0,0.0,0.0,0.0,0.0,0.0,0.0,0.0,0.0,0.0,0.0,0.0,0.0,0.0,0.0,0.0,0.0,0.0,0.0,0.0,0.0,0.0,0.0,0.0,0.0,0.0,0.0,0.0,0.0,0.0,0.0,0.0,0.0,0.0,0.0,0.0,0.0,0.0,0.0,0.0,0.0,0.0,0.0,0.0,0.0,0.0,0.0,0.0,0.0,0.0,0.0,0.0,0.0,0.0,0.0,0.0,0.0,0.0,0.0,0.0,0.0,0.0,0.0,0.0,0.0,0.0,0.0,0.0,0.0,0.0,0.0,0.0,0.0,0.0,0.0,0.0,0.0,0.0,0.0,0.0,0.0,0.0,0.0,0.0,0.0,0.0,0.0,0.0,0.0,0.0,0.0,0.0,0.0,0.0,0.0,0.0,0.0,0.0,0.0,0.0,0.0,0.0,0.0,0.0,0.0,0.0,0.0,0.0,0.0,0.0,0.0,0.0,0.0,0.0,0.0,0.0,0.0,0.0,0.0,0.0,0.0,0.0,0.0,0.0,0.0,0.0,0.0,0.0,0.0,0.0,0.0,0.0,-2.8996,0.0,0.0,0.0,0.0,0.0,0.0,0.0,0.0,0.0,0.0,0.0,0.0,0.0,0.0,0.0,0.0,0.0,0.0,0.0,0.0,0.0,0.0,0.0,0.0,0.0,0.0,0.0,0.0,0.0,0.0,0.0,0.0,0.0,0.0,0.0,0.0,0.0,0.0,-2.1474,-2.3169,-2.4315,-2.4928,-2.4647,-2.4503,-2.4465,0.0,0.0,0.0,0.0,0.0,0.0,0.0,0.0,0.0,0.0,0.0,0.0,0.0,0.0,0.0,0.0,0.0,0.0,0.0,0.0,0.0,0.0,0.0,0.0,0.0,0.0,0.0,0.0,0.0,0.0,0.0,0.0,0.0,0.0,0.0,0.0,0.0,0.0,0.0,0.0,0.0,0.0,0.0,0.0,0.0,0.0,0.0,0.0,0.0,0.0,0.0,0.0,0.0,0.0,0.0,0.0,0.0,0.0,0.0,0.0,0.0,0.0,0.0,0.0,0.0,0.0,0.0,0.0,0.0,0.0,0.0,-3.0564,0.0,0.0,0.0,0.0,0.0,0.0,0.0,0.0,0.0,0.0,0.0,0.0,0.0,0.0,0.0,0.0,0.0,0.0,0.0,0.0,0.0,0.0,0.0,-1.9201,-1.9884,-2.1507,-2.0931,-2.0414,-2.0287,0.0,0.0,0.0,0.0,0.0,-1.7999,-1.9768,-2.1244,-2.2469,-2.3676,-2.467,-2.5405,-2.5224,-2.5233,-2.5382,-2.489,0.0,0.0,0.0,0.0,0.0,0.0,0.0,0.0,0.0,0.0,0.0,0.0,0.0,0.0,0.0,0.0,0.0,0.0,0.0,0.0,0.0,0.0,0.0,0.0,0.0,0.0,0.0,0.0,0.0,0.0,0.0,0.0,0.0,0.0,0.0,0.0,0.0,0.0,0.0,0.0,0.0,0.0,0.0,0.0,0.0,0.0,0.0,0.0,0.0,0.0,0.0,0.0,0.0,0.0,0.0,0.0,0.0,0.0,0.0,0.0,0.0,0.0,0.0,-2.911,-3.0499,-3.2126,-3.3458,-3.4154,-3.432,-3.3337,-3.3353,-3.4072,0.0,0.0,0.0,0.0,0.0,0.0,0.0,0.0,0.0,0.0,0.0,0.0,0.0,0.0,0.0,0.0,0.0,0.0,0.0,0.0,-1.6119,-1.8481,-1.7957,-1.8616,-2.1535,-2.0895,-2.0661,-2.1452,0.0,0.0,0.0,0.0,-2.1327,-2.0459,-2.2034,-2.3093,-2.3499,-2.4715,-2.5213,-2.5059,-2.5272,-2.5803,-2.6547,-2.5732,-2.5735,-2.6322,0.0,0.0,0.0,0.0,0.0,0.0,0.0,0.0,0.0,0.0,0.0,0.0,0.0,0.0,0.0,0.0,0.0,0.0,0.0,0.0,0.0,0.0,0.0,0.0,0.0,0.0,0.0,0.0,0.0,0.0,0.0,0.0,0.0,0.0,0.0,0.0,0.0,0.0,0.0,0.0,0.0,-2.0483,-2.0851,0.0,0.0,0.0,0.0,0.0,0.0,0.0,0.0,0.0,0.0,0.0,0.0,0.0,0.0,-2.4301,-2.6777,-2.8203,-2.8521,-3.0958,-3.2099,-3.2181,-3.3835,-3.5234,-3.6311,-3.5936,0.0,-3.4836,-3.4573,0.0,0.0,0.0,0.0,0.0,0.0,0.0,0.0,0.0,0.0,0.0,0.0,0.0,0.0,0.0,0.0,0.0,0.0,0.0,0.0,0.0,-1.7633,-2.0036,-1.9484,-2.1408,-2.274,-2.2933,-2.2763,0.0,0.0,-2.1627,-2.161,-2.125,-2.2489,-2.3606,-2.4529,-2.5065,-2.5302,-2.5286,-2.5256,-2.5505,-2.6006,-2.6126,-2.6692,-2.75,-2.6476,0.0,0.0,0.0,0.0,0.0,0.0,0.0,0.0,0.0,0.0,0.0,0.0,0.0,0.0,0.0,0.0,0.0,0.0,0.0,0.0,0.0,0.0,0.0,0.0,0.0,0.0,0.0,0.0,0.0,0.0,0.0,0.0,0.0,0.0,0.0,0.0,0.0,0.0,0.0,-1.7929,-1.7336,-1.8328,-1.8508,-2.0035,0.0,0.0,0.0,0.0,0.0,0.0,0.0,0.0,0.0,-1.8998,-2.1506,-2.3499,-2.4859,-2.6597,-2.7966,-2.9114,-3.0943,-3.2097,-3.266,-3.4358,-3.5473,-3.6046,-3.6388,-3.6401,-3.6225,-3.6546,-3.6571,-3.6305,0.0,0.0,0.0,0.0,0.0,-3.3839,0.0,0.0,0.0,0.0,0.0,0.0,0.0,0.0,0.0,0.0,0.0,0.0,-0.8602,-1.4704,-1.911,-1.9509,-2.2274,-2.4034,-2.4172,-2.3633,-2.2911,-2.2048,-2.1975,-2.1877,-2.167,-2.2659,-2.3831,-2.5176,-2.5172,-2.5251,-2.5367,-2.5167,-2.5244,-2.561,-2.6315,-2.7212,-2.8144,-2.7427,-2.7016,-2.6776,0.0,0.0,0.0,0.0,0.0,0.0,0.0,0.0,0.0,0.0,0.0,0.0,0.0,0.0,0.0,0.0,0.0,0.0,0.0,0.0,0.0,0.0,0.0,0.0,0.0,0.0,0.0,0.0,0.0,0.0,0.0,0.0,0.0,0.0,0.0,0.0,0.0,-1.4378,-1.3821,-1.5163,-1.6007,-1.7909,0.0,0.0,0.0,0.0,0.0,0.0,-1.7399,-1.7605,-1.8167,-1.9152,-2.1801,-2.4081,-2.5743,-2.6934,-2.821,-2.9619,-3.0803,-3.1775,-3.2625,-3.397,-3.4711,-3.5002,-3.5521,-3.604,-3.662,-3.7452,-3.7786,-3.767,-3.6815,-3.6154,-3.5743,-3.6301,-3.5685,-3.4849,0.0,0.0,0.0,0.0,0.0,0.0,0.0,0.0,0.0,0.0,0.0,-0.1156,-0.4254,-0.7065,-1.3084,-2.3881,-2.3462,-2.3273,-2.4838,-2.472,-2.4342,-2.3715,-2.3743,-2.3249,-2.2102,-2.3112,-2.4152,-2.5117,-2.5117,-2.5077,-2.5018,-2.5013,-2.5389,-2.6071,-2.6311,-2.6971,-2.793,-2.7929,-2.7905,-2.774,-2.667,0.0,0.0,0.0,0.0,0.0,0.0,0.0,0.0,0.0,0.0,0.0,0.0,0.0,0.0,0.0,0.0,0.0,0.0,0.0,0.0,0.0,0.0,0.0,0.0,0.0,0.0,0.0,0.0,0.0,0.0,0.0,0.0,0.0,0.0,0.0,0.0,0.0,0.0,-1.0634,-1.3523,0.0,0.0,0.0,0.0,-2.0053,-1.7446,-1.676,-1.8865,-1.8358,-1.9246,-2.2026,-2.3975,-2.5775,-2.7389,-2.932,-3.0161,-2.9896,-3.1149,-3.1647,-3.1394,-3.1859,-3.2611,-3.3497,-3.3268,-3.3931,-3.5158,-3.6039,-3.6543,-3.6692,-3.5952,-3.5641,-3.5609,-3.5661,-3.5441,-3.5162,0.0,0.0,0.0,0.0,0.0,0.0,0.0,0.0,-0.2707,0.4734,0.7166,0.7815,0.6869,-0.0291,-0.7375,-1.3245,-1.8359,-2.172,-2.2815,-2.37,-2.379,-2.2862,-2.3517,-2.3642,-2.3089,-2.3612,-2.4079,-2.4454,-2.4414,-2.4585,-2.4936,-2.4716,-2.486,-2.5293,-2.5868,-2.6332,-2.6732,-2.7488,-2.8085,-2.8418,-2.7045,-2.6352,0.0,0.0,0.0,0.0,0.0,0.0,0.0,0.0,0.0,0.0,0.0,0.0,0.0,0.0,0.0,0.0,0.0,0.0,0.0,0.0,0.0,0.0,0.0,0.0,0.0,0.0,0.0,0.0,0.0,0.0,0.0,0.0,0.0,0.0,0.0,0.0,0.0,-0.7992,-1.0455,0.0,-1.7907,-1.8314,-1.8596,-1.9216,-1.8636,-1.8371,-1.8703,-1.9895,-2.1095,-2.2273,-2.4194,-2.5712,-2.6781,-2.8086,-2.8812,-2.9074,-3.0213,-3.0893,-3.1177,-3.1765,-3.2214,-3.2586,-3.2683,-3.2997,-3.3504,-3.4068,-3.4955,-3.5945,-3.621,-3.5984,-3.56,-3.6125,-3.5957,-3.5446,0.0,0.0,0.0,0.0,0.0,0.0,0.0,-0.4029,0.1274,0.9488,1.2922,1.4834,1.5521,0.6472,-0.1663,-0.6528,-1.4251,-1.9295,-2.0413,-2.149,-2.2005,-2.1893,-2.2653,-2.2858,-2.2323,-2.2441,-2.2539,-2.2647,-2.2759,-2.2975,-2.328,-2.3222,-2.3437,-2.3913,-2.4509,-2.5038,-2.5509,-2.6465,-2.7496,-2.8399,-2.7648,-2.7083,-2.665,0.0,0.0,0.0,0.0,0.0,0.0,0.0,0.0,0.0,0.0,0.0,0.0,0.0,0.0,0.0,0.0,0.0,0.0,0.0,0.0,0.0,0.0,0.0,0.0,0.0,0.0,0.0,0.0,0.0,0.0,0.0,0.0,0.0,0.0,0.0,-0.4318,-0.6536,-0.904,-1.1948,-1.554,-1.6827,-1.7656,-1.8262,-1.8682,-1.8805,-1.8706,-2.0409,-2.1758,-2.2565,-2.3722,-2.4927,-2.6047,-2.703,-2.766,-2.7908,-2.9223,-2.9828,-2.983,-3.0281,-3.0529,-3.0605,-3.0825,-3.0951,-3.1068,-3.1373,-3.2064,-3.3134,-3.4802,-3.5143,-3.4725,-3.5226,-3.5104,-3.4699,0.0,0.0,0.0,0.0,0.0,0.0,-0.7061,-0.0408,0.6248,1.2108,1.6528,1.9538,2.0655,1.2942,0.3993,-0.5144,-1.1631,-1.5986,-1.7838,-1.8285,-1.9165,-2.0719,-2.1122,-2.0801,-1.9772,-1.9508,-1.9508,-1.9727,-2.0182,-2.0274,-2.0052,-2.0508,-2.1188,-2.2023,-2.2265,-2.3066,-2.4343,-2.4986,-2.612,-2.7585,-2.8406,-2.7945,-2.6843,0.0,0.0,0.0,0.0,0.0,0.0,0.0,0.0,0.0,0.0,0.0,0.0,0.0,0.0,0.0,0.0,0.0,0.0,0.0,0.0,0.0,0.0,0.0,0.0,0.0,0.0,0.0,0.0,0.0,0.0,0.0,0.0,0.0,-0.3531,-0.333,-0.3813,-0.6242,-0.936,-1.2004,-1.3858,-1.5281,-1.6397,-1.7096,-1.7225,-1.7817,-1.9057,-1.9836,-2.1114,-2.3069,-2.2743,-2.3473,-2.5308,-2.6551,-2.6947,-2.6534,-2.8227,-2.8423,-2.7305,-2.7305,-2.7404,-2.7597,-2.7604,-2.7746,-2.8009,-2.8068,-2.8049,-2.831,-3.1626,-3.2913,-3.2902,-3.2883,-3.2851,-3.2832,0.0,0.0,0.0,0.0,0.0,0.0,-0.374,0.1626,0.7318,1.3699,1.7541,1.9201,1.799,1.2638,0.6209,-0.1104,-0.7473,-1.2052,-1.4451,-1.6958,-1.7023,-1.3993,-1.5551,-1.7201,-1.8747,-1.7536,-1.7283,-1.8057,-1.7996,-1.8171,-1.8594,-1.9169,-1.9647,-2.0119,-2.0977,-2.1744,-2.2449,-2.3685,-2.4739,-2.5679,-2.7083,-2.79,-2.8245,0.0,0.0,0.0,0.0,0.0,0.0,0.0,0.0,0.0,0.0,0.0,0.0,0.0,0.0,0.0,0.0,0.0,0.0,0.0,0.0,0.0,0.0,0.0,0.0,0.0,0.0,0.0,0.0,0.0,0.0,0.0,0.0,0.1531,0.0805,-0.1401,-0.3572,-0.5444,-0.8285,-1.0817,-1.2664,-1.4414,-1.5763,-1.6655,-1.7856,-1.8908,-1.9732,-2.0946,-2.1552,-2.1338,-2.3086,-2.3957,-2.3803,-2.5818,-2.6767,-2.6638,-2.7388,-2.7558,-2.7233,-2.7435,-2.7478,-2.7382,-2.7597,-2.7709,-2.7798,-2.7851,-2.7861,-2.8069,-3.0307,-3.1154,-3.1198,-3.1791,-3.1666,-3.1086,0.0,0.0,0.0,0.0,0.0,0.0,-0.2722,0.2535,0.7904,1.3594,1.7151,1.8319,1.6085,1.2542,0.7787,0.1451,-0.4445,-0.884,-1.1277,-1.1327,-1.0153,-0.7638,-0.8619,-1.0483,-1.3124,-1.3937,-1.4319,-1.4364,-1.4841,-1.5339,-1.585,-1.6593,-1.7407,-1.8206,-1.8858,-1.9704,-2.0741,-2.1702,-2.2816,-2.4042,-2.5276,-2.6467,-2.7487,-2.7572,-2.7539,-2.7514,-2.7998,-2.8203,-2.8184,-2.7715,0.0,0.0,0.0,0.0,0.0,0.0,0.0,0.0,0.0,0.0,0.0,0.0,0.0,0.0,0.0,0.0,0.0,0.0,0.0,0.0,0.0,0.0,0.0,0.0,0.3549,0.2943,0.3045,0.0,-0.2976,-0.4964,-0.7196,-0.9449,-1.153,-1.322,-1.4742,-1.6148,-1.7622,-1.8914,-1.9968,-2.122,-2.1666,-2.1144,-2.2542,-2.3122,-2.2743,-2.4332,-2.5213,-2.5364,-2.5837,-2.5976,-2.5817,-2.5986,-2.5996,0.0,-2.6033,-2.6188,-2.6314,-2.6401,-2.6406,0.0,0.0,0.0,0.0,0.0,-2.9653,-2.9142,0.0,0.0,0.0,0.0,0.0,0.0,-0.2854,0.2848,0.8156,1.2493,1.592,1.7023,1.4569,1.2316,0.8689,0.2924,-0.2195,-0.5874,-0.7664,-0.3571,-0.1163,-0.1387,-0.1459,-0.2856,-0.5752,-0.9438,-1.0885,-0.9913,-1.1326,-1.2212,-1.2518,-1.3585,-1.4843,-1.6196,-1.6333,-1.7364,-1.9061,-1.9409,-2.0661,-2.2377,-2.3163,-2.4296,-2.5681,-2.6983,-2.7089,-2.6655,-2.7658,-2.8075,-2.816,-2.822,0.0,0.0,0.0,0.0,0.0,0.0,0.0,0.0,0.0,0.0,0.0,0.0,0.0,0.0,0.0,0.0,0.0,0.0,0.0,0.0,0.0,0.0,0.0,0.0,0.4374,0.3693,0.3985,0.1096,-0.1906,-0.4388,-0.6147,-0.8074,-1.0513,-1.2164,-1.3936,-1.615,-1.7225,-1.85,-2.0125,0.0,0.0,0.0,0.0,-2.1471,-2.1741,-2.2416,-2.2929,-2.3218,-2.3794,-2.3871,-2.352,-2.3524,-2.3522,-2.3512,-2.3596,-2.3804,-2.4058,-2.4188,-2.4222,-2.4357,-2.658,-2.7381,-2.7298,-2.7493,-2.7468,0.0,0.0,0.0,0.0,0.0,0.0,0.0,-0.1352,0.3951,0.8668,1.2446,1.4945,1.5389,1.2872,1.0854,0.7921,0.3548,0.0085,-0.183,-0.1726,0.0347,0.2923,0.5957,0.2347,-0.1294,-0.4562,-0.5916,-0.7322,-0.8716,-0.9506,-1.0176,-1.0712,-1.2115,-1.3141,-1.3799,-1.4688,-1.5693,-1.6808,-1.7825,-1.8964,-2.0131,-2.0946,-2.309,-2.5814,-2.6451,-2.691,-2.7245,-2.7457,-2.7675,-2.7888,-2.7896,-2.7999,-2.814,-2.8121,-2.8003,0.0,0.0,0.0,0.0,0.0,0.0,0.0,0.0,0.0,0.0,0.0,0.0,0.0,0.0,0.0,0.0,0.0,0.0,0.0,0.6746,0.5678,0.4919,0.5274,0.2599,0.0,-0.1684,-0.4848,-0.7824,-1.0178,-1.2567,-1.5286,-1.8543,-1.8919,-1.953,-2.0825,-2.061,0.0,-1.8779,-1.9912,-2.0185,-1.9444,-2.0728,-2.1417,-2.1475,0.0,0.0,-2.1237,-2.1248,-2.1173,-2.1101,-2.1667,-2.1927,-2.201,-2.2465,-2.2647,-2.2858,-2.5057,-2.6168,-2.658,-2.7151,-2.7161,-2.6851,0.0,0.0,0.0,0.0,0.0,0.0,-0.0528,0.4194,0.8246,1.1534,1.3209,1.3133,1.0582,0.8983,0.6736,0.3337,0.1535,0.0994,0.1988,0.4657,0.6797,0.8108,0.5273,0.234,-0.0648,-0.2725,-0.4503,-0.6004,-0.7452,-0.8567,-0.9385,-1.0706,-1.1721,-1.2484,-1.3009,-1.4105,-1.5529,-1.6136,-1.7323,-1.8804,-1.9463,-2.1027,-2.302,-2.423,-2.5239,-2.6046,-2.6432,-2.7001,-2.7599,-2.7635,-2.7778,-2.7945,-2.7945,-2.7711,-2.7372,0.0,0.0,0.0,0.0,0.0,0.0,0.0,0.0,0.0,0.0,0.0,0.0,0.0,0.0,0.2883,0.0,0.0,0.7116,0.8365,0.7023,0.6275,0.7574,0.5696,0.3139,0.0338,-0.3275,-0.6219,-0.7895,-1.2412,-1.5243,-1.5219,-1.6664,-1.7538,-1.7493,-1.7752,-1.7648,-1.7068,-1.7618,-1.7591,-1.6867,-1.7563,-1.8055,-1.8267,-1.8229,-1.8375,-1.8616,-1.8934,-1.9045,-1.9036,-1.9665,-2.002,-2.0254,-2.0809,-2.1035,-2.1151,-2.2268,-2.3424,-2.4499,-2.4935,-2.5059,-2.4953,0.0,0.0,0.0,0.0,0.0,0.0,-0.0282,0.4426,0.8117,1.0381,1.1464,1.1127,0.8847,0.7484,0.574,0.3318,0.3107,0.3744,0.5184,0.815,0.9297,0.8034,0.7046,0.5302,0.2642,-0.0473,-0.2565,-0.3619,-0.578,-0.7312,-0.8222,-0.9391,-1.0484,-1.1494,-1.1494,-1.2579,-1.4438,-1.4538,-1.5672,-1.7477,-1.8085,-1.8775,-1.9647,-2.1428,-2.2919,-2.4168,-2.4837,-2.564,-2.644,-2.685,-2.7053,-2.7192,-2.7503,-2.7232,-2.6811,-2.6699,-2.6169,0.0,0.0,0.0,0.0,0.0,0.0,0.0,0.0,-0.6848,-0.3682,-0.0388,0.2832,0.5538,0.7246,0.7835,0.8579,1.0178,0.8883,0.8257,1.0069,0.854,0.6005,0.2623,-0.0685,-0.3246,-0.4594,-1.0593,-1.3505,-1.131,-1.3329,-1.4366,-1.3701,-1.4441,-1.4919,-1.4932,-1.4716,-1.4376,-1.4013,-1.4029,-1.4218,-1.4528,-1.4903,-1.5248,-1.5649,-1.6344,-1.6664,-1.6704,-1.7404,-1.8003,-1.852,-1.8995,-1.9196,-1.9201,-1.9201,-2.0199,-2.1733,-2.2241,-2.2476,-2.2563,0.0,0.0,0.0,0.0,0.0,0.0,0.0,0.0,0.9815,0.9619,1.0397,1.0459,0.9178,0.732,0.5723,0.4559,0.5717,0.7306,0.9297,0.9056,0.8506,0.7688,0.6538,0.4478,0.1475,-0.0402,-0.2053,-0.3595,-0.5348,-0.6536,-0.7176,-0.8317,-0.9412,-1.0369,-1.0387,-1.1234,-1.2698,-1.3179,-1.4017,-1.5167,-1.6245,-1.6995,-1.7633,-1.8819,-2.0472,-2.2279,-2.2773,-2.2884,-2.3007,-2.4577,-2.4967,-2.5035,-2.6448,-2.6908,-2.6797,-2.6314,-2.6274,-2.6217,-2.5447,-2.4146,-2.2253,-1.9279,-1.6162,-1.2591,0.0,-0.3374,0.0613,0.3842,0.6713,0.9181,1.1035,1.1436,1.1736,1.2594,1.1988,1.1597,1.2104,0.9234,0.686,0.6384,0.4352,0.1983,-0.0581,-0.4981,-0.8899,-1.1843,-1.1117,-1.1227,-1.2766,-1.2541,-1.1914,-1.0791,-1.0867,-1.0876,-1.0835,-1.0942,-1.1024,-1.1055,-1.1768,-1.2092,-1.2168,-1.2926,-1.3258,-1.3294,-1.444,-1.5598,-1.6597,-1.6692,-1.6692,-1.6695,-1.6692,-1.7377,-1.855,-2.0092,-2.0511,-2.03,0.0,0.0,0.0,0.0,0.0,0.0,0.0,0.0,0.8383,0.8467,0.8788,0.8716,0.7967,0.6322,0.5087,0.4583,0.6324,0.7871,0.889,0.8957,0.8468,0.7393,0.6304,0.475,0.2635,0.1,-0.1045,-0.3585,-0.4308,-0.5054,-0.5853,-0.7271,-0.8407,-0.922,-0.9459,-1.0321,-1.1686,-1.2136,-1.304,-1.4205,-1.5058,-1.5748,-1.6242,-1.6709,-1.7828,-1.9337,-2.0593,-2.0863,0.0,-2.1475,-2.1915,-2.2318,-2.2986,-2.3905,-2.4706,-2.4474,-2.481,-2.5087,-2.4448,-2.2767,-2.0379,-1.7092,-1.3432,-0.9489,-0.4941,-0.1053,0.2433,0.5506,0.8555,1.1274,1.3329,1.4285,1.5136,0.0,1.5159,1.4069,1.3616,1.2391,1.0664,0.8268,0.8369,0.7156,0.3479,0.235,0.0295,-0.3431,-0.3758,-0.4621,-0.6486,-0.7121,-0.7669,-0.8216,-0.7688,-0.7655,-0.8146,-0.7821,-0.7652,-0.7658,-0.8665,-0.916,-0.916,-1.0011,-1.0814,-1.1572,-1.2503,-1.3393,-1.4247,-1.462,-1.4778,-1.4812,-1.5215,-1.561,-1.6248,-1.818,-1.8965,-1.906,0.0,0.0,0.0,0.0,0.0,0.0,0.0,0.0,0.0,0.0,0.7325,0.712,0.6165,0.5348,0.4847,0.4848,0.6761,0.815,0.8623,0.898,0.8624,0.7421,0.6348,0.5061,0.3628,0.2136,0.0047,-0.2606,-0.3128,-0.3805,-0.4751,-0.6265,-0.7413,-0.8264,-0.8541,-0.9486,-1.0863,-1.1343,-1.2186,-1.3246,-1.41,-1.4674,-1.5028,-1.5211,-1.5763,-1.6746,-1.844,-1.891,-1.8733,-1.8917,-1.9165,-1.9455,-1.9646,-2.0585,-2.1649,-2.1914,-2.2888,-2.3649,-2.2439,-2.0787,-1.8503,-1.4506,-1.0772,-0.6897,-0.2673,0.1088,0.4515,0.7499,1.0896,1.3901,1.5847,1.694,1.7839,1.8705,1.7387,1.5788,1.4388,1.3784,1.2235,0.8884,1.0211,0.9877,0.6065,0.6845,0.6454,0.3723,0.2222,0.0624,-0.1174,-0.2147,-0.3342,-0.4961,-0.4287,-0.4193,-0.4811,-0.465,-0.4546,-0.4542,-0.5875,-0.6488,-0.6653,-0.7657,-0.8775,-0.9875,-1.0572,-1.1271,-1.1932,-1.2619,-1.2916,-1.2934,-1.3434,-1.3736,-1.4032,-1.5563,-1.6666,-1.7402,0.0,0.0,0.0,0.0,0.0,0.0,0.0,0.0,0.0,0.0,0.6355,0.6143,0.3854,0.4618,0.5496,0.6002,0.7468,0.8837,0.9989,0.9555,0.8837,0.7829,0.6556,0.5169,0.3627,0.2411,0.1154,-0.01,-0.1843,-0.3142,-0.3938,-0.5246,-0.6509,-0.7633,-0.7649,-0.861,-1.0252,-1.091,-1.144,-1.1953,-1.328,-1.3826,-1.3931,-1.4518,-1.4764,-1.4971,-1.6451,-1.6863,-1.6775,-1.7419,-1.7123,-1.6559,-1.7277,-1.7541,-1.7754,-1.867,-2.0841,-2.2278,-1.921,-1.8071,-1.6588,-1.1575,-0.8324,-0.5332,-0.1267,0.3323,0.7664,1.0824,1.4652,1.7848,1.9208,1.9495,1.9451,1.9226,1.8204,1.6621,1.426,1.1741,0.9603,0.8101,0.9056,0.8883,0.0,0.6496,0.6618,0.6418,0.4591,0.2792,0.118,0.1058,0.0665,-0.0177,-0.0322,-0.0375,-0.0376,-0.1421,-0.1936,-0.1953,-0.3376,-0.429,-0.4638,-0.6023,-0.7047,-0.7759,-0.8456,-0.9179,-0.9834,-1.0586,-1.0864,-1.0889,-1.0934,-1.1283,-1.178,-1.1877,-1.315,-1.4821,0.0,0.0,0.0,0.0,0.0,0.0,0.0,0.0,0.0,0.0,0.0,0.0,0.0,0.0,0.0,0.0,0.7866,0.9243,0.9809,0.9881,0.9385,0.8311,0.745,0.5736,0.3043,0.2195,0.122,-0.0,-0.0607,-0.208,-0.4288,-0.4605,-0.5249,-0.623,-0.7041,-0.7811,-0.8608,-0.9606,-1.021,-1.0548,-1.1455,-1.2101,-1.2502,-1.2677,-1.3351,-1.4039,0.0,-1.3792,-1.4132,-1.4128,-1.3895,-1.3604,-1.3882,-1.465,-1.5575,-1.605,-1.7936,-1.9228,-1.6375,-1.5295,-1.4015,-1.0051,-0.6412,-0.2598,0.2064,0.4566,0.7276,1.2135,1.3502,1.4571,1.7017,1.7985,1.8322,1.8051,1.8094,1.6747,1.275,1.061,0.8666,0.6416,0.837,0.0,0.0,0.0,0.0,0.6493,0.6044,0.4969,0.2903,0.2776,0.2743,0.2653,0.2436,0.2388,0.2563,0.2048,0.1085,-0.0358,-0.1831,-0.3238,-0.4515,-0.4992,-0.5579,-0.623,-0.6993,-0.7422,-0.7729,-0.894,-0.9386,-0.9504,-1.0455,-1.0921,-1.1049,-1.0535,-1.0813,-1.1514,0.0,0.0,0.0,0.0,0.0,0.0,0.0,0.0,0.0,0.0,0.0,0.0,0.0,0.0,0.0,0.0,0.0,0.9619,0.9853,1.0106,0.9834,0.8778,0.8099,0.6528,0.3878,0.3121,0.2109,0.0766,0.0633,-0.0638,-0.289,-0.3395,-0.4171,-0.5317,-0.6588,-0.7298,-0.7571,-0.8983,-0.9553,-0.957,-1.0434,-1.1065,-1.1466,-1.1466,-1.2003,0.0,-1.1756,-1.1412,-1.1442,-1.1719,-1.1616,-1.1348,-1.1581,-1.2392,-1.3071,-1.2105,-1.4564,-1.6593,-1.1913,-1.2752,-1.3312,-0.6586,-0.278,0.0484,0.4998,0.687,0.828,1.052,1.084,1.1693,1.4844,1.6674,1.7698,1.7715,1.7729,1.6224,1.1848,0.9923,0.8121,0.5929,0.786,0.8984,0.0,0.0,0.0,0.6798,0.6614,0.5949,0.4222,0.3866,0.3839,0.3993,0.3856,0.3802,0.3989,0.3811,0.2582,0.0257,-0.0691,-0.2022,-0.3688,-0.4229,-0.4721,-0.5164,-0.5873,-0.6199,-0.6308,-0.7458,-0.7958,-0.8026,-0.8968,-0.93,-0.9264,-0.8756,-0.8572,-0.8778,0.0,0.0,0.0,0.0,0.0,0.0,0.0,0.0,0.0,0.0,0.0,0.0,0.0,0.0,0.0,0.0,0.0,0.0,1.011,1.0274,1.0003,0.9234,0.8518,0.7495,0.5955,0.5058,0.384,0.2294,0.185,0.1122,0.0056,-0.1623,-0.3198,-0.4678,-0.6156,-0.6911,-0.7131,-0.8884,-0.9309,-0.8983,-1.0167,-1.0661,-1.0712,-1.0712,-1.0762,-1.0762,-1.0704,-0.9828,-0.8888,-1.0281,-1.0132,-0.9458,-0.9996,-1.0335,-0.9915,-0.6812,-1.0583,-1.3939,-0.5908,-0.9921,-1.3497,-0.1396,0.2222,0.3713,0.7179,0.9585,1.0103,0.6632,0.7241,0.9425,1.2803,1.5496,1.7402,1.795,1.7061,1.5081,1.1502,0.9485,0.7917,0.0,0.0,0.0,0.0,0.0,0.0,0.7364,0.0,0.5906,0.5202,0.4473,0.4033,0.4033,0.4026,0.4026,0.4043,0.3963,0.2583,0.0,0.0,-0.0726,-0.212,-0.3747,-0.4473,-0.4519,-0.5164,-0.5433,-0.5483,-0.6225,-0.6556,-0.6554,-0.6601,-0.6601,-0.6612,-0.6559,-0.6558,-0.6748,0.0,0.0,0.0,0.0,0.0,0.0,0.0,0.0,0.0,0.0,0.0,0.0,0.0,0.0,0.0,0.0,0.0,0.0,1.056,1.0188,1.0086,1.0356,0.8721,0.7406,0.645,0.5851,0.4984,0.3907,0.3769,0.286,0.1112,-0.0061,-0.1217,-0.241,-0.452,-0.5686,-0.6237,-0.6851,-0.7171,-0.7311,-0.8137,-0.8803,-0.9304,-0.985,-1.0033,-0.99,-0.94,-0.8981,-0.885,-0.9642,-0.7679,-0.4761,-0.4168,-0.4021,-0.3648,-0.1512,-0.3272,-0.4903,-0.0062,-0.1328,-0.308,0.0965,0.2422,0.3669,0.6708,0.5108,0.4097,0.8027,0.7019,0.6236,0.9075,1.1655,1.3553,1.4169,1.4592,0.0,1.0241,0.8227,0.0,0.5846,0.0,0.7317,0.7931,0.9235,0.0,0.0,0.8165,0.744,0.6121,0.5357,0.4698,0.4189,0.4141,0.424,0.4348,0.3212,0.1749,0.0,0.0,-0.0224,-0.0672,-0.3312,-0.449,-0.4519,-0.4688,-0.4743,-0.4787,-0.5471,-0.5806,-0.5819,-0.6371,-0.6577,-0.6529,-0.6005,-0.5804,-0.5775,0.0,0.0,0.0,0.0,0.0,0.0,0.0,0.0,0.0,0.0,0.0,0.0,0.0,0.0,0.0,0.0,0.0,0.0,0.0,0.9922,0.9828,0.9855,0.8463,0.7211,0.6152,0.5958,0.5437,0.4519,0.4546,0.3974,0.2777,0.1259,-0.0,-0.111,-0.3076,-0.4225,-0.482,-0.5698,-0.6123,0.0,0.0,-0.7925,-0.8336,-0.9093,-0.9124,-0.8842,-0.8745,-0.6696,-0.39,-0.3019,-0.1679,-0.0096,0.1082,0.0894,0.0623,0.2522,0.1661,0.0653,0.3017,0.3884,0.4205,0.4633,0.4122,0.4183,0.6784,0.5523,0.4024,0.4767,0.4584,0.5077,0.7358,1.0334,1.2744,0.0,0.0,0.0,1.0607,0.8511,0.6968,0.0,0.6637,0.0,0.767,0.8725,0.9211,0.0,0.8764,0.8038,0.656,0.576,0.5079,0.4341,0.4319,0.441,0.4522,0.3633,0.2122,0.0,0.0,0.0,-0.0056,-0.1738,-0.2854,-0.3511,0.0,-0.4477,-0.4515,-0.4886,-0.5062,-0.5081,-0.5508,-0.5701,-0.561,-0.5207,-0.5033,-0.503,0.0,0.0,0.0,0.0,0.0,0.0,0.0,0.0,0.0,0.0,0.0,0.0,0.0,0.0,0.0,0.0,0.0,0.0,0.0,0.0,0.9393,0.8731,0.7973,0.6945,0.5591,0.5601,0.5255,0.4529,0.4429,0.4426,0.446,0.255,0.1167,0.0168,-0.1572,-0.2637,-0.3241,-0.4967,-0.5677,-0.5756,-0.6902,-0.745,-0.7616,0.0,-0.8103,-0.7568,-0.7603,-0.3358,0.2786,0.5942,0.5922,0.4746,0.5812,0.5089,0.4112,0.5743,0.524,0.4263,0.4916,0.6787,0.8406,0.7771,0.5734,0.4381,0.6199,0.6786,0.5479,0.0165,0.2103,0.531,0.733,1.0455,1.3292,1.4887,0.0,1.3742,1.1486,0.9391,0.7667,0.6494,0.7068,0.7597,0.7563,0.8315,0.8804,0.8804,0.8764,0.8112,0.6799,0.6145,0.5433,0.468,0.4574,0.4522,0.4477,0.4487,0.3188,0.0613,0.0168,0.0,0.0,0.0,-0.0671,-0.2007,0.0,0.0,-0.4294,-0.4236,-0.4291,-0.4463,-0.4298,-0.4187,-0.4187,-0.4187,-0.4187,-0.4187,0.0,0.0,0.0,0.0,0.0,0.0,0.0,0.0,0.0,0.0,0.0,0.0,0.0,0.0,0.0,0.0,0.0,0.0,0.0,0.0,0.0,0.8731,0.7476,0.6469,0.5836,0.5097,0.4782,0.4808,0.3345,0.3282,0.4519,0.4082,0.3819,0.3554,0.0785,-0.1175,-0.2512,-0.4089,-0.4754,-0.4787,-0.5542,-0.6253,-0.6804,-0.6912,0.0,0.0,-0.2815,0.0827,0.4783,1.041,1.1612,1.064,0.9779,0.932,0.9085,0.8998,0.8435,0.7903,0.8592,0.8313,0.7319,0.5417,0.3422,0.1804,0.1417,-0.0495,-0.1379,0.1604,0.4351,0.6913,0.9177,1.0787,1.2322,1.4021,1.3733,1.261,1.0661,0.8721,0.6861,0.0,0.6233,0.6951,0.682,0.0,0.0,0.0,0.0,0.0,0.7563,0.7396,0.6686,0.5378,0.4787,0.4519,0.4522,0.4522,0.4239,0.3677,0.1174,0.0,0.0,0.0,-0.0112,-0.039,0.0,0.0,-0.3239,-0.2777,-0.3332,-0.4353,-0.3079,-0.2581,-0.2581,-0.2581,-0.2581,-0.2581,0.0,0.0,0.0,0.0,0.0,0.0,0.0,0.0,0.0,0.0,0.2315,0.0,0.0,0.0,0.0,0.0,0.0,0.0,0.0,0.0,0.0,0.7076,0.6401,0.5788,0.5175,0.4827,0.4647,0.4706,0.0,0.2336,0.2176,0.3764,0.4521,0.436,0.1347,-0.0839,-0.2287,-0.3866,-0.4484,-0.457,-0.5218,-0.5706,-0.6091,-0.648,0.0,0.0,-0.1607,0.2388,0.6168,1.0454,1.2138,1.2464,1.2892,1.2328,1.1226,1.0004,0.8671,0.7611,0.7729,0.6881,0.535,0.2743,0.0988,-0.0497,-0.1997,-0.3469,-0.3345,0.0597,0.4171,0.7182,0.8966,1.0553,1.2052,1.3494,1.3277,1.2488,1.1261,0.9161,0.7345,0.6107,0.6173,0.6374,0.0,0.0,0.0,0.0,0.0,0.0,0.7723,0.6961,0.6086,0.5003,0.468,0.4519,0.4519,0.4519,0.4519,0.446,0.2237,0.0729,0.0,0.0,0.0,0.0,0.0,0.0,-0.1566,-0.2852,-0.2911,-0.2097,-0.1363,-0.1073,-0.1066,-0.1066,-0.1066,-0.1178,0.0,0.0,0.0,0.0,0.0,0.0,0.0,0.4905,0.4731,0.4485,0.3633,0.3104,0.3196,0.2614,0.0,0.0,0.0,0.0,0.0,0.0,0.0,0.0,0.0,0.0,0.4501,0.0,0.0,0.3554,0.2587,0.0,0.0,0.0,0.0,0.0,0.1066,-0.0839,-0.2287,-0.3866,-0.4484,0.0,0.0,-0.5378,-0.5597,0.0,0.0,0.0,0.0,0.266,0.6569,0.9151,1.0773,1.1965,1.3613,1.3382,1.2129,1.0205,0.8325,0.6745,0.6341,0.536,0.3796,0.0778,-0.0777,-0.2052,-0.4051,-0.4242,-0.3236,-0.0549,0.3296,0.6622,0.8111,0.9829,1.1419,1.2828,1.2698,1.2233,1.1755,0.9797,0.808,0.0,0.6518,0.0,0.0,0.0,0.0,0.0,0.0,0.0,0.7943,0.6524,0.5492,0.4956,0.468,0.4519,0.4519,0.4519,0.4519,0.4463,0.3246,0.1737,0.0,0.0,0.0,0.0,0.0,0.0,0.0,-0.2553,-0.2549,-0.0877,-0.027,0.0,0.0,0.0,0.0,-0.0176,0.0,0.0,0.0,0.0,0.0,0.0,0.0,0.5468,0.541,0.5864,0.331,0.1573,0.1945,0.2123,0.0,0.0,0.0,0.0,0.0,0.0,0.0,0.0,0.0,0.0,0.0,0.0,0.0,0.0393,0.028,0.0,0.0,0.0,0.0,0.0,0.0,-0.0839,-0.2287,-0.3866,0.0,0.0,0.0,0.0,0.0,0.0,0.0,0.0,0.0,0.2046,0.5097,0.7844,0.8913,0.919,0.991,1.1198,1.2157,1.0316,0.8678,0.7469,0.7328,0.5914,0.3796,0.0777,-0.0776,-0.2038,-0.4031,-0.3441,-0.1932,-0.0319,0.2491,0.5311,0.7329,0.8364,0.9631,1.1721,1.1431,1.0924,1.0951,0.9943,0.8656,0.7113,0.0,0.0,0.0,0.0,0.0,0.0,0.0,0.0,0.0,0.7289,0.648,0.6426,0.5171,0.4519,0.4519,0.4632,0.4632,0.4519,0.4349,0.2788,0.0,0.0,0.0,0.0,0.0,0.0,0.0,-0.0318,-0.1872,-0.3794,-0.1079,0.0,0.0,0.0,0.0,-0.0,0.0,0.0,0.0,0.0,0.0,0.0,0.0,0.6722,0.6599,0.6761,0.4016,0.2032,0.2017,0.1506,0.0,0.0,0.0,0.0,0.0,0.0,0.0,0.0,0.0,0.0,0.0,0.0,0.0,-0.2695,0.0,0.0,0.0,0.0,0.0,0.0,0.0,-0.3026,-0.3633,-0.4255,0.0,0.0,0.0,0.0,0.0,0.0,0.0,0.0,0.0,0.0,0.4663,0.5756,0.6712,0.7557,0.8168,0.8968,0.9446,0.8744,0.7806,0.7004,0.6939,0.5058,0.2395,-0.0556,-0.2339,-0.3508,-0.43,-0.3322,-0.1552,0.0819,0.3023,0.4988,0.6671,0.7587,0.8731,1.0631,1.0609,1.059,1.1241,1.0443,0.9475,0.8582,0.7558,0.0,0.0,0.0,0.0,0.0,0.0,0.0,0.0,0.7475,0.6421,0.5928,0.5106,0.4555,0.4519,0.4691,0.4761,0.4621,0.3571,0.2513,0.1322,0.0377,0.0,0.0,0.0,0.0,0.0,0.0,-0.0674,-0.1687,-0.0472,0.0,0.0,0.0,0.0,0.0,0.0,0.0,0.0,0.0,0.0,0.0,0.7562,0.7709,0.7681,0.7658,0.4923,0.2594,0.1655,-0.0,0.0108,0.2947,0.0,0.0,0.0,0.0,0.0,0.0,0.0,0.0,0.0,0.0,0.0,-0.4514,-0.4948,0.0,0.0,0.0,0.0,0.0,0.0,0.0,0.0,0.0,0.0,0.0,0.0,0.0,0.0,0.0,0.0,0.0,0.0,0.0,0.0,0.0,0.0,0.6095,0.6763,0.6988,0.7122,0.7557,0.7182,0.6588,0.6431,0.4326,0.1615,-0.0946,-0.3019,-0.449,-0.4501,-0.3674,-0.1892,0.1484,0.3432,0.4952,0.6317,0.702,0.7985,0.984,1.0054,1.0329,1.1297,1.0817,1.0221,0.0,0.0,0.0,0.0,0.0,0.0,0.0,0.0,0.0,0.0,0.7706,0.6577,0.6013,0.5148,0.4616,0.4482,0.4797,0.4886,0.4815,0.3694,0.256,0.1484,0.0472,0.0,0.0,0.0,0.0,0.0,0.0,0.0,0.0,0.0,0.0,0.0,0.0,0.0,0.0,0.0,0.0,0.0,0.0,0.0,0.0,0.0,0.8225,0.8371,0.8639,0.5802,0.282,0.03,-0.2675,-0.3249,-0.0224,0.0,0.0,0.0,0.0,0.0,0.0,0.0,0.0,0.0,0.0,-0.4455,-0.4514,-0.4504,-0.4612,-0.4786,0.0,0.0,0.0,0.0,0.0,0.0,0.0,0.0,0.0,0.0,0.0,-0.4511,0.0,0.0,0.0,0.0,0.0,0.0,0.0,0.0,0.0,0.0,0.5538,0.5814,0.7283,0.7182,0.6475,0.6013,0.4094,0.1839,0.0334,-0.2291,-0.4473,-0.4488,-0.446,-0.3224,0.128,0.3444,0.4927,0.6322,0.6588,0.7285,0.9349,0.9686,0.9993,1.0868,1.0995,1.0762,0.0,0.0,0.0,0.0,0.0,0.0,0.0,0.0,0.0,0.0,0.8176,0.7247,0.7089,0.5545,0.4609,0.4476,0.4908,0.507,0.5087,0.5292,0.3485,0.0,0.0,0.0,0.0,0.0,0.0,0.0,0.0,0.0,0.0,0.0,0.0,0.0,0.0,0.0,0.0,0.0,0.0,0.0,0.0,0.0,0.0,0.0,0.8158,0.8026,0.8626,0.5606,0.2897,0.1664,-0.1728,-0.367,-0.3118,0.0,0.0,0.0,0.0,0.0,0.0,0.0,0.0,0.0,0.0,-0.3471,-0.449,-0.4649,-0.4706,-0.4601,-0.4182,-0.3886,0.0,0.0,0.0,0.0,0.0,0.0,0.0,0.0,-0.2805,-0.1401,0.0,0.0,0.0,0.0,0.0,0.0,0.0,0.0,0.0,0.0,0.0,0.0,0.6086,0.6032,0.5873,0.5887,0.4853,0.3188,0.0612,-0.0725,-0.1953,-0.4055,-0.448,-0.3244,0.1264,0.3445,0.493,0.6322,0.6769,0.7531,0.9382,0.9846,1.0287,1.1162,1.1463,0.0,0.0,0.0,0.0,0.0,0.0,0.0,0.0,0.0,0.0,0.0,0.8824,0.7913,0.7252,0.5751,0.4887,0.4793,0.5151,0.5236,0.5087,0.5292,0.4824,0.3618,0.2424,0.0,0.0,0.0,0.0,0.0,0.1338,0.2551,0.359,0.2297,0.1814,0.1671,0.0471,0.0,0.0,0.0,0.0,0.0,0.0,0.0,0.0,0.0,0.7608,0.7392,0.7588,0.5337,0.3086,0.1558,-0.1593,-0.3851,-0.4425,0.0,0.0,0.0,0.0,0.0,0.0,0.0,0.0,0.0,-0.3072,-0.3519,-0.448,-0.4628,-0.4625,-0.4529,-0.4628,-0.4622,-0.4473,-0.4473,0.0,0.0,0.0,0.0,0.0,-0.1567,0.0,0.1625,0.0,0.0,0.0,0.0,0.0,0.0,0.0,0.0,0.0,0.0,0.0,0.0,0.0,0.5324,0.5546,0.5723,0.5144,0.3925,0.1448,0.039,-0.0503,-0.2355,-0.2809,-0.1847,0.1505,0.3413,0.493,0.6322,0.688,0.7676,0.9395,1.0306,1.1101,1.1917,1.2738,0.0,0.0,0.0,0.0,0.0,0.0,0.0,0.0,0.0,0.0,0.0,0.0,0.7976,0.7107,0.6092,0.5363,0.4918,0.5213,0.5292,0.5087,0.5292,0.5428,0.5362,0.4303,0.0,0.0,0.0,0.0,0.0,0.2559,0.3754,0.5276,0.418,0.3687,0.3602,0.2477,0.1608,0.1004,0.0,0.0,0.0,0.0,0.0,0.0,0.0,0.0,0.0,0.0,0.5023,0.3279,0.0336,-0.2018,-0.366,0.0,0.0,0.0,0.0,0.0,0.0,0.0,0.0,0.0,0.0,-0.4484,-0.4477,-0.4477,-0.4522,-0.4515,-0.457,-0.457,-0.457,-0.457,-0.457,0.0,0.0,0.0,0.0,0.0,0.3375,0.457,0.0,0.0,0.0,0.0,0.0,0.0,0.0,0.0,0.0,0.0,0.0,0.0,0.0,0.0,0.0,0.0,0.0,0.4967,0.415,0.2567,0.1118,0.0,0.0,0.0,0.0,0.1898,0.3524,0.5049,0.6415,0.6971,0.7772,0.9486,1.1073,1.2332,1.3117,1.4437,0.0,0.0,0.0,0.0,0.0,0.0,0.0,0.0,0.0,0.0,0.0,0.0,0.7717,0.685,0.6563,0.5961,0.4952,0.5223,0.5292,0.5153,0.5292,0.5428,0.5428,0.5568,0.0,0.0,0.0,0.0,0.0,0.3691,0.3882,0.5428,0.5428,0.5428,0.5428,0.5428,0.4353,0.2878,0.0,0.0,0.0,0.0,0.0,0.0,0.0,0.0,0.0,0.0,0.0,0.3342,0.0336,-0.0505,0.0,0.0,0.0,0.0,0.0,0.0,0.0,0.0,0.0,0.0,0.0,-0.4522,-0.4522,-0.4522,-0.4519,-0.4787,-0.5273,-0.5273,-0.5273,-0.5273,-0.5273,-0.4333,0.0,0.0,0.0,0.0,0.4228,0.5127,0.0,0.0,0.0,0.0,0.5736,0.5786,0.0,0.0,0.0,0.0,0.0,0.0,0.0,0.0,0.5378,0.5378,0.4897,0.0,0.4144,0.2567,0.1116,0.0,0.0,0.0,0.0392,0.1898,0.4304,0.6369,0.7155,0.783,0.8795,1.0434,1.1884,1.3186,1.4122,0.0,0.0,0.0,0.0,0.0,0.0,0.0,0.0,0.0,0.0,0.0,0.0,0.0,0.8805,0.7702,0.7003,0.6193,0.5322,0.5391,0.5362,0.5359,0.5362,0.5428,0.5428,0.5428,0.0,0.0,0.0,0.0,0.546,0.5052,0.5093,0.5428,0.5428,0.5428,0.5428,0.5382,0.5113,0.4767,0.0,0.0,0.0,0.0,0.0,0.0,0.0,0.0,0.0,0.0,0.0,0.0,0.0,0.0,0.0,0.0,0.0,0.0,0.0,0.0,0.0,0.0,0.0,0.0,-0.4519,-0.4522,-0.4525,-0.4525,-0.4525,-0.4904,-0.5668,-0.5919,-0.6023,-0.5982,-0.5324,-0.3996,0.0,0.0,0.0,0.4511,0.4501,0.0,0.0,0.0,0.0,0.0,0.5786,0.5882,0.0,0.6416,0.6303,0.6199,0.0,0.0,0.0,0.0,0.5487,0.5378,0.468,0.4525,0.4311,0.3469,0.1619,0.0,0.0,0.0,0.0392,0.1898,0.4525,0.6774,0.7218,0.8487,0.9913,1.1241,1.3365,1.5263,0.0,0.0,0.0,0.0,0.0,0.0,0.0,0.0,0.0,0.0,0.0,0.0,0.0,0.0,0.8647,0.7612,0.6626,0.5858,0.5428,0.5428,0.5428,0.5428,0.5428,0.5428,0.5428,0.5495,0.0,0.0,0.0,0.0,0.546,0.5526,0.5495,0.5428,0.5428,0.5428,0.5428,0.5376,0.5376,0.5382,0.0,0.0,0.0,0.0,0.0,0.0,0.0,0.0,0.0,0.0,0.0,0.0,0.0,0.0,0.0,0.0,0.0,0.0,0.0,0.0,0.0,0.0,0.0,-0.4519,-0.4522,-0.4473,-0.4366,-0.4141,-0.4252,-0.4857,-0.59,-0.6504,-0.6768,-0.6686,-0.5156,-0.35,0.0,0.0,0.4511,0.4507,0.4487,0.0,0.0,0.0,0.0,0.0,0.0,0.0,0.0,0.7343,0.6848,0.6032,0.7283,0.0,0.0,0.0,0.0,0.0,0.468,0.4543,0.4511,0.4497,0.2458,0.0447,0.0336,0.0336,0.0783,0.2232,0.4802,0.687,0.7412,0.9323,1.1278,1.2453,1.5227,0.0,0.0,0.0,0.0,0.0,0.0,0.0,0.0,0.0,0.0,0.0,0.0,0.0,0.0,0.0,0.0,0.713,0.5985,0.5428,0.5428,0.5428,0.5428,0.5428,0.5428,0.5442,0.5406,0.5512,0.5616,0.0,0.0,0.0,0.5579,0.5423,0.5428,0.5428,0.5428,0.5428,0.5428,0.5428,0.5428,0.5449,0.0,0.0,0.0,0.0,0.0,0.0,0.0,0.0,0.0,0.0,0.0,0.0,0.0,0.0,0.0,0.0,0.0,0.0,0.0,0.0,0.0,0.0,-0.4519,-0.4522,-0.4477,-0.4477,-0.3858,-0.2565,-0.301,-0.4161,-0.5905,-0.6967,-0.7446,-0.7346,-0.5362,-0.2936,-0.0111,0.3137,0.4501,0.4484,0.448,0.0,0.0,0.0,0.0,0.0,0.0,0.0,0.0,0.783,0.7557,0.7396,0.7616,0.0,0.0,0.0,0.0,0.0,0.468,0.4558,0.4629,0.4511,0.3516,0.2395,0.1952,0.1842,0.2287,0.3858,0.58,0.7706,0.9101,1.1041,1.3152,1.5335,0.0,0.0,0.0,0.0,0.0,0.0,0.0,0.0,0.0,0.0,0.0,0.0,0.0,0.0,0.0,0.0,0.0,0.7005,0.606,0.5498,0.5428,0.5428,0.5428,0.5428,0.5428,0.545,0.5537,0.5507,0.5583,0.0,0.0,0.5514,0.5579,0.5423,0.5428,0.5428,0.5428,0.5428,0.5428,0.5428,0.5428,0.5449,0.0,0.0,0.0,0.0,0.0,0.0,0.0,0.0,0.0,0.0,0.0,0.0,0.0,0.0,0.0,0.0,0.0,0.0,0.0,0.0,0.0,-0.4525,-0.345,-0.3,-0.3226,-0.2504,-0.2117,-0.2174,-0.2169,-0.36,-0.6312,-0.7646,-0.8205,-0.8109,-0.6396,-0.399,-0.0944,0.2907,0.4497,0.4487,0.0,0.0,0.0,0.0,0.0,0.0,0.0,0.0,0.0,0.0,0.7735,0.7089,0.746,0.0,0.0,0.0,0.0,0.0,0.4398,0.4453,0.4572,0.4589,0.4304,0.389,0.372,0.3553,0.3792,0.5167,0.7083,0.9032,1.0552,1.3467,1.6714,2.0236,0.0,0.0,0.0,0.0,0.0,0.0,0.0,0.0,0.0,0.0,0.0,0.0,0.0,0.0,0.0,0.0,0.0,0.0,0.6108,0.5564,0.5428,0.5428,0.544,0.5527,0.5527,0.5577,0.5732,0.564,0.563,0.5681,0.0,0.5477,0.546,0.5459,0.5428,0.5428,0.5428,0.5413,0.5494,0.5572,0.565,0.5732,0.0,0.0,0.0,0.0,0.0,0.0,0.0,0.0,0.0,0.0,0.0,0.0,0.0,0.0,0.0,0.0,0.0,0.0,0.0,0.0,-0.4363,-0.3962,-0.1829,-0.0829,-0.1159,0.0055,0.0222,-0.061,-0.0609,-0.2756,-0.6815,-0.8063,-0.8553,-0.8365,-0.7171,-0.4746,-0.1446,0.2007,0.3869,0.449,0.0,0.0,0.0,0.0,0.0,0.0,0.0,0.0,0.0,0.0,0.0,0.0,0.0,0.0,0.0,0.4656,0.4528,0.4246,0.44,0.4646,0.4874,0.517,0.499,0.4793,0.4907,0.4934,0.5306,0.6434,0.8352,1.0301,1.2165,1.6137,0.0,2.3973,0.0,0.0,0.0,0.0,0.0,0.0,0.0,0.0,0.0,0.0,0.0,0.0,0.0,0.0,0.0,0.0,0.0,0.0,0.6142,0.5571,0.5428,0.5428,0.5474,0.5553,0.5553,0.5661,0.58,0.5766,0.5732,0.5688,0.562,0.5521,0.5413,0.5442,0.5428,0.5428,0.5428,0.5454,0.5603,0.5711,0.5847,0.5976,0.0,0.0,0.0,0.0,0.0,0.0,0.0,0.0,0.0,0.0,0.0,0.0,0.0,0.0,0.0,0.0,0.0,0.0,0.0,0.0,-0.3849,-0.2437,0.0386,0.1928,0.1873,0.2422,0.3144,0.3996,0.2595,-0.1253,-0.7357,-0.7958,-0.8038,-0.7664,-0.691,-0.4204,-0.0111,0.0167,0.1952,0.448,0.448,0.0,0.0,0.0,0.0,0.0,0.0,0.0,0.0,0.0,0.0,0.0,0.0,0.0,0.4019,0.4069,0.4128,0.4351,0.502,0.5483,0.587,0.6559,0.5595,0.4606,0.5023,0.5678,0.6601,0.787,0.9285,1.1219,1.4315,1.8984,0.0,0.0,0.0,0.0,0.0,0.0,0.0,0.0,0.0,0.0,0.0,0.0,0.0,0.0,0.0,0.0,0.0,0.0,0.0,0.0,0.0,0.571,0.5572,0.5428,0.5372,0.5393,0.5393,0.5535,0.5796,0.5664,0.5749,0.5983,0.5708,0.5583,0.5562,0.542,0.5428,0.5428,0.5428,0.5454,0.5593,0.5603,0.5694,0.5817,0.0,0.0,0.0,0.0,0.0,0.0,0.0,0.0,0.0,0.0,0.0,0.0,0.0,0.0,0.0,0.0,0.0,0.0,0.0,0.0,-0.3413,-0.0944,0.2881,0.5109,0.5416,0.5584,0.5541,0.5186,0.0905,-0.3081,-0.6858,-0.7745,-0.809,-0.7851,-0.6987,-0.4157,0.0111,0.2009,0.3477,0.4432,0.3799,0.4515,0.0,0.0,0.0,0.0,0.0,0.0,0.0,0.0,0.7568,0.625,0.6262,0.5079,0.3765,0.3849,0.3985,0.4256,0.4952,0.5569,0.6063,0.6739,0.6511,0.6276,0.6804,0.7519,0.8575,1.0047,1.152,1.381,1.7905,0.0,0.0,0.0,0.0,0.0,0.0,0.0,0.0,0.0,0.0,0.0,0.0,0.0,0.0,0.0,0.0,0.0,0.0,0.0,0.0,0.0,0.0,0.5778,0.5708,0.5498,0.5454,0.5633,0.5576,0.5684,0.5942,0.5888,0.5925,0.6023,0.5911,0.581,0.5708,0.5562,0.5504,0.5511,0.5599,0.5671,0.5745,0.5935,0.604,0.6088,0.0,0.0,0.0,0.0,0.0,0.0,0.0,0.0,0.0,0.0,0.0,0.0,0.0,0.0,0.0,0.0,0.0,0.0,0.0,-0.3084,-0.2178,-0.0111,0.4388,0.6931,0.7166,0.7387,0.6977,0.5919,0.0477,-0.3474,-0.5887,-0.7033,-0.7502,-0.7406,-0.7042,-0.4562,-0.0444,0.3026,0.4511,0.4386,0.3239,0.4116,0.0,0.0,0.0,0.0,0.0,0.0,0.0,0.0,0.7619,0.6274,0.6185,0.5026,0.3666,0.3765,0.4125,0.4646,0.5402,0.6138,0.6949,0.8046,0.8372,0.8637,0.9542,0.9631,1.008,1.1879,1.3925,1.6365,1.9806,2.2515,0.0,0.0,0.0,0.0,0.0,0.0,0.0,0.0,0.0,0.0,0.0,0.0,0.0,0.0,0.0,0.0,0.0,0.0,0.0,0.0,0.0,0.5829,0.5794,0.5644,0.5641,0.5778,0.5681,0.5745,0.603,0.603,0.6057,0.6101,0.6051,0.5969,0.5861,0.5671,0.5589,0.561,0.58,0.5874,0.5898,0.6112,0.6217,0.6254,0.0,0.0,0.0,0.0,0.0,0.0,0.0,0.0,0.0,0.0,0.0,0.0,0.0,0.0,0.0,0.0,0.0,0.0,0.0,0.0,0.0056,0.0055,0.4751,0.7112,0.6588,0.7295,0.7348,0.6588,0.2143,-0.1545,-0.4508,-0.5689,-0.6088,-0.5931,-0.6964,-0.5467,-0.1896,0.2581,0.4468,0.434,0.2852,0.3999,0.6663,0.0,0.0,0.0,0.0,0.0,0.0,0.0,0.7494,0.6329,0.5872,0.4857,0.3842,0.3842,0.464,0.5727,0.6567,0.7516,0.8739,1.0975,1.1307,1.1561,1.3219,1.1905,1.1016,1.3348,1.6243,1.8601,1.9412,2.1522,0.0,0.0,0.0,0.0,0.0,0.0,0.0,0.0,0.0,0.0,0.0,0.0,0.0,0.0,0.0,0.0,0.0,0.0,0.0,0.0,0.0,0.0,0.5783,0.578,0.5765,0.5808,0.5781,0.5881,0.6027,0.603,0.6112,0.6251,0.6098,0.603,0.601,0.5715,0.5593,0.562,0.5915,0.603,0.603,0.603,0.6129,0.624,0.0,0.0,0.0,0.0,0.0,0.0,0.0,0.0,0.0,0.0,0.0,0.0,0.0,0.0,0.0,0.0,0.0,0.0,0.0,0.1959,0.3193,0.3183,0.5183,0.6173,0.5814,0.6244,0.65,0.6604,0.1999,-0.1696,-0.4535,-0.5806,-0.64,-0.6237,-0.4919,-0.2936,-0.05,0.1896,0.3077,0.3519,0.4457,0.5727,0.7225,0.0,0.0,0.0,0.0,0.0,0.0,0.0,0.0,0.0,0.6906,0.6355,0.572,0.5436,0.5834,0.6665,0.7692,0.8427,0.9542,1.2163,1.2648,1.3057,1.5349,1.48,1.4418,1.6377,1.8171,1.9395,1.9452,0.0,0.0,0.0,0.0,0.0,0.0,0.0,0.0,0.0,0.0,0.0,0.0,0.0,0.0,0.0,0.0,0.0,0.0,0.0,0.0,0.0,0.0,0.6022,0.618,0.5885,0.5934,0.6169,0.6027,0.5928,0.5874,0.5979,0.6054,0.6101,0.6166,0.6193,0.6176,0.5979,0.5837,0.5755,0.5952,0.603,0.604,0.6152,0.622,0.6254,0.0,0.0,0.0,0.0,0.0,0.0,0.0,0.0,0.0,0.0,0.4351,0.3341,0.0,0.0,0.0,0.0,0.0,0.0,0.0,0.0,0.3872,0.449,0.5297,0.5703,0.5596,0.5971,0.5755,0.4847,0.2057,-0.1066,-0.451,-0.5335,-0.5715,-0.5592,-0.3197,-0.084,0.1529,0.3227,0.4107,0.4548,0.5932,0.7074,0.7961,0.0,0.0,0.0,0.0,0.0,0.0,0.0,0.0,0.0,0.7422,0.6968,0.6493,0.635,0.6936,0.7919,0.927,1.0156,1.1382,1.4174,1.4629,1.4969,1.7027,1.6708,1.6242,1.7379,1.7977,1.8542,1.9005,1.9242,0.0,0.0,0.0,0.0,0.0,0.0,0.0,0.0,0.0,0.0,0.0,0.0,0.0,0.0,0.0,0.0,0.0,0.0,0.0,0.0,0.618,0.6103,0.618,0.6063,0.6063,0.6335,0.6166,0.604,0.5898,0.6051,0.6122,0.6129,0.622,0.6227,0.6166,0.6135,0.603,0.5908,0.6061,0.6122,0.6132,0.6227,0.6338,0.6338,0.0,0.0,0.0,0.0,0.0,0.0,0.0,0.0,0.0,0.0,0.4508,0.3956,0.0,0.0,0.0,0.0,0.0,0.0,0.0,0.0,0.3014,0.4421,0.5062,0.5512,0.5743,0.6236,0.5067,0.2286,0.2227,0.0117,-0.3882,-0.4051,-0.4098,-0.4033,-0.1554,0.109,0.3838,0.572,0.6535,0.6602,0.7213,0.7961,0.8697,0.8732,0.0,0.0,0.0,0.0,0.0,0.0,0.0,0.0,0.7623,0.7155,0.6712,0.7004,0.8019,0.9411,1.1179,1.2338,1.3706,1.6545,1.7123,1.7235,1.834,1.7732,1.6882,1.6942,0.0,1.682,1.836,0.0,0.0,0.0,0.0,0.0,0.0,0.0,0.0,0.0,0.0,0.0,0.0,0.0,0.0,0.0,0.0,0.0,0.0,0.0,0.0,0.0,0.618,0.618,0.6022,0.618,0.6338,0.0,0.6338,0.6186,0.6057,0.6196,0.6338,0.6338,0.6338,0.6179,0.6061,0.6203,0.6176,0.6064,0.6207,0.6338,0.6338,0.6338,0.6338,0.6338,0.0,0.0,0.0,0.0,0.0,0.0,0.0,0.0,0.0,0.0,0.0,0.0,0.0,0.0,0.0,0.0,0.0,0.0,0.0,0.0,0.4141,0.448,0.4629,0.4967,0.5546,0.5463,0.4577,0.2809,0.2401,0.1735,0.0732,-0.0449,-0.1048,-0.107,0.1819,0.3687,0.475,0.5345,0.5864,0.6339,0.7259,0.7741,0.8014,0.8586,0.8798,0.0,0.0,0.0,0.0,0.0,0.0,0.0,0.8305,0.8365,0.8674,0.9173,0.9616,1.0539,1.2941,1.3513,1.4296,1.7656,1.9161,1.9606,1.8863,1.8154,1.7721,1.7849,1.7685,1.7631,0.0,0.0,0.0,0.0,0.0,0.0,0.0,0.0,0.0,0.0,0.0,0.0,0.0,0.0,0.0,0.0,0.0,0.0,0.0,0.0,0.0,0.6257,0.6261,0.6261,0.6257,0.6261,0.6338,0.0,0.6338,0.6244,0.6213,0.6244,0.6338,0.6338,0.6338,0.624,0.6213,0.6247,0.624,0.6213,0.6247,0.6338,0.6338,0.6338,0.6338,0.6338,0.0,0.0,0.0,0.0,0.0,0.0,0.0,0.0,0.0,0.0,0.0,0.0,0.0,0.0,0.0,0.0,0.0,0.0,0.0,0.0,0.0,0.4525,0.4791,0.5203,0.5621,0.5548,0.524,0.4657,0.4663,0.4579,0.4289,0.2852,0.2085,0.2048,0.3467,0.4507,0.5318,0.5599,0.6152,0.6883,0.7828,0.8209,0.8262,0.8646,0.8804,0.8804,0.8804,0.0,0.0,0.0,0.0,0.0,0.0,0.0,0.9631,1.024,1.0885,1.1944,1.4513,1.5247,1.5872,1.8662,1.9815,2.0005,1.8946,1.8236,1.7688,1.7556,1.7007,0.0,0.0,0.0,0.0,0.0,0.0,0.0,0.0,0.0,0.0,0.0,0.0,0.0,0.0,0.0,0.0,0.0,0.0,0.0,0.0,0.779,0.6984,0.6895,0.6499,0.6227,0.6149,0.6224,0.6338,0.6338,0.6338,0.6338,0.6338,0.6338,0.6338,0.6338,0.6338,0.6338,0.6338,0.6338,0.6338,0.6338,0.6338,0.6338,0.6338,0.6338,0.6338,0.6338,0.0,0.0,0.0,0.0,0.0,0.0,0.0,0.0,0.0,0.0,0.0,0.0,0.0,0.0,0.0,0.0,0.0,0.0,0.0,0.0,0.0,0.4838,0.5382,0.5839,0.6115,0.6221,0.6388,0.667,0.7475,0.7559,0.6919,0.552,0.4761,0.4616,0.4426,0.4833,0.5714,0.6196,0.6883,0.7715,0.8476,0.8804,0.8804,0.8804,0.8804,0.8804,0.8804,0.8804,0.8804,0.8804,0.0,0.0,0.0,0.0,0.9993,1.0877,1.1772,1.306,1.569,1.6863,1.7711,1.9364,1.9695,1.9475,1.8821,1.8015,1.7269,1.6729,0.0,0.0,0.0,0.0,0.0,0.0,0.0,0.0,0.0,0.0,0.0,0.0,0.0,0.0,0.0,0.0,0.0,0.0,0.0,0.0,1.05,0.8616,0.7442,0.7325,0.6641,0.6173,0.6071,0.6196,0.6338,0.6338,0.6338,0.6338,0.6338,0.6338,0.6338,0.6338,0.6338,0.6338,0.6338,0.6338,0.6338,0.6338,0.6338,0.6338,0.6338,0.6338,0.6338,0.6338,0.0,0.0,0.0,0.0,0.0,0.0,0.0,0.0,0.0,0.0,0.4036,0.4141,0.0,0.0,0.0,0.0,0.0,0.0,0.2587,0.0,0.0,0.6312,0.6421,0.6761,0.7447,0.7561,0.7549,0.7444,0.8916,0.9248,0.8381,0.6966,0.5891,0.5205,0.5826,0.6021,0.5987,0.6951,0.7709,0.8296,0.8639,0.8804,0.8804,0.8804,0.8804,0.8804,0.8804,0.8804,0.8804,0.8804,0.8804,0.0,0.0,0.0,1.0098,1.1548,1.2215,1.3069,1.5761,1.7467,1.8684,1.9567,1.9307,1.8821,1.8715,1.7633,1.6514,0.0,0.0,0.0,0.0,0.0,0.0,0.0,0.0,0.0,0.0,0.0,0.0,0.0,0.0,0.0,0.0,0.0,0.0,0.0,0.0,0.0,0.9511,0.7463,0.6293,0.6433,0.6171,0.609,0.6227,0.6251,0.6338,0.6338,0.6338,0.6338,0.6338,0.6338,0.6338,0.6338,0.6338,0.6338,0.6338,0.6338,0.6338,0.6338,0.6338,0.6338,0.6338,0.6338,0.6338,0.6338,0.0,0.0,0.0,0.0,0.0,0.0,0.0,0.0,0.0,0.0,0.0,0.4036,0.0,0.0,0.0,0.3034,0.2871,0.2936,0.3318,0.508,0.6091,0.5982,0.7154,0.79,0.8277,0.8672,0.9232,0.9906,1.0589,1.0751,1.0343,0.9372,0.7868,0.6014,0.5845,0.6014,0.6349,0.6729,0.7572,0.8624,0.8758,0.8804,0.8804,0.8804,0.8804,0.8804,0.8804,0.0,0.9361,0.9361,0.9614,0.9917,0.9917,0.0,0.0,0.0,1.3023,1.3956,1.6435,1.7907,1.8768,1.9097,1.8939,1.8501,1.7688,1.6978,1.6317,0.0,0.0,0.0,0.0,0.0,0.0,0.0,0.0,0.0,0.0,0.0,0.0,0.0,0.0,0.0,0.0,0.0,0.0,0.0,0.0,1.017,1.0122,0.8023,0.6861,0.6948,0.6349,0.6058,0.6155,0.6252,0.6338,0.6338,0.6338,0.6338,0.6338,0.6338,0.6338,0.6338,0.6338,0.6338,0.6338,0.6338,0.6338,0.6338,0.6338,0.6338,0.6338,0.6338,0.6312,0.6369,0.0,0.0,0.0,0.0,0.0,0.0,0.0,0.0,0.0,0.0,0.0,0.0,0.0,0.0,0.0,0.0,0.2825,0.2892,0.4469,0.5834,0.6524,0.6342,0.8041,0.9051,0.9252,0.99,1.0705,1.172,1.2064,1.2055,1.172,1.1414,0.9783,0.7106,0.646,0.6433,0.6902,0.699,0.7703,0.8804,0.8804,0.8804,0.8804,0.8804,0.891,0.9008,0.8857,0.0,0.0,0.0,1.0269,1.0813,1.0813,1.1266,0.0,0.0,0.0,1.4745,1.6892,1.7879,1.8363,1.8538,1.8484,1.8011,1.6786,0.0,0.0,0.0,0.0,0.0,0.0,0.0,0.0,0.0,0.0,0.0,0.0,0.0,0.0,0.0,0.0,0.0,0.0,0.0,0.0,0.0,0.0,1.0449,1.0418,0.8358,0.7139,0.719,0.641,0.6033,0.6025,0.6184,0.6261,0.6338,0.6338,0.6338,0.6338,0.6338,0.6338,0.6338,0.6338,0.6338,0.6338,0.6338,0.6338,0.6338,0.6338,0.6338,0.6338,0.6338,0.6349,0.6458,0.0,0.0,0.0,0.0,0.0,0.0,0.0,0.0,0.0,0.0,0.0,0.0,0.6085,0.6222,0.5627,0.4034,0.3639,0.4059,0.5417,0.6206,0.7165,0.8469,0.9325,0.0,1.0661,1.1358,1.1706,1.1805,1.3082,1.3034,1.1814,1.2434,1.1197,0.858,0.8606,0.8249,0.767,0.8355,0.8738,0.8804,0.8804,0.8804,0.8804,0.8804,0.0,0.0,0.0,0.0,0.0,0.0,0.0,0.0,0.0,1.1266,1.1904,0.0,0.0,0.0,1.6784,1.7269,1.7435,1.8167,1.7774,1.7143,0.0,0.0,0.0,0.0,0.0,0.0,0.0,0.0,0.0,0.0,0.0,0.0,0.0,0.0,0.0,0.0,0.0,0.0,0.0,0.0,0.0,0.0,0.0,0.9352,0.9339,0.7301,0.6167,0.6371,0.6163,0.6033,0.6025,0.6029,0.6099,0.6338,0.6338,0.6338,0.6338,0.6338,0.6338,0.6338,0.6338,0.6338,0.6338,0.6338,0.6338,0.6338,0.6338,0.6338,0.6338,0.6338,0.6349,0.6471,0.0,0.0,0.0,0.0,0.0,0.0,0.0,0.0,0.0,0.0,0.0,0.0,0.0,0.6646,0.6248,0.594,0.5433,0.5401,0.6087,0.724,0.796,0.8078,0.9982,1.1015,1.0813,1.194,1.2871,1.3643,1.3758,1.3758,1.3643,1.3062,1.2073,1.0629,0.9318,0.8343,0.7723,0.799,0.8626,0.9465,0.0,0.0,0.0,0.0,0.0,0.0,0.0,0.0,0.0,0.0,0.0,0.0,0.0,0.0,0.0,1.379,1.4569,1.5426,1.6477,1.6733,1.6864,1.7451,1.7185,1.6659,1.6325,1.5782,0.0,0.0,0.0,0.0,0.0,0.0,0.0,0.0,0.0,0.0,0.0,0.0,0.0,0.0,0.0,0.0,0.0,0.0,0.0,0.0,0.0,0.0,0.9367,0.7829,0.674,0.6338,0.6099,0.6098,0.6162,0.6088,0.6099,0.6338,0.6338,0.6338,0.6338,0.6338,0.6338,0.6338,0.6338,0.6338,0.6338,0.6338,0.6338,0.6338,0.6338,0.6338,0.6338,0.6338,0.6413,0.6603,0.0,0.0,0.0,0.0,0.0,0.0,0.0,0.0,0.0,0.0,0.0,0.0,0.0,0.0,0.7866,0.7852,0.7212,0.7008,0.7428,0.8454,0.894,0.8758,1.0493,1.1366,1.1166,1.2039,1.3025,1.4118,1.392,1.392,1.4061,1.3416,1.2638,1.1765,1.0375,0.9356,0.8705,0.8501,0.0,1.0115,0.0,0.0,0.9814,0.0,0.0,0.0,0.0,0.0,0.0,0.0,0.0,0.0,0.0,0.0,0.0,0.0,0.0,1.5349,1.5938,1.6263,1.6448,1.6755,1.6724,1.6475,1.6146,0.0,0.0,0.0,0.0,0.0,0.0,0.0,0.0,0.0,0.0,0.0,0.0,0.0,0.0,0.0,0.0,0.0,0.0,0.0,0.0,0.0,0.0,0.0,0.9857,0.8426,0.7169,0.6266,0.5982,0.5957,0.6207,0.5998,0.608,0.6338,0.6338,0.6338,0.6338,0.6338,0.6338,0.6338,0.6338,0.6338,0.6338,0.6338,0.6338,0.6338,0.6338,0.6338,0.6345,0.6315,0.6488,0.6695,0.0,0.0,0.0,0.0,0.0,0.0,0.0,0.0,0.0,0.0,0.0,0.0,0.0,0.0,0.0,0.9624,0.8875,0.877,0.9496,0.9703,1.0054,1.0762,1.0813,1.1166,1.1765,1.1814,1.2178,1.2929,1.3515,1.3457,1.2929,1.3505,1.3082,1.1814,1.1814,1.1466,1.0821,0.0,1.0218,1.0762,0.0,0.9865,0.9762,0.0,0.0,0.0,1.0115,1.1191,0.0,0.0,0.0,0.0,0.0,0.0,0.0,0.0,0.0,0.0,0.0,0.0,0.0,1.6115,1.6387,1.6602,1.6182,0.0,0.0,0.0,0.0,0.0,0.0,0.0,0.0,0.0,0.0,0.0,0.0,0.0,0.0,0.0,0.0,0.0,0.0,0.0,0.0,0.0,0.0,1.0834,1.0825,0.8861,0.7219,0.6036,0.5741,0.5711,0.6026,0.585,0.5956,0.6261,0.6261,0.6338,0.6338,0.6338,0.6338,0.6338,0.6338,0.6338,0.6338,0.6338,0.6338,0.6338,0.6338,0.6342,0.6285,0.642,0.6573,0.6729,0.0,0.0,0.0,0.0,0.0,0.0,0.0,0.0,0.0,0.0,0.0,0.0,1.1332,1.1305,1.1019,1.0482,1.0108,1.0019,1.0424,1.0931,1.0897,1.0115,1.1543,1.194,1.1116,1.2089,1.289,1.3552,1.3286,1.3286,1.3552,1.3286,1.2958,1.2559,1.203,1.1981,1.2255,1.1023,0.0,1.1516,1.1316,1.0965,0.0,0.0,0.0,0.0,0.0,1.2049,1.2129,0.0,1.2049,1.1536,0.0,0.0,0.0,0.0,0.0,0.0,1.5293,0.0,0.0,0.0,0.0,0.0,1.6504,1.6543,0.0,0.0,0.0,0.0,0.0,0.0,0.0,0.0,0.0,0.0,0.0,0.0,0.0,0.0,0.0,0.0,0.0,0.0,0.0,0.0,1.2391,1.1878,1.1156,0.9018,0.7299,0.6259,0.5908,0.5816,0.5965,0.5858,0.5879,0.6099,0.6257,0.6338,0.6338,0.6338,0.6338,0.6338,0.6338,0.6338,0.6338,0.6338,0.6338,0.6338,0.6338,0.6325,0.6417,0.6458,0.6637,0.6871,0.0,0.0,0.0,0.0,0.0,0.0,0.0,0.0,0.0,0.0,0.0,0.0,1.257,0.0,1.2196,1.1715,1.1536,1.15,1.1674,1.2039,1.1783,1.0661,1.1783,1.2039,1.1266,1.2039,1.2832,1.3685,1.3144,1.3244,1.3901,1.3224,1.2969,1.3135,1.2527,1.251,1.2891,0.0,0.0,0.0,1.1913,0.0,0.0,1.1841,1.1683,0.0,0.0,0.0,1.2295,1.2393,1.1733,0.0,0.0,0.0,0.0,0.0,0.0,0.0,0.0,0.0,0.0,0.0,0.0,0.0,1.6631,1.6665,1.6826,0.0,0.0,0.0,0.0,0.0,0.0,0.0,0.0,0.0,0.0,0.0,0.0,0.0,0.0,0.0,0.0,0.0,0.0,1.2835,1.2786,1.2069,1.0506,0.9103,0.7685,0.6229,0.5943,0.5868,0.5933,0.5905,0.5915,0.6018,0.618,0.6338,0.6338,0.6338,0.6338,0.6338,0.6338,0.6338,0.6268,0.6325,0.6315,0.6345,0.6325,0.64,0.6488,0.6617,0.6776,0.6939,0.0,0.0,0.0,0.0,0.0,0.0,0.0,0.0,0.0,0.0,1.348,1.382,0.0,0.0,0.0,0.0,1.2929,1.2881,1.2881,1.2881,0.0,0.0,1.1864,1.1913,1.1904,1.2049,1.262,1.37,1.3323,1.352,1.4149,1.3351,1.3125,1.3418,1.3047,0.0,0.0,0.0,0.0,1.2968,1.2372,1.2076,0.0,0.0,1.1366,0.0,1.1873,1.2344,1.2774,1.1972,1.1316,0.0,0.0,0.0,0.0,0.0,1.3769,0.0,0.0,0.0,0.0,0.0,0.0,0.0,1.6621,1.6665,1.6908,0.0,0.0,0.0,0.0,0.0,0.0,0.0,0.0,0.0,0.0,0.0,0.0,0.0,0.0,0.0,0.0,1.2902,1.2875,1.2852,1.2738,1.1655,0.9263,0.9032,0.8035,0.6099,0.5902,0.5795,0.5808,0.5908,0.5999,0.5989,0.617,0.6338,0.6338,0.6338,0.6338,0.6338,0.6355,0.6352,0.6271,0.6413,0.639,0.6278,0.6434,0.6498,0.6532,0.682,0.6939,0.697,0.0,0.0,0.0,0.0,0.0,0.0,0.0,0.0,0.0,1.4318,1.4411,1.4503,1.4514,0.0,0.0,0.0,1.32,1.2881,1.2881,1.2881,0.0,1.1814,1.2344,1.2638,1.2628,1.3569,1.4405,1.5099,1.4885,1.4674,1.4497,1.3751,1.3252,1.2998,1.292,1.2881,1.2929,0.0,0.0,1.3668,1.3924,0.0,1.3202,1.2674,1.2197,1.1864,1.2452,1.2774,1.2715,0.0,1.0914,1.083,0.0,0.0,0.0,0.0,0.0,0.0,0.0,0.0,0.0,0.0,0.0,0.0,1.6553,1.6665,1.6706,0.0,0.0,0.0,0.0,0.0,0.0,0.0,0.0,0.0,0.0,0.0,0.0,0.0,0.0,0.0,0.0,1.3279,1.3406,1.3467,1.2559,1.099,0.8383,0.8196,0.7626,0.6261,0.6081,0.5976,0.5959,0.5983,0.6001,0.602,0.6183,0.6338,0.6338,0.6338,0.6338,0.6268,0.638,0.6366,0.6271,0.6413,0.639,0.6288,0.6552,0.6658,0.6678,0.6861,0.7,0.7102,1.0366,1.1214,0.0,0.0,0.0,0.0,0.0,0.0,1.5872,1.5608,1.5784,1.5872,1.5564,0.0,0.0,0.0,0.0,0.0,0.0,0.0,0.0,1.2344,1.2987,1.3314,1.3321,1.4112,1.4963,1.5856,1.5028,1.4954,1.5532,1.4152,1.3506,1.3496,1.3281,1.3193,1.3273,0.0,1.4919,1.4805,1.4401,0.0,1.3675,1.3443,1.2929,1.2393,1.2774,1.2461,1.1692,1.0669,1.0064,0.0,0.0,1.1201,1.1884,0.0,1.3193,1.333,0.0,0.0,0.0,1.4678,0.0,0.0,0.0,1.6023,1.603,0.0,0.0,0.0,0.0,0.0,0.0,0.0,0.0,0.0,0.0,0.0,0.0,0.0,0.0,0.0,0.0,1.3526,1.3339,1.2825,1.2116,1.0684,0.8229,0.804,0.752,0.6407,0.6237,0.6132,0.6029,0.6088,0.6088,0.6029,0.6213,0.6338,0.6338,0.6338,0.6338,0.6345,0.641,0.643,0.6383,0.6607,0.6614,0.6495,0.6641,0.6749,0.6841,0.7068,0.7146,0.716,1.1348,1.1904,1.2645,0.0,0.0,0.0,0.0,0.0,1.7175,1.6773,1.7162,1.7162,1.6476,0.0,0.0,0.0,0.0,0.0,0.0,0.0,0.0,0.0,1.3535,1.3861,1.3779,1.4387,1.5254,1.6439,1.5174,1.5284,1.6549,1.4646,1.3896,1.4058,1.3691,1.3555,1.3714,0.0,0.0,1.5521,0.0,1.4153,1.4146,1.3834,1.3349,1.2791,1.2548,1.1692,1.0517,0.9961,0.0,0.9008,1.0218,1.0712,0.0,0.0,0.0,0.0,0.0,0.0,0.0,0.0,0.0,1.5254,0.0,0.0,0.0,1.5695,0.0,0.0,0.0,0.0,0.0,0.0,0.0,0.0,0.0,0.0,0.0,0.0,0.0,0.0,0.0,1.3868,1.3349,1.2187,1.1641,1.0482,0.8384,0.7934,0.741,0.6539,0.6396,0.622,0.6022,0.618,0.618,0.6022,0.6257,0.6338,0.6338,0.6338,0.6338,0.6349,0.6441,0.6502,0.6498,0.6803,0.6858,0.6749,0.6773,0.6844,0.6959,0.7227,0.7265,0.7221,1.2194,1.2955,1.3782,1.4595,0.0,0.0,0.0,0.0,1.7463,1.7854,1.7973,0.0,0.0,0.0,0.0,0.0,0.0,0.0,1.3684,0.0,0.0,0.0,0.0,1.3972,1.3789,1.5079,1.6173,1.7181,1.6515,1.6446,1.6888,1.5348,1.4463,1.4058,1.3691,1.3711,1.4096,0.0,1.4758,0.0,1.5125,1.5465,0.0,1.4062,1.3113,1.2389,1.1404,1.0568,0.9917,0.0,0.9361,0.8903,0.0,1.0312,0.0,0.0,0.0,0.0,0.0,0.0,0.0,0.0,1.4194,0.0,0.0,0.0,1.4859,1.5238,0.0,0.0,0.0,0.0,0.0,0.0,0.0,0.0,0.0,0.0,0.0,0.0,0.0,0.0,0.0,0.0,1.4229,1.2783,1.1697,1.0378,0.8689,0.7617,0.6857,0.6488,0.6508,0.6437,0.6261,0.6261,0.6261,0.6261,0.6261,0.6338,0.6338,0.6338,0.6338,0.6278,0.6556,0.6597,0.6498,0.6803,0.6919,0.6915,0.7041,0.7024,0.6949,0.7105,0.7241,0.735,1.3693,1.4378,1.5097,1.5592,0.0,0.0,0.0,0.0,0.0,1.928,1.8887,0.0,0.0,0.0,0.0,0.0,0.0,1.3552,0.0,0.0,0.0,0.0,0.0,0.0,1.4558,1.5773,1.6635,1.7002,1.6655,1.6557,1.6687,1.5386,1.4687,1.4492,1.4433,0.0,1.4602,0.0,1.5918,0.0,0.0,0.0,0.0,1.4084,1.3036,1.1906,1.0675,1.0064,0.9762,0.0,0.9008,0.0,0.0,0.0,0.0,0.0,0.0,0.0,0.0,0.0,0.0,0.0,0.0,0.0,0.0,0.0,1.463,0.0,0.0,0.0,0.0,0.0,0.0,0.0,0.0,0.0,0.0,0.0,0.0,0.0,0.0,0.0,0.0,0.0,0.0,0.0,0.0,1.0124,0.7871,0.7218,0.6881,0.6774,0.6575,0.6506,0.6419,0.6338,0.6338,0.6338,0.6338,0.6338,0.6338,0.6338,0.6305,0.6393,0.6607,0.6715,0.6753,0.6963,0.7051,0.7058,0.7115,0.7102,0.7082,0.7319,0.739,0.7407,1.5591,1.5831,1.6109,1.6545,0.0,0.0,0.0,0.0,0.0,0.0,0.0,0.0,1.7096,1.6621,0.0,0.0,1.4143,1.3815,0.0,0.0,1.3457,1.334,1.4437,0.0,0.0,0.0,1.644,1.6576,1.6308,1.6322,1.6482,1.5429,1.4951,1.4998,1.5375,1.5416,1.5391,0.0,1.6949,1.5575,1.6256,1.5606,1.4223,1.3451,1.2391,1.1116,0.9969,0.951,0.9458,0.8956,0.8804,0.0,0.9361,0.0,0.0,0.0,0.0,0.0,1.3176,0.0,0.0,0.0,0.0,0.0,0.0,0.0,0.0,0.0,0.0,0.0,0.0,0.0,0.0,0.0,0.0,0.0,0.0,0.0,0.0,0.0,0.0,0.0,0.0,0.0,0.0,1.181,1.1351,1.0097,0.769,0.7184,0.6898,0.6844,0.6624,0.6507,0.6423,0.6338,0.6338,0.6338,0.6338,0.6338,0.6264,0.6302,0.6376,0.6481,0.6678,0.6827,0.6939,0.7082,0.7139,0.7143,0.7187,0.7204,0.7231,0.7455,0.7516,0.7539,1.7875,1.7109,1.6566,1.7096,0.0,0.0,0.0,0.0,0.0,0.0,0.0,0.0,0.0,0.0,0.0,0.0,0.0,1.3815,1.3815,0.0,1.333,0.0,1.4155,1.4429,0.0,0.0,1.5622,1.5933,1.5585,1.5806,1.6492,1.5738,1.5391,1.5449,1.626,1.6543,1.6528,1.7401,1.707,1.5869,1.5447,1.4348,1.288,0.0,1.0866,0.9762,0.9061,0.0,0.0,0.8811,0.8804,0.0,0.0,0.0,0.0,0.0,0.0,0.0,0.0,0.0,0.0,1.5059,0.0,0.0,0.0,0.0,1.4305,0.0,0.0,0.0,0.0,0.0,0.0,0.0,0.0,0.0,0.0,0.0,0.0,0.0,0.0,0.0,0.0,0.0,0.0,1.3294,1.1894,1.047,0.8886,0.7775,0.6954,0.6675,0.666,0.6577,0.6345,0.6338,0.6338,0.6338,0.6338,0.6338,0.6268,0.6403,0.6468,0.6488,0.679,0.6922,0.6939,0.7082,0.7139,0.7153,0.7305,0.7363,0.7366,0.7373,0.7556,0.7797,1.8927,1.8559,1.8104,0.0,0.0,0.0,0.0,2.0834,0.0,0.0,0.0,0.0,0.0,0.0,1.5496,0.0,0.0,1.3372,1.3768,1.3861,0.0,0.0,0.0,1.4932,0.0,0.0,0.0,1.5575,1.5955,1.6036,1.5758,1.5526,1.5633,1.613,1.6589,1.695,0.0,0.0,0.0,0.0,0.0,1.3717,1.2452,0.0,0.0,1.0312,0.9211,0.8804,0.0,0.8804,0.8804,0.8804,0.8804,0.8956,0.9361,1.0466,1.0965,0.0,0.0,0.0,1.333,1.4316,0.0,0.0,0.0,0.0,0.0,0.0,0.0,0.0,0.0,0.0,0.0,0.0,0.0,0.0,0.0,0.0,0.0,0.0,0.0,0.0,0.0,0.0,0.0,1.3034,1.169,1.0285,0.8937,0.7867,0.7214,0.6957,0.6826,0.6661,0.6581,0.6419,0.6338,0.6338,0.6338,0.6338,0.6342,0.6312,0.6437,0.6627,0.6732,0.6888,0.7071,0.7122,0.7139,0.7156,0.7312,0.7434,0.7533,0.7628,0.7726,0.7824,1.9492,1.9536,0.0,0.0,0.0,0.0,0.0,0.0,0.0,0.0,1.9347,0.0,1.6625,0.0,1.533,0.0,1.3789,1.3347,1.3682,1.366,0.0,1.3516,1.4297,0.0,0.0,0.0,0.0,1.5186,1.5793,1.5864,1.541,1.541,1.5642,1.6151,1.6899,1.7234,1.7257,0.0,1.739,0.0,0.0,1.3364,0.0,0.0,1.0216,1.0312,0.0,0.8804,0.8804,0.8804,0.8804,0.8804,0.8804,0.8804,0.9061,1.0415,1.0813,1.115,1.2691,1.3213,0.0,1.4375,1.5117,0.0,1.5658,0.0,0.0,0.0,0.0,0.0,0.0,0.0,0.0,1.2513,1.2716,0.0,0.0,1.3348,0.0,0.0,0.0,0.0,0.0,0.0,1.4218,1.2914,1.1536,1.0301,0.0,0.0,0.7319,0.7146,0.6956,0.675,0.6662,0.6419,0.6338,0.6338,0.6312,0.6312,0.6345,0.6427,0.6573,0.6705,0.681,0.6963,0.7139,0.7139,0.7139,0.716,0.737,0.7512,0.7617,0.7756,0.7845,0.7906,0.0,0.0,0.0,0.0,2.1361,0.0,0.0,0.0,2.0108,0.0,1.7961,1.7102,1.6509,1.5908,1.532,1.4698,1.4097,0.0,1.3498,1.3125,0.0,0.0,1.3516,1.3525,1.3506,0.0,0.0,0.0,1.5205,1.541,1.541,1.541,1.542,1.5537,1.7203,1.7459,1.6633,1.7585,1.7368,1.628,1.4525,1.3332,1.2368,1.1054,1.0249,0.971,0.9061,0.8804,0.8804,0.8804,0.8804,0.8804,0.8804,0.8804,0.9061,1.0415,1.0813,1.1201,1.2985,1.3769,1.4223,1.5137,0.0,0.0,0.0,0.0,1.4279,0.0,0.0,0.0,0.0,0.0,0.0,1.197,1.2137,0.0,0.0,0.0,0.0,0.0,0.0,0.0,0.0,1.4838,1.4041,1.2935,1.1614,1.0409,0.0,0.0,0.7556,0.7146,0.7139,0.6949,0.6528,0.6507,0.6419,0.6342,0.6396,0.6393,0.6285,0.6705,0.6824,0.6715,0.6997,0.7122,0.7129,0.7136,0.7139,0.717,0.7478,0.7607,0.7638,0.7773,0.7916,0.8038,2.0158,2.0957,2.2079,0.0,2.2968,2.243,0.0,0.0,0.0,0.0,1.8462,1.7476,1.5988,1.5276,1.4698,1.4097,1.3467,0.0,0.0,0.0,0.0,1.3047,1.3643,1.3828,1.3516,1.4346,0.0,1.4785,1.5205,1.541,1.541,1.541,1.5869,1.6791,1.7197,1.7568,1.7805,1.7541,1.6732,1.5593,1.4853,1.3929,0.0,0.0,1.0649,0.971,0.9061,0.8804,0.8804,0.8804,0.8804,0.8804,0.8804,0.8804,0.9061,1.0415,1.0813,1.1141,1.2643,1.3125,1.3408,1.4248,1.4326,1.4218,0.0,0.0,0.0,0.0,0.0,0.0,0.0,0.0,0.0,0.0,0.0,0.0,0.0,0.0,0.0,1.4088,0.0,0.0,1.4636,1.417,1.3833,1.3778,1.2492,1.1351,1.0423,0.0,0.0,0.734,0.7143,0.6963,0.6675,0.6534,0.6419,0.6338,0.6298,0.6349,0.6417,0.6427,0.6529,0.6705,0.678,0.6878,0.699,0.7095,0.7139,0.717,0.7478,0.7733,0.7929,0.7967,0.8007,0.8038,2.1057,0.0,0.0,2.5118,0.0,0.0,2.286,0.0,0.0,1.8482,1.8048,0.0,1.5637,1.5005,1.4468,1.3862,1.3238,0.0,0.0,0.0,0.0,1.3154,1.3437,1.3477,1.3242,1.3887,0.0,1.4502,0.0,1.5508,1.5703,1.5898,1.6356,1.6961,1.7226,1.7369,1.7585,1.6968,1.6337,1.5654,1.5213,0.0,0.0,1.198,1.0769,0.9309,0.8956,0.8804,0.8804,0.8804,0.8804,0.8804,0.8804,0.8804,0.9061,1.0415,1.0813,1.1124,1.252,1.3018,1.321,1.3531,1.3617,1.3529,1.3204,1.2971,1.2511,0.0,0.0,0.0,0.0,0.0,0.0,0.0,0.0,0.0,0.0,0.0,0.0,0.0,1.3583,0.0,1.4271,1.3781,1.3585,1.4076,1.2959,1.1911,0.0,0.0,0.0,0.7546,0.7465,0.7152,0.6718,0.6718,0.6578,0.6338,0.6325,0.6363,0.638,0.643,0.6508,0.6607,0.6742,0.6851,0.6939,0.7082,0.7139,0.717,0.7478,0.778,0.8038,0.8038,0.8038,0.8038,0.0,0.0,0.0,0.0,0.0,0.0,0.0,2.1307,0.0,1.7315,0.0,1.6636,1.5277,1.4804,1.4329,1.3732,0.0,1.3037,1.3398,1.3086,1.3047,1.3408,1.3076,1.2881,1.2881,1.3291,0.0,0.0,0.0,1.5664,1.6223,1.6553,1.6758,1.6836,1.7217,1.7139,0.0,1.6269,1.6045,1.5937,1.5478,1.3983,1.2145,1.1974,1.0639,0.8864,0.8811,0.8804,0.8804,0.8804,0.8804,0.8804,0.8804,0.8804,0.9061,1.0312,1.0669,1.0973,1.2255,1.2886,1.3096,1.2797,1.297,1.3125,1.2638,1.2491,1.2186,1.1445,1.155,1.1536,0.0,0.0,0.0,0.0,0.0,0.0,0.0,0.0,0.0,0.0,0.0,0.0,1.4033,1.3568,1.3499,1.4022,1.332,1.2359,0.0,0.0,0.0,0.7836,0.7834,0.0,0.6796,0.0,0.6662,0.6342,0.6465,0.639,0.6298,0.6556,0.661,0.6519,0.6803,0.6929,0.6939,0.7082,0.7163,0.7227,0.7495,0.778,0.8038,0.8038,0.8038,0.8038,0.0,0.0,0.0,0.0,0.0,2.3142,2.2102,2.01,1.8183,1.6714,1.6154,1.5461,1.4215,1.401,1.3684,1.3104,1.2968,0.0,0.0,0.0,0.0,1.2988,1.292,1.2881,1.2881,1.3291,1.3887,0.0,0.0,1.583,1.6621,1.6699,1.6924,1.7275,1.7344,1.7139,1.6646,1.6296,0.0,1.5449,1.4683,1.3642,1.2414,1.1472,1.0302,0.9109,0.8871,0.8804,0.8804,0.8804,0.8804,0.8804,0.8804,0.8804,0.8956,0.9762,0.9961,1.0167,1.0973,1.1226,1.1362,1.1684,1.1462,1.1284,1.1496,1.1267,1.09,1.0779,1.0942,1.1169,1.1263,0.0,0.0,0.0,0.0,0.0,0.0,0.0,0.0,0.0,0.0,0.0,0.0,1.3767,1.3682,1.4096,1.4139,0.0,0.0,0.0,0.0,0.0,0.8122,0.0,0.0,0.0,0.674,0.6659,0.6443,0.6346,0.6437,0.6488,0.6566,0.6671,0.6851,0.6929,0.6939,0.7082,0.7292,0.7522,0.758,0.778,0.8038,0.8038,0.8038,0.8038,0.0,0.0,0.0,0.0,0.0,0.0,0.0,1.8636,0.0,1.5904,1.5684,1.5068,1.3805,1.3734,1.3552,1.2978,1.2881,1.2881,1.2881,1.2881,1.2881,1.2881,1.2881,0.0,1.2881,1.3076,1.3711,1.4785,0.0,1.5977,1.708,1.7295,1.751,1.7695,1.748,1.7266,0.0,0.0,0.0,1.5681,1.5069,1.3812,1.2257,1.1744,1.0453,0.899,0.8864,0.8804,0.8804,0.8804,0.8804,0.8804,0.8804,0.8804,0.8956,0.9614,0.9814,0.9969,1.0618,1.0813,1.0802,1.0852,1.0768,1.071,1.0685,1.0643,1.0624,1.0624,1.0675,1.0811,1.0899,1.1049,0.0,0.0,0.0,0.0,0.0,0.0,0.0,0.0,0.0,0.0,0.0,0.0,0.0,0.0,0.0,0.0,0.0,0.0,0.0,0.0,0.0,0.0,0.0,0.0,0.0,0.6581,0.6496,0.6369,0.6363,0.6363,0.6441,0.659,0.6746,0.6854,0.6939,0.7082,0.7322,0.76,0.76,0.778,0.8038,0.8038,0.8038,0.8038,0.0,2.7932,0.0,0.0,2.3555,0.0,2.0241,1.7513,1.5551,1.5391,1.5317,1.4897,1.3701,1.3721,1.3552,1.2978,1.2881,1.2881,1.2881,1.2881,1.2881,1.2881,1.2881,1.2881,1.2881,1.2881,1.3467,0.0,0.0,1.6045,1.7256,1.7773,1.7959,1.7861,0.0,0.0,0.0,0.0,1.6049,1.5894,1.5361,1.3979,1.2177,1.1938,1.0612,0.8871,0.8811,0.8804,0.8804,0.8804,0.8804,0.8804,0.8804,0.8804,0.891,0.9413,0.9562,0.9718,1.021,1.0364,1.0332,1.0036,1.0231,1.0415,1.0086,1.0301,1.0624,1.0624,1.0434,1.0276,1.0119,1.0024,0.0,0.0,0.0,0.0,0.0,0.0,0.0,0.0,0.0,0.0,0.0,0.0,0.0,0.0,0.0,1.3213,1.1287,1.1577,0.0,0.0,0.0,0.7555,0.7238,0.0,0.6933,0.0,0.6517,0.6413,0.6305,0.6339,0.6434,0.6576,0.6729,0.6861,0.6987,0.7129,0.735,0.7604,0.7634,0.7804,0.8038,0.8038,0.8038,0.8038,0.0,0.0,0.0,0.0,0.0,0.0,0.0,1.7513,1.5599,1.5558,1.5131,1.4545,1.3842,1.38,1.3552,1.2978,1.2881,1.2881,1.2881,1.2881,1.2881,1.2881,1.2881,1.2881,1.2881,1.2881,1.3311,0.0,0.0,1.5889,1.6807,1.7627,1.7803,0.0,0.0,0.0,0.0,1.6159,1.5827,1.541,1.4597,1.3596,1.244,1.1407,1.0265,0.9109,0.8871,0.8804,0.8804,0.8804,0.8804,0.8804,0.8804,0.8804,0.8804,0.8857,0.891,0.891,0.8956,0.9008,0.8962,0.8944,0.9376,0.9802,0.9719,1.016,1.0624,1.0624,0.9977,0.9302,0.8981,0.8591,0.8797,0.0,0.0,0.0,0.0,0.0,0.0,0.0,0.0,0.0,0.0,1.1621,0.0,0.0,1.2227,1.2875,1.3704,1.2073,1.1051,1.0739,0.0,0.7654,0.7698,0.717,0.6917,0.6829,0.6613,0.6464,0.6458,0.6597,0.6742,0.6895,0.7037,0.7105,0.7132,0.7285,0.7448,0.7611,0.774,0.7892,0.8038,0.8038,0.8038,0.8038,0.0,0.0,0.0,0.0,0.0,0.0,0.0,1.6733,1.5186,1.5543,1.4778,1.392,1.3334,1.3238,1.3152,1.2929,1.2881,1.2881,1.2881,1.2881,1.2881,1.2881,1.2881,1.2881,1.2881,1.2881,1.3291,0.0,0.0,0.0,0.0,1.7353,1.7402,0.0,0.0,1.6436,1.6091,1.5799,1.5556,1.5313,1.4508,1.3453,1.2192,1.1248,1.007,0.893,0.8864,0.8804,0.8804,0.8804,0.8804,0.8804,0.8804,0.8804,0.8804,0.8804,0.8804,0.8804,0.8804,0.8804,0.8804,0.8804,0.9252,0.9686,0.9686,1.0201,1.0624,1.0624,0.9518,0.8521,0.8434,0.8049,0.7995,0.0,0.0,0.0,0.0,0.0,0.0,0.0,0.0,0.0,0.0,0.0,0.0,0.0,0.0,1.2881,1.3049,1.2717,1.1859,1.0381,0.0,0.8247,0.7694,0.7231,0.6991,0.6877,0.6817,0.6698,0.661,0.6671,0.6783,0.6936,0.7078,0.7139,0.7153,0.7309,0.7461,0.7614,0.7756,0.7906,0.8038,0.8038,0.8038,0.8038,2.6143,0.0,2.4498,0.0,2.0887,1.9128,1.7875,1.6136,1.5005,1.5039,1.4318,1.3647,1.319,1.3152,1.3104,1.2929,1.2881,1.2881,1.2881,1.2881,1.2881,1.2881,1.2881,0.0,1.2881,1.2881,1.3174,1.3769,1.4746,0.0,0.0,0.0,0.0,0.0,1.624,1.6004,1.5846,1.5517,1.541,1.5332,1.4496,1.3425,1.2172,1.1223,1.0082,0.8925,0.8838,0.8804,0.8804,0.8804,0.8804,0.8804,0.8804,0.8804,0.8804,0.8804,0.8804,0.8804,0.8804,0.8804,0.8831,0.8911,0.9312,0.9706,0.9793,1.02,1.0428,0.997,0.8672,0.755,0.744,0.7104,0.7168,0.8107,0.0,0.0,0.0,0.0,0.0,0.0,1.0165,0.9875,0.931,0.8356,0.0,0.0,0.0,0.0,1.2808,1.3081,0.0,0.0,0.0,0.0,0.0,0.7785,0.7415,0.6868,0.6907,0.6871,0.677,0.681,0.6888,0.6997,0.7095,0.7166,0.7221,0.7373,0.7526,0.7675,0.7821,0.7943,0.8038,0.8038,0.8038,0.8038,2.4986,2.4158,2.2931,2.0481,1.9033,1.7815,1.6608,1.5932,1.5174,1.4003,1.3815,1.3815,1.3779,1.3779,1.3552,1.2978,1.2881,1.2881,1.2881,1.2881,1.2881,0.0,0.0,1.2881,1.2881,1.2881,1.2881,1.29,0.0,0.0,1.4834,0.0,1.6494,1.6135,1.612,1.5817,1.542,1.542,1.541,1.5303,1.4514,1.357,1.2448,1.1308,1.0163,0.9143,0.8911,0.8804,0.8804,0.8804,0.8804,0.8804,0.8804,0.8804,0.8804,0.8804,0.8804,0.8804,0.8804,0.8804,0.8878,0.911,0.9459,0.976,1.0047,1.0347,1.0104,0.8415,0.7307,0.6461,0.5561,0.5432,0.6074,0.8053,0.0,0.0,0.0,0.0,0.0,0.0,1.0449,1.0019,0.7606,0.0,0.0,0.0,0.0,0.0,0.0,0.0,0.0,1.2944,1.1581,0.0,0.9474,0.9066,0.8239,0.6868,0.6907,0.6926,0.6929,0.7071,0.7136,0.7139,0.7139,0.7227,0.738,0.7533,0.7682,0.7824,0.7977,0.8038,0.8038,0.8038,0.8038,0.8038,2.345,2.2454,2.1332,2.0192,1.9021,1.7803,1.6596,1.5602,1.4698,1.3909,1.342,1.32,1.32,1.32,1.3104,0.0,1.2881,1.2881,0.0,1.2881,1.2881,1.2881,1.2881,1.3018,1.3301,1.3311,1.3447,1.374,0.0,0.0,0.0,1.6704,1.6806,1.6366,1.5831,1.5517,1.541,1.541,1.541,1.5294,1.3907,1.3075,1.2447,1.0924,1.0007,0.9526,0.9439,0.9406,0.9372,0.9172,0.905,0.9065,0.8871,0.8804,0.8804,0.8804,0.8945,0.905,0.905,0.9252,0.9426,0.9519,0.976,1.0007,1.0094,0.9906,0.953,0.9005,0.7697,0.6588,0.633,0.5818,0.5837,0.7065,0.7686,0.0,0.0,0.0,0.0,0.0,0.0,0.7865,0.0,0.6978,0.0,0.0,0.0,0.0,0.0,0.0,0.0,0.0,1.2304,0.0,0.9535,0.9101,0.8239,0.7051,0.7007,0.7071,0.7075,0.7119,0.7139,0.7146,0.7251,0.7326,0.739,0.7641,0.777,0.7828,0.798,0.8038,0.8038,0.8038,0.8038,0.8038,2.2035,2.1369,2.0509,1.9482,1.8652,1.7557,1.5986,1.5081,1.4301,1.3573,1.3152,1.2881,1.2881,1.2881,0.0,1.2881,1.2881,1.2881,1.2881,1.3027,1.3115,1.3115,1.3271,1.3477,1.374,0.0,0.0,1.4077,1.4835,1.5655,1.6492,1.6785,1.6764,1.6492,1.5748,1.541,1.541,1.541,1.541,1.5235,1.3674,1.2877,1.2543,1.0813,1.0007,0.9833,0.9726,0.9686,0.9653,0.9472,0.9276,0.9176,0.9158,0.9058,0.8971,0.8971,0.9178,0.9406,0.9406,0.9546,0.9706,0.982,0.998,1.0147,1.0254,0.9529,0.8812,0.8812,0.7442,0.6203,0.6203,0.5752,0.5686,0.6588,0.7447,0.8205,0.8747,0.0,0.0,0.0,0.0,0.0,0.0,0.6518,0.7411,0.0,0.0,0.0,0.0,0.0,0.0,1.4041,1.3399,0.0,1.01,0.9763,0.8794,0.7234,0.7307,0.7275,0.7312,0.7255,0.7227,0.7234,0.7329,0.7404,0.7475,0.7712,0.7845,0.7906,0.8001,0.8038,0.8038,0.8038,0.8038,0.8038,2.0894,2.0746,0.0,0.0,1.8043,0.0,1.507,1.4559,1.4109,1.3106,1.2939,1.293,1.293,1.29,1.2881,1.2881,0.0,0.0,0.0,1.3291,1.3516,1.3545,1.3926,1.4097,1.4126,1.4126,1.418,1.4223,1.5442,1.6198,1.6599,1.6585,1.6595,1.6539,1.5748,1.541,1.541,1.541,1.541,1.5235,1.3674,1.3009,1.2785,1.0852,1.0147,1.0114,0.984,0.9746,0.974,0.9719,0.9532,0.9289,0.9599,0.9506,0.9243,0.9223,0.9479,0.9713,0.9713,0.9726,0.9813,1.008,1.0147,1.0221,1.0557,0.9256,0.8027,0.8027,0.6597,0.5428,0.5428,0.5435,0.5704,0.6482,0.7353,0.7912,0.7947,0.0,0.0,0.0,0.0,0.0,0.0,0.6455,0.7284,0.0,0.0,0.0,0.0,0.0,1.5273,1.5,1.4704,1.3425,1.1275,1.0968,0.966,0.7392,0.7566,0.7609,0.7604,0.7455,0.7387,0.7387,0.7397,0.7482,0.7628,0.777,0.7913,0.8038,0.8038,0.8038,0.8038,0.8038,0.8038,0.8038,0.0,0.0,1.9623,1.8236,1.7909,1.7275,1.53,1.4944,1.4666,1.39,1.3555,1.3359,1.3359,1.3076,1.2881,1.2881,1.2881,1.3018,1.334,1.3447,1.3652,1.3922,1.4029,1.4287,1.4629,1.4629,1.4894,1.5463,1.6613,1.7384,1.7728,1.7454,1.7357,1.7302,1.5968,1.541,1.541,1.541,1.541,1.5235,1.3674,1.3009,1.2818,1.1093,1.0454,1.0448,1.0436,1.0416,1.0383,1.0087,0.9967,0.988,0.9733,0.9786,0.9866,0.9646,0.9786,1.0013,1.0013,1.018,1.0367,1.0441,1.0454,1.0474,1.0611,0.9256,0.8027,0.8027,0.6597,0.5428,0.5428,0.5457,0.5603,0.5805,0.6611,0.7154,0.7158,0.7309,0.0,0.0,0.6622,0.6291,0.6167,0.6224,0.7367,0.0,0.0,0.0,0.0,1.4772,1.5039,1.5008,1.465,1.3802,1.2391,1.125,0.9557,0.7427,0.7525,0.7583,0.7607,0.7594,0.7546,0.7553,0.7658,0.7729,0.7773,0.7923,0.8007,0.8038,0.8038,0.8038,0.8038,0.8038,0.8038,0.8038,2.0346,2.0055,1.9418,1.8127,1.7821,1.7153,1.5384,1.4993,1.4733,1.416,1.3769,1.3506,1.3506,1.3135,1.2881,1.2881,1.2881,1.3057,1.3477,1.3506,1.3789,1.4404,1.4434,1.4639,1.5059,1.5068,1.5455,1.615,1.7115,1.7716,1.7879,1.7673,1.7413,1.7034,1.5911,1.541,1.541,1.541,1.541,1.5235,1.3649,1.2981,1.2826,1.124,1.0624,1.0624,1.0624,1.0624,1.0598,1.0374,1.0227,1.0114,1.0094,1.01,1.0114,1.0094,1.0194,1.0321,1.0321,1.0441,1.0624,1.0624,1.0624,1.0624,1.0624,0.9256,0.8027,0.8027,0.6597,0.5428,0.5428,0.5488,0.5589,0.5589,0.6741,0.755,0.7163,0.7419,0.0,0.7219,0.6497,0.6066,0.6142,0.621,0.7301,0.9611,0.0,0.0,1.4148,1.4733,1.4969,1.4962,1.4696,1.3984,1.2849,1.0968,0.9167,0.7627,0.7727,0.7778,0.7778,0.7724,0.7664,0.7699,0.7777,0.7811,0.7824,0.7977,0.8038,0.8038,0.8038,0.8038,0.8038,0.8038,0.8038,0.8038,1.9798,1.9798,1.943,1.8235,1.7783,1.7082,1.5563,1.5079,1.4746,1.4375,1.3965,1.3672,1.3613,1.3281,1.3047,1.2988,1.3037,1.3193,1.3486,1.3633,1.4023,1.4756,1.4844,1.5049,1.54,1.541,1.5806,1.6652,1.7191,1.7523,1.7731,1.7523,1.709,1.6492,1.5748,1.541,1.541,1.541,1.541,1.5245,1.364,1.3014,1.2826,1.124,1.0624,1.0624,1.0624,1.0624,1.0624,1.0624,1.0394,1.0227,1.0481,1.0388,1.0234,1.0551,1.0624,1.0624,1.0624,1.0624,1.0624,1.0624,1.0624,1.0624,1.0624,0.9256,0.8027,0.8027,0.6597,0.5435,0.5459,0.5518,0.5637,0.5684,0.7249,0.8141,0.7272,0.0,0.8136,0.735,0.6528,0.6099,0.6261,0.6338,0.7142,0.9184,0.9893,1.1341,0.0,1.4638,1.5001,1.5057,1.4767,1.388,1.2481,1.0507,0.8974,0.7836,0.7939,0.8038,0.8038,0.7836,0.7868,0.7845,0.7845,0.7845,0.7855,0.7984,0.8038,0.8038,0.8038,0.8038,0.8038,0.8038,0.8038,0.8038,1.9798,1.9798,1.9554,1.8713,1.8012,1.7313,1.6406,1.5723,1.5293,1.5225,1.4853,1.4443,1.4029,1.3922,1.3799,1.3437,1.374,1.3818,1.3525,1.4189,1.4648,1.4775,1.5127,1.5342,1.541,1.541,1.6083,1.7413,1.6922,1.7302,1.8489,1.7246,1.6595,1.6492,1.5748,1.541,1.541,1.541,1.541,1.5245,1.364,1.3014,1.2826,1.124,1.0624,1.0624,1.0624,1.0624,1.0624,1.0624,1.0598,1.0501,1.0611,1.0591,1.0501,1.0611,1.0624,1.0624,1.0624,1.0624,1.0624,1.0624,1.0624,1.0624,1.0624,0.9256,0.8027,0.8027,0.6597,0.5466,0.5532,0.5671,0.5854,0.6115,0.7025,0.7352,0.6598,0.0,0.731,0.6346,0.6252,0.6261,0.6261,0.6338,0.7223,0.9431,0.9988,1.1373,1.3951,1.4411,1.4803,1.5292,1.5029,1.367,1.1106,1.0881,0.9841,0.7836,0.7939,0.8038,0.8038,0.7939,0.7928,0.8004,0.8004,0.8004,0.8007,0.8028,0.8038,0.8038,0.8038,0.8038,0.8038,0.8038,0.8038,0.8038,1.9798,1.9798,1.9579,1.8821,1.834,1.7699,1.6652,1.5864,1.541,1.541,1.5049,1.4707,1.4502,1.4277,1.4053,1.3857,1.4238,1.4307,1.3877,1.4219,1.4639,1.5107,1.5088,1.5176,1.541,1.541,1.5921,1.7034,1.6652,1.6877,1.7523,1.6821,1.6322,1.5864,1.5526,1.541,1.541,1.541,1.541,1.5235,1.3649,1.2981,1.2826,1.124,1.0624,1.0624,1.0624,1.0624,1.0624,1.0624,1.0624,1.0624,1.0624,1.0624,1.0624,1.0624,1.0624,1.0624,1.0624,1.0624,1.0624,1.0624,1.0624,1.0498,0.9977,0.8935,0.7897,0.7372,0.6348,0.5504,0.5579,0.5772,0.5969,0.6112,0.7417,0.0,0.0,0.7934,0.8094,0.7127,0.6597,0.6338,0.6419,0.6419,0.7382,0.9596,1.0097,1.1403,1.3951,1.4371,1.4659,1.4874,1.5119,1.3749,1.0826,1.1177,1.0167,0.7836,0.7939,0.8038,0.8038,0.8038,0.8038,0.8038,0.8038,0.8038,0.8038,0.8038,0.8038,0.8038,0.8038,0.8038,0.8038,0.8038,0.8038,0.8038,1.9798,1.9798,1.9579,1.8821,1.8405,1.782,1.6652,1.5864,1.541,1.541,1.5127,1.4893,1.4795,1.457,1.433,1.4297,1.4678,1.4795,1.4453,1.4379,1.4678,1.5244,1.5049,1.5078,1.54,1.541,1.5864,1.6765,1.6425,1.6425,1.6765,1.6425,1.5921,1.541,1.541,1.541,1.541,1.541,1.541,1.5235,1.3674,1.3009,1.2826,1.124,1.0624,1.0624,1.0624,1.0624,1.0624,1.0624,1.0624,1.0624,1.0624,1.0672,1.0712,1.0645,1.0624,1.0624,1.0624,1.0624,1.0624,1.0624,1.0624,1.0384,0.9538,0.8701,0.7775,0.6915,0.6135,0.564,0.564,0.5854,0.6054,0.6122,0.0,0.0,0.0,0.857,0.8841,0.7629,0.6795,0.6338,0.65,0.65,0.7454,0.9807,1.0264,1.1479,1.4055,1.443,1.4494,1.4593,1.4959,1.3835,1.0952,1.1292,1.0315,0.7836,0.7939,0.8038,0.8038,0.8038,0.8038,0.8038,0.8038,0.8038,0.8038,0.8038,0.8038,0.8038,0.8038,0.8038,0.8038,0.8038,0.8038,0.8038,1.9798,1.9798,1.9579,1.8821,1.8112,1.7413,1.6595,1.5864,1.541,1.541,1.5381,1.5215,1.4824,1.5107,1.5156,1.4775,1.5117,1.5352,1.5322,1.5312,1.5176,1.4844,1.5176,1.5381,1.541,1.541,1.6083,1.7523,1.613,1.6187,1.7468,1.613,1.5468,1.541,1.541,1.541,1.541,1.541,1.541,1.5235,1.3674,1.3009,1.2826,1.124,1.0624,1.0624,1.0624,1.0624,1.0624,1.0624,1.0624,1.0624,1.0624,1.0742,1.0909,1.0641,1.0624,1.0624,1.0624,1.0624,1.0624,1.0624,1.0624,1.0366,0.9622,0.8807,0.7933,0.7052,0.6305,0.5786,0.5786,0.5918,0.6118,0.6393,0.0,0.0,0.6828,0.8194,0.8618,0.6644,0.6338,0.6338,0.65,0.65,0.7568,1.0135,1.0384,1.1595,1.4277,1.4457,1.4603,1.4986,1.4704,1.353,1.1457,1.1477,1.0319,0.7939,0.8038,0.8038,0.8038,0.8038,0.8038,0.8038,0.8038,0.8038,0.8038,0.8038,0.8038,0.8038,0.8038,0.8038,0.8038,0.8038,0.8038,0.8038,1.9798,1.9798,1.9639,1.9209,1.8351,1.7636,1.7368,1.6698,1.6133,1.585,1.5811,1.5654,1.5215,1.5312,1.5459,1.5566,1.5478,1.5527,1.5801,1.5557,1.5342,1.5176,1.5322,1.541,1.541,1.541,1.569,1.6244,1.569,1.569,1.6244,1.5633,1.541,1.541,1.541,1.5557,1.5811,1.5811,1.5977,1.6046,1.4377,1.3677,1.3485,1.1744,1.1096,1.1096,1.1096,1.0982,1.0855,1.1035,1.0982,1.0862,1.1042,1.1176,1.1209,1.0915,1.0828,1.0828,1.0828,1.0759,1.0665,1.0782,1.036,0.976,0.9064,0.822,0.722,0.6287,0.5987,0.5915,0.582,0.6003,0.621,0.6322,0.0,0.8641,0.6642,0.8051,0.8542,0.6567,0.6338,0.6419,0.6581,0.6659,0.7676,1.0319,1.055,1.1646,1.4088,1.4271,1.4565,1.524,1.4987,1.3731,1.1547,1.1614,1.0527,0.8038,0.8038,0.8038,0.8038,0.8038,0.8038,0.8038,0.8038,0.8038,0.8038,0.8038,0.8038,0.8038,0.8038,0.8038,0.8038,0.8038,0.8038,0.8038,2.0075,2.0213,2.0113,1.9316,1.8668,1.7986,1.7504,1.69,1.6357,1.5918,1.5859,1.5791,1.5635,1.5615,1.5791,1.623,1.5996,1.5957,1.625,1.5996,1.5703,1.542,1.541,1.541,1.541,1.5547,1.5664,1.5748,1.5802,1.5871,1.5958,1.5871,1.583,1.583,1.583,1.5996,1.6279,1.6279,1.6455,1.6538,1.4811,1.4082,1.3884,1.2091,1.1423,1.1423,1.1423,1.1296,1.1156,1.1356,1.1289,1.1162,1.1363,1.1423,1.1403,1.1296,1.1202,1.1129,1.1129,1.0982,1.0882,1.1082,1.0581,0.9826,0.8886,0.8155,0.7267,0.5958,0.5928,0.6054,0.5901,0.6084,0.6338,0.6338,0.8012,0.8694,0.7022,0.8237,0.8694,0.6945,0.649,0.6419,0.6659,0.6676,0.7737,1.0245,1.055,1.1646,1.399,1.4143,1.4562,1.5254,1.5217,1.4236,1.2268,1.2031,1.0839,0.8656,0.8244,0.8038,0.8038,0.8038,0.8038,0.8038,0.8038,0.8038,0.8038,0.8038,0.8038,0.8038,0.8038,0.8038,0.8038,0.8038,0.8038,0.8038,2.0731,2.1104,2.0896,1.9024,1.8908,1.8493,1.6821,1.6325,1.5918,1.5488,1.543,1.5596,1.6086,1.6125,1.625,1.6699,1.6665,1.6665,1.6665,1.6665,1.6338,1.5459,1.542,1.542,1.542,1.584,1.6267,1.6503,1.6657,1.6867,1.7204,1.6825,1.6665,1.6665,1.6665,1.6665,1.6738,1.6738,1.6738,1.6548,1.482,1.4098,1.3892,1.2098,1.143,1.143,1.143,1.143,1.143,1.143,1.143,1.143,1.143,1.143,1.149,1.1784,1.1657,1.143,1.143,1.143,1.143,1.143,1.143,1.0937,0.9181,0.8797,0.829,0.6396,0.6152,0.6213,0.6057,0.6156,0.6338,0.6338,0.8012,0.8917,0.7936,0.8694,0.8922,0.7936,0.6949,0.6419,0.6659,0.6706,0.769,1.0004,1.0459,1.1646,1.399,1.4371,1.4669,1.5007,1.5231,1.488,1.3921,1.2557,1.126,1.0004,0.8656,0.8038,0.8038,0.8038,0.8038,0.8038,0.8038,0.8038,0.8038,0.8038,0.8038,0.8038,0.8038,0.8038,0.8038,0.8038,0.8038,0.8038,2.1167,2.138,2.1269,2.0471,1.9895,1.9269,1.8596,1.8404,1.7958,1.6909,1.7262,1.7378,1.6605,1.6533,1.6709,1.7148,1.6914,1.6665,1.6665,1.6665,1.6548,1.6348,1.6338,1.6191,1.5879,1.6299,1.6527,1.6636,1.6664,1.6723,1.6845,1.6733,1.6665,1.6665,1.6665,1.6904,1.7187,1.7187,1.7353,1.7417,1.5609,1.4841,1.4633,1.2742,1.2037,1.2037,1.2037,1.1911,1.177,1.1971,1.1904,1.177,1.1977,1.2037,1.2017,1.1904,1.1804,1.1737,1.1737,1.1737,1.1737,1.1737,1.123,1.0432,0.9363,0.8595,0.7731,0.6271,0.6152,0.6213,0.6057,0.6156,0.6567,0.7249,0.8466,0.9221,0.8922,0.9197,0.9053,0.8043,0.7099,0.6659,0.6821,0.6881,0.7871,1.0288,1.2043,1.3425,1.4368,1.4422,1.4728,1.5291,1.5337,1.488,1.3921,1.2592,1.123,1.0004,0.8656,0.8038,0.8038,0.8038,0.8038,0.8038,0.8038,0.8038,0.8038,0.8038,0.8038,0.8038,0.8038,0.8038,0.8038,0.8038,0.8038,0.8038,2.1744,2.1995,2.1923,2.1323,2.0864,2.0347,1.9832,1.9351,1.8674,1.7738,1.7731,1.7627,1.7056,1.6992,1.7168,1.7598,1.7393,1.7236,1.7236,1.7236,1.7158,1.7002,1.7148,1.6953,1.6338,1.6768,1.6904,1.6665,1.707,1.7148,1.6992,1.7158,1.7236,1.7236,1.7236,1.7383,1.7637,1.7637,1.7773,1.7872,1.6376,1.5525,1.5021,1.3448,1.2592,1.2305,1.2305,1.2191,1.2064,1.2245,1.2184,1.2071,1.2245,1.2305,1.2265,1.2091,1.2037,1.2037,1.2037,1.2037,1.2037,1.2037,1.1597,1.0894,1.0088,0.9442,0.8647,0.7559,0.7403,0.7291,0.681,0.6801,0.6945,0.7176,0.8389,0.9296,0.9296,0.9392,0.9266,0.8663,0.7478,0.6763,0.6925,0.6865,0.7925,1.0391,1.2619,1.3997,1.4368,1.4565,1.4825,1.5259,1.5412,1.4981,1.3921,1.2528,1.1263,1.0004,0.8656,0.8038,0.8038,0.8038,0.8038,0.8038,0.8038,0.8038,0.8038,0.8038,0.8347,0.8759,0.8244,0.8347,0.8759,0.8244,0.8038,0.8038,2.2372,2.2786,2.2811,2.1807,2.1799,2.1618,2.0652,1.9627,1.8701,1.8164,1.751,1.7184,1.7393,1.7441,1.7598,1.7978,1.8047,1.8066,1.8066,1.8105,1.7959,1.7568,1.792,1.7764,1.6973,1.7314,1.7285,1.6846,1.7666,1.7852,1.7451,1.7832,1.8008,1.8008,1.8008,1.8008,1.8008,1.8008,1.8008,1.794,1.6881,1.5956,1.5092,1.3954,1.3025,1.2305,1.2305,1.2305,1.2305,1.2305,1.2305,1.2305,1.2305,1.2305,1.2305,1.2305,1.2305,1.2305,1.2305,1.2318,1.2345,1.2345,1.2365,1.2136,1.1025,1.0807,1.0524,0.9554,0.9327,0.9027,0.8209,0.7893,0.7581,0.6758,0.806,0.9199,0.9337,0.9397,0.9402,0.9399,0.7853,0.6822,0.6913,0.7073,0.8138,1.0398,1.2481,1.3795,1.4088,1.4663,1.5021,1.505,1.5514,1.5089,1.372,1.2552,1.1264,1.0004,0.8656,0.8038,0.8038,0.8038,0.8038,0.8038,0.8038,0.8038,0.8038,0.8038,0.8755,0.9884,0.8652,0.8962,0.9892,0.8656,0.8141,0.8038,2.2874,2.299,2.3002,2.2824,2.2287,2.1806,2.1641,2.1381,2.0642,1.921,1.9447,1.9296,1.7996,1.7871,1.791,1.8008,1.8311,1.8496,1.8496,1.8818,1.8965,1.8877,1.8965,1.8926,1.874,1.8496,1.8154,1.7734,1.8242,1.8281,1.7881,1.7969,1.8008,1.8008,1.8008,1.8008,1.8008,1.8008,1.8008,1.7872,1.6158,1.5376,1.5021,1.3237,1.2445,1.2305,1.2305,1.2305,1.2305,1.2305,1.2305,1.2305,1.2305,1.2305,1.2305,1.2305,1.2305,1.2305,1.2305,1.2472,1.2728,1.2728,1.2832,1.2647,1.1109,1.0953,1.0798,0.9787,0.9632,0.961,0.9702,0.8722,0.8194,0.8978,0.8769,0.8724,0.9536,0.9077,0.8664,0.863,0.7684,0.7044,0.7048,0.8748,1.0062,1.0573,1.2675,1.4088,1.4375,1.4761,1.5115,1.5266,1.5622,1.4665,1.2368,1.2031,1.1264,1.0004,0.8656,0.8038,0.8038,0.8038,0.8038,0.8038,0.8038,0.8038,0.8038,0.8038,0.8803,0.9947,0.9648,0.976,0.9929,0.9673,0.8866,0.8038,2.3015,2.3078,2.3078,2.3078,2.2763,2.2445,2.2445,2.2137,2.1428,2.0074,1.9944,1.9581,1.8419,1.8125,1.8086,1.8291,1.8516,1.873,1.8936,1.916,1.9287,1.9287,1.9287,1.9287,1.9287,1.9258,1.8936,1.8311,1.8525,1.8525,1.8311,1.8311,1.8418,1.8623,1.8623,1.8623,1.8613,1.8398,1.8428,1.8434,1.6589,1.5689,1.5322,1.3579,1.2659,1.2305,1.2305,1.2305,1.2305,1.2305,1.2305,1.2305,1.2305,1.2305,1.2305,1.2305,1.2405,1.2512,1.2512,1.2732,1.2966,1.2966,1.3093,1.2969,1.2177,1.2067,1.2017,1.1461,1.1376,1.1259,1.0992,1.0263,0.9652,0.9275,0.905,0.9022,0.902,0.8629,0.8421,0.8367,0.7631,0.7139,0.7139,0.8701,0.9975,1.0573,1.2204,1.3607,1.4467,1.4818,1.5099,1.5386,1.5622,1.4551,1.1957,1.1923,1.0947,0.9069,0.8347,0.8038,0.8038,0.8038,0.8038,0.8038,0.8038,0.835,0.8962,0.892,1.0134,1.1829,1.1179,1.1311,1.1678,1.0474,0.9172,0.8038,2.3078,2.3078,2.3078,2.3078,2.3078,2.3065,2.2944,2.2322,2.1553,2.0526,1.9759,1.9153,1.8654,1.8389,1.8369,1.8711,1.8809,1.9014,1.9375,1.9463,1.9512,1.9512,1.9512,1.9512,1.9512,1.9853,1.9609,1.875,1.8818,1.8818,1.875,1.875,1.8936,1.9287,1.9287,1.9248,1.916,1.8867,1.8796,1.8716,1.7124,1.6125,1.5381,1.4065,1.3114,1.2458,1.2458,1.2425,1.2378,1.2378,1.2345,1.2311,1.2365,1.2378,1.2385,1.2438,1.2632,1.2903,1.2903,1.3053,1.3287,1.3287,1.332,1.336,1.336,1.332,1.3287,1.3287,1.3287,1.3054,1.2283,1.1924,1.1162,0.9393,0.948,0.9408,0.8438,0.823,0.8188,0.8211,0.7498,0.7139,0.7139,0.8239,0.9441,1.0564,1.1776,1.3033,1.4568,1.4891,1.519,1.5507,1.5507,1.4343,1.1957,1.1712,1.0319,0.8038,0.8038,0.8038,0.8038,0.8038,0.8038,0.8038,0.8202,0.9011,1.0061,1.0275,1.1758,1.3838,1.2705,1.2948,1.3539,1.095,0.9164,0.8038,2.3078,2.3078,2.3078,2.3078,2.3078,2.2884,2.2199,2.1939,2.1302,1.9694,1.9365,1.9153,1.8654,1.8926,1.9141,1.9189,1.9531,1.9766,1.9824,2.0185,2.0391,2.0391,2.0391,2.0391,2.0391,2.0449,2.0059,1.9199,1.9561,1.9561,1.9199,1.9199,1.9228,1.9287,1.9287,1.9082,1.874,1.9062,1.8352,1.6924,1.6456,1.5557,1.4336,1.3536,1.3165,1.3086,1.3086,1.2913,1.2761,1.2761,1.2518,1.2345,1.2605,1.2761,1.2815,1.3006,1.312,1.3146,1.3146,1.336,1.3587,1.3587,1.3774,1.3968,1.3968,1.3768,1.3587,1.3587,1.3587,1.3579,1.3748,1.2729,1.1887,1.1759,1.0262,0.9,0.8794,0.7884,0.7253,0.7281,0.7214,0.7139,0.7139,0.8332,0.9614,1.0885,1.2198,1.3641,1.5219,1.5321,1.5507,1.573,1.4665,1.3406,1.1862,1.0783,0.9486,0.8038,0.8038,0.8038,0.8038,0.8038,0.8038,0.8028,0.9216,0.979,1.0117,1.1177,1.2507,1.3844,1.3659,1.3773,1.3596,1.0984,0.9126,0.8038,2.3078,2.3078,2.3078,2.3078,2.2763,2.2419,2.2258,2.1847,2.116,2.017,2.0006,1.9836,1.937,1.9521,1.9639,1.9639,1.9805,2.0019,2.0264,2.0459,2.0566,2.0566,2.0566,2.0566,2.0566,2.0566,2.0381,2.0,1.9941,1.9814,1.9639,1.9639,1.9766,2.0,2.0,1.9893,1.9707,1.9658,1.9329,1.8648,1.6942,1.6024,1.5512,1.3705,1.2953,1.2926,1.2759,1.2832,1.2979,1.2882,1.2772,1.2832,1.2966,1.3006,1.3033,1.3173,1.3327,1.3454,1.3454,1.3667,1.3928,1.4095,1.4235,1.4376,1.4543,1.4476,1.4289,1.3961,1.3895,1.3928,1.4062,1.3549,1.2974,1.2395,1.1466,1.0621,0.996,0.884,0.7871,0.7143,0.7139,0.7139,0.7139,0.7779,0.8979,1.0947,1.1673,1.3043,1.5272,1.5406,1.5514,1.5825,1.4558,1.3307,1.1868,1.0663,0.9279,0.8038,0.8759,0.8759,0.8038,0.8038,0.8414,0.9158,0.9761,1.0807,1.2203,1.2742,1.3825,1.4988,1.4994,1.4027,1.2619,1.1458,0.9801,0.8038]}]]